[[{"header":{"parameterUnit":"m.s-1","parameterCategory":1,"la1":30.6,"la2":29.2853,"lo1":-89.7004,"lo2":-87.6739,"dy":0.0162,"dx":0.0183,"nx":112,"ny":82,"refTime":"2023-02-25T06:00:00:Z","depth":0,"parameterNumber":2,"parameterNumberName":"U-component_of_WINDS"},"data":[0.0,0.0,0.0,0.0,0.0,0.0,0.0,0.0,0.0,0.0,0.0,0.0,0.0,0.0,0.0,0.0,0.0,0.0,0.0,0.0,0.0,0.0,0.0,0.0,0.0,0.0,0.0,0.0,0.0,0.0,0.0,0.0,0.0,0.0,0.0,0.0,0.0,0.0,0.0,0.0,0.0,0.0,0.0,0.0,0.0,0.0,0.0,0.0,0.0,0.0,0.0,0.0,0.0,0.0,0.0,0.0,0.0,0.0,0.0,0.0,0.0,0.0,0.0,0.0,0.0,0.0,0.0,0.0,0.0,0.0,0.0,0.0,0.0,0.0,0.0,0.0,0.0,0.0,0.0,0.0,0.0,0.0,0.0,0.0,0.0,0.0,0.0,0.0,0.0,0.0,-8.4627,-8.4803,-8.5211,-8.555,-8.5702,-8.5702,-8.6084,-8.6963,0.0,0.0,0.0,0.0,0.0,0.0,0.0,0.0,0.0,0.0,0.0,0.0,0.0,0.0,0.0,0.0,0.0,0.0,0.0,0.0,0.0,0.0,0.0,0.0,0.0,0.0,0.0,0.0,0.0,0.0,0.0,0.0,0.0,0.0,0.0,0.0,0.0,0.0,0.0,0.0,0.0,0.0,0.0,0.0,0.0,0.0,0.0,0.0,0.0,0.0,0.0,0.0,0.0,0.0,0.0,0.0,0.0,0.0,0.0,0.0,0.0,0.0,0.0,0.0,0.0,0.0,0.0,0.0,0.0,0.0,0.0,0.0,0.0,0.0,0.0,0.0,0.0,0.0,0.0,0.0,0.0,0.0,0.0,0.0,0.0,0.0,0.0,0.0,0.0,0.0,0.0,0.0,0.0,0.0,0.0,0.0,0.0,0.0,0.0,0.0,0.0,0.0,0.0,0.0,-8.4365,-8.5291,-8.5471,-8.5817,-8.6543,-8.6619,-8.6963,-8.7842,0.0,0.0,0.0,0.0,0.0,0.0,0.0,0.0,0.0,0.0,0.0,0.0,0.0,0.0,0.0,0.0,0.0,0.0,0.0,0.0,0.0,0.0,0.0,0.0,0.0,0.0,0.0,0.0,0.0,0.0,0.0,0.0,0.0,0.0,0.0,0.0,0.0,0.0,0.0,0.0,0.0,0.0,0.0,0.0,0.0,0.0,0.0,0.0,0.0,0.0,0.0,0.0,0.0,0.0,0.0,0.0,0.0,0.0,0.0,0.0,0.0,0.0,0.0,0.0,0.0,0.0,0.0,0.0,0.0,0.0,0.0,0.0,0.0,0.0,0.0,0.0,0.0,0.0,0.0,0.0,0.0,0.0,0.0,0.0,0.0,0.0,0.0,0.0,0.0,0.0,0.0,0.0,0.0,0.0,0.0,0.0,0.0,0.0,0.0,0.0,0.0,0.0,0.0,-8.5524,-8.6029,-8.6826,-8.6925,-8.7078,-8.746,-8.7498,-8.7842,-8.8683,-8.8377,0.0,0.0,0.0,0.0,0.0,0.0,0.0,0.0,0.0,0.0,0.0,0.0,0.0,0.0,0.0,0.0,0.0,0.0,0.0,0.0,0.0,0.0,0.0,0.0,0.0,0.0,0.0,0.0,0.0,0.0,0.0,0.0,0.0,0.0,0.0,0.0,0.0,0.0,0.0,0.0,0.0,0.0,0.0,0.0,0.0,0.0,0.0,0.0,0.0,0.0,0.0,0.0,0.0,0.0,0.0,0.0,0.0,0.0,0.0,0.0,0.0,0.0,0.0,0.0,0.0,0.0,0.0,0.0,0.0,0.0,0.0,0.0,0.0,0.0,0.0,0.0,0.0,0.0,0.0,0.0,0.0,0.0,0.0,0.0,0.0,0.0,0.0,0.0,0.0,0.0,0.0,0.0,0.0,0.0,0.0,0.0,0.0,0.0,0.0,0.0,0.0,0.0,-8.7117,-8.7437,-8.803,-8.811,-8.8186,-8.8377,-8.8377,-8.8721,-8.9561,-8.96,0.0,0.0,0.0,0.0,0.0,0.0,0.0,0.0,0.0,0.0,0.0,0.0,0.0,0.0,0.0,0.0,0.0,0.0,0.0,0.0,0.0,0.0,0.0,0.0,0.0,0.0,0.0,0.0,0.0,0.0,0.0,0.0,0.0,0.0,0.0,0.0,0.0,0.0,0.0,0.0,0.0,0.0,0.0,0.0,0.0,0.0,0.0,0.0,0.0,0.0,0.0,0.0,0.0,0.0,0.0,0.0,0.0,0.0,0.0,0.0,0.0,0.0,0.0,0.0,0.0,0.0,0.0,0.0,0.0,0.0,0.0,0.0,0.0,0.0,0.0,0.0,0.0,0.0,0.0,0.0,0.0,0.0,0.0,0.0,0.0,0.0,0.0,0.0,0.0,0.0,0.0,0.0,0.0,0.0,0.0,0.0,0.0,0.0,0.0,0.0,0.0,0.0,-8.6858,-8.7437,-8.803,-8.811,-8.8415,-8.9141,-8.9218,-8.96,-9.044,-9.0517,0.0,0.0,0.0,0.0,0.0,0.0,0.0,0.0,0.0,0.0,0.0,0.0,0.0,0.0,0.0,0.0,0.0,0.0,0.0,0.0,0.0,0.0,0.0,0.0,0.0,0.0,0.0,0.0,0.0,0.0,0.0,0.0,0.0,0.0,0.0,0.0,0.0,0.0,0.0,0.0,0.0,0.0,0.0,0.0,0.0,0.0,0.0,0.0,0.0,0.0,0.0,0.0,0.0,0.0,0.0,0.0,0.0,0.0,0.0,0.0,0.0,0.0,0.0,0.0,0.0,0.0,0.0,0.0,0.0,0.0,0.0,0.0,0.0,0.0,0.0,0.0,0.0,0.0,0.0,0.0,0.0,0.0,0.0,0.0,0.0,0.0,0.0,0.0,0.0,0.0,0.0,0.0,0.0,0.0,0.0,0.0,0.0,0.0,0.0,0.0,0.0,0.0,-8.8381,-8.8994,-8.9575,-8.9676,-8.9791,-9.0096,-9.0135,-9.0249,-9.0593,0.0,0.0,0.0,0.0,0.0,0.0,0.0,0.0,0.0,0.0,0.0,0.0,0.0,0.0,0.0,0.0,0.0,0.0,0.0,0.0,0.0,0.0,0.0,0.0,0.0,0.0,0.0,0.0,0.0,0.0,0.0,0.0,0.0,0.0,0.0,0.0,0.0,0.0,0.0,0.0,0.0,0.0,0.0,0.0,0.0,0.0,0.0,0.0,0.0,0.0,0.0,0.0,0.0,0.0,0.0,0.0,0.0,0.0,0.0,0.0,0.0,0.0,0.0,0.0,0.0,0.0,0.0,0.0,0.0,0.0,0.0,0.0,0.0,0.0,0.0,0.0,0.0,0.0,0.0,0.0,0.0,0.0,0.0,0.0,0.0,0.0,0.0,0.0,0.0,0.0,0.0,0.0,0.0,0.0,0.0,0.0,0.0,0.0,0.0,0.0,0.0,0.0,-8.872,-8.9324,-8.9944,-9.053,-9.0593,-9.0593,-9.0593,-9.0593,-9.0593,-9.0593,0.0,0.0,0.0,0.0,0.0,0.0,0.0,0.0,0.0,0.0,0.0,0.0,0.0,0.0,0.0,0.0,0.0,0.0,0.0,0.0,0.0,0.0,0.0,0.0,0.0,0.0,0.0,0.0,0.0,0.0,0.0,0.0,0.0,0.0,0.0,0.0,0.0,0.0,0.0,0.0,0.0,0.0,0.0,0.0,0.0,0.0,0.0,0.0,0.0,0.0,0.0,0.0,0.0,0.0,0.0,0.0,0.0,0.0,0.0,0.0,0.0,0.0,0.0,0.0,0.0,0.0,0.0,0.0,0.0,0.0,0.0,0.0,0.0,0.0,0.0,0.0,0.0,0.0,0.0,0.0,0.0,0.0,0.0,0.0,0.0,0.0,0.0,0.0,0.0,0.0,0.0,0.0,0.0,0.0,0.0,0.0,0.0,0.0,0.0,0.0,0.0,0.0,-8.872,-8.935,-8.9944,-9.053,-9.0593,-9.0593,-9.0593,-9.0593,-9.0593,0.0,0.0,0.0,0.0,0.0,0.0,0.0,0.0,0.0,0.0,0.0,0.0,0.0,0.0,0.0,0.0,0.0,0.0,0.0,0.0,0.0,0.0,0.0,0.0,0.0,0.0,0.0,0.0,0.0,0.0,0.0,0.0,0.0,0.0,0.0,0.0,0.0,0.0,0.0,0.0,0.0,0.0,0.0,0.0,0.0,0.0,0.0,0.0,0.0,0.0,0.0,0.0,0.0,0.0,0.0,0.0,0.0,0.0,0.0,0.0,0.0,0.0,0.0,0.0,0.0,0.0,0.0,0.0,0.0,0.0,0.0,0.0,0.0,0.0,0.0,0.0,0.0,0.0,0.0,0.0,0.0,0.0,0.0,0.0,0.0,0.0,0.0,0.0,0.0,0.0,0.0,0.0,0.0,0.0,0.0,0.0,0.0,0.0,0.0,0.0,0.0,0.0,0.0,-8.8776,-8.9714,-9.0405,-9.0572,-9.0593,-9.0593,-9.0593,-9.0593,-9.0593,-9.0593,0.0,0.0,0.0,0.0,0.0,0.0,0.0,0.0,0.0,0.0,0.0,0.0,0.0,0.0,0.0,0.0,0.0,0.0,0.0,0.0,0.0,0.0,0.0,0.0,0.0,0.0,0.0,0.0,0.0,0.0,0.0,0.0,0.0,0.0,0.0,0.0,0.0,0.0,0.0,0.0,0.0,0.0,0.0,0.0,0.0,0.0,0.0,0.0,0.0,0.0,0.0,0.0,0.0,0.0,0.0,0.0,0.0,0.0,0.0,0.0,0.0,0.0,0.0,0.0,0.0,0.0,0.0,0.0,0.0,0.0,0.0,0.0,0.0,0.0,0.0,0.0,0.0,0.0,0.0,0.0,0.0,0.0,0.0,0.0,0.0,0.0,0.0,0.0,0.0,0.0,0.0,0.0,0.0,0.0,0.0,0.0,0.0,0.0,0.0,0.0,0.0,0.0,-8.8776,-8.9665,-9.034,-9.0572,-9.0593,-9.0593,-9.0593,-9.0593,-9.0593,-9.0593,0.0,0.0,0.0,0.0,0.0,0.0,0.0,0.0,0.0,0.0,0.0,0.0,0.0,0.0,0.0,0.0,0.0,0.0,0.0,0.0,0.0,0.0,0.0,0.0,0.0,0.0,0.0,0.0,0.0,0.0,0.0,0.0,0.0,0.0,0.0,0.0,0.0,0.0,0.0,0.0,0.0,0.0,0.0,0.0,0.0,0.0,0.0,0.0,0.0,0.0,0.0,0.0,0.0,0.0,0.0,0.0,0.0,0.0,0.0,0.0,0.0,0.0,0.0,0.0,0.0,0.0,0.0,0.0,0.0,0.0,0.0,0.0,0.0,0.0,0.0,0.0,0.0,0.0,0.0,0.0,0.0,0.0,0.0,0.0,0.0,0.0,0.0,0.0,0.0,0.0,0.0,0.0,0.0,0.0,0.0,0.0,0.0,0.0,0.0,0.0,0.0,0.0,-8.872,-8.9376,-8.9991,-9.0551,-9.0593,-9.0593,-9.0593,-9.0593,-9.0593,-9.0593,0.0,0.0,0.0,0.0,0.0,0.0,0.0,0.0,0.0,0.0,0.0,0.0,0.0,0.0,0.0,0.0,0.0,0.0,0.0,0.0,0.0,0.0,0.0,0.0,0.0,0.0,0.0,0.0,0.0,0.0,0.0,0.0,0.0,0.0,0.0,0.0,0.0,0.0,0.0,0.0,0.0,0.0,0.0,0.0,0.0,0.0,0.0,0.0,0.0,0.0,0.0,0.0,0.0,0.0,0.0,0.0,0.0,0.0,0.0,0.0,-8.1128,-8.1128,0.0,0.0,0.0,0.0,0.0,0.0,0.0,0.0,0.0,0.0,0.0,0.0,0.0,0.0,0.0,0.0,0.0,0.0,0.0,0.0,0.0,0.0,0.0,0.0,0.0,0.0,0.0,0.0,0.0,0.0,0.0,0.0,0.0,0.0,0.0,0.0,0.0,0.0,0.0,0.0,-8.8776,-8.9739,-9.0487,-9.0572,-9.0593,-9.0593,-9.0593,-9.0593,-9.0593,-9.0593,-9.0593,0.0,0.0,0.0,0.0,0.0,0.0,0.0,0.0,0.0,0.0,0.0,0.0,0.0,0.0,0.0,0.0,0.0,0.0,0.0,0.0,0.0,0.0,0.0,0.0,0.0,0.0,0.0,0.0,0.0,0.0,0.0,0.0,0.0,0.0,0.0,0.0,0.0,0.0,0.0,0.0,0.0,0.0,0.0,0.0,0.0,0.0,0.0,0.0,0.0,0.0,0.0,0.0,0.0,0.0,0.0,0.0,0.0,0.0,0.0,-8.1273,-8.1309,0.0,0.0,0.0,0.0,0.0,0.0,0.0,0.0,0.0,0.0,0.0,0.0,0.0,0.0,0.0,0.0,0.0,0.0,0.0,0.0,0.0,0.0,0.0,0.0,0.0,0.0,0.0,0.0,0.0,0.0,0.0,0.0,0.0,0.0,0.0,0.0,0.0,0.0,0.0,0.0,-8.8748,-8.9578,-9.0257,-9.0551,-9.0593,-9.0593,-9.0593,-9.0593,-9.0593,-9.0593,-9.0593,0.0,0.0,0.0,0.0,0.0,0.0,0.0,0.0,0.0,0.0,0.0,0.0,0.0,0.0,0.0,0.0,0.0,0.0,0.0,0.0,0.0,0.0,0.0,0.0,0.0,0.0,0.0,0.0,0.0,0.0,0.0,0.0,0.0,0.0,0.0,0.0,0.0,0.0,0.0,0.0,0.0,0.0,0.0,0.0,0.0,0.0,0.0,0.0,0.0,0.0,0.0,0.0,0.0,-8.1128,-8.1165,-8.1309,-8.1309,-8.1744,-8.2468,-8.1817,-8.1889,-8.2505,-8.2505,0.0,0.0,0.0,0.0,0.0,0.0,0.0,0.0,0.0,0.0,0.0,0.0,0.0,0.0,0.0,0.0,0.0,0.0,0.0,0.0,0.0,0.0,-8.6501,-8.6501,-8.675,-8.6925,-8.675,0.0,0.0,0.0,0.0,0.0,0.0,0.0,0.0,0.0,0.0,0.0,-8.8859,-8.9478,-9.0037,-9.0551,-9.0593,-9.0593,-9.0593,-9.0593,-9.0593,-9.0593,-9.0593,-9.0593,0.0,0.0,0.0,0.0,0.0,0.0,0.0,0.0,0.0,0.0,0.0,0.0,0.0,0.0,0.0,0.0,0.0,0.0,0.0,0.0,0.0,0.0,0.0,0.0,0.0,0.0,0.0,0.0,0.0,0.0,0.0,0.0,-8.1128,-8.1128,0.0,0.0,0.0,0.0,0.0,0.0,0.0,0.0,0.0,0.0,0.0,0.0,0.0,-8.1128,-8.1128,-8.1128,-8.1128,-8.1128,-8.1128,-8.1454,-8.2143,-8.2143,-8.2577,-8.3338,-8.3229,0.0,-8.3338,-8.3338,0.0,0.0,0.0,0.0,0.0,0.0,0.0,0.0,0.0,0.0,0.0,0.0,0.0,0.0,0.0,0.0,0.0,0.0,0.0,0.0,0.0,0.0,-8.6925,-8.6925,-8.696,-8.6925,-8.675,-8.7224,-8.7778,-8.7778,-8.8205,-8.8375,0.0,0.0,0.0,0.0,0.0,0.0,-8.9503,-9.0121,-9.0508,-9.0572,-9.0593,-9.0593,-9.0593,-9.0593,-9.0593,-9.0593,-9.0593,-9.0593,-9.0593,-9.0593,0.0,0.0,0.0,0.0,0.0,0.0,0.0,0.0,0.0,0.0,0.0,0.0,0.0,0.0,0.0,0.0,0.0,0.0,0.0,0.0,0.0,0.0,0.0,0.0,0.0,0.0,0.0,0.0,0.0,-8.1128,-8.1128,-8.1128,-8.1128,-8.1128,0.0,0.0,0.0,0.0,0.0,0.0,0.0,0.0,0.0,-8.1128,-8.1128,-8.1128,-8.1128,-8.1128,-8.1128,-8.1128,-8.1563,-8.1961,-8.2287,-8.2758,-8.341,-8.4171,-8.4171,-8.4424,-8.4786,-8.4352,-8.4424,-8.4859,0.0,0.0,0.0,0.0,-8.5987,-8.5987,-8.5987,-8.6061,-8.6098,-8.6024,0.0,0.0,0.0,0.0,0.0,0.0,0.0,-8.6136,-8.632,-8.6429,-8.6501,-8.6644,-8.668,-8.6644,-8.6573,-8.7157,-8.7646,-8.7291,-8.7456,-8.7549,-8.7427,-8.7394,0.0,0.0,0.0,-8.8996,-8.9641,-9.0212,-9.0593,-9.0593,-9.0593,-9.0593,-9.0593,-9.0593,-9.0593,-9.0593,-9.0593,-9.0593,-9.0593,-9.0593,-9.0593,0.0,0.0,0.0,0.0,0.0,0.0,0.0,0.0,0.0,0.0,0.0,0.0,0.0,0.0,0.0,0.0,0.0,0.0,0.0,0.0,0.0,0.0,0.0,0.0,0.0,0.0,0.0,0.0,-8.1128,-8.1128,-8.1128,-8.1128,-8.1128,0.0,0.0,0.0,0.0,0.0,0.0,-8.1128,-8.1128,-8.1128,-8.1128,-8.1128,-8.1128,-8.1128,-8.1128,-8.1201,-8.1418,-8.1998,-8.2505,-8.2903,-8.3519,-8.4243,-8.5004,-8.5004,-8.533,-8.5837,-8.5257,-8.5366,-8.5909,-8.5909,-8.5909,-8.5873,-8.5948,-8.5948,-8.5948,-8.5948,-8.5986,-8.6024,-8.5986,-8.5948,-8.5948,-8.5948,0.0,0.0,0.0,0.0,-8.5986,-8.6137,-8.6174,-8.621,-8.6356,-8.6429,-8.6429,-8.6429,-8.6985,-8.7415,-8.6988,-8.709,-8.7291,-8.7427,-8.746,0.0,-8.8294,-8.8748,-8.9272,-8.9835,-9.034,-9.0593,-9.0593,-9.0593,-9.0593,-9.0593,-9.0593,-9.0593,-9.0593,-9.0593,-9.0593,-9.0593,-9.0593,-9.0593,-9.0593,0.0,0.0,0.0,0.0,0.0,0.0,0.0,0.0,0.0,0.0,0.0,0.0,0.0,0.0,0.0,0.0,0.0,0.0,0.0,0.0,0.0,0.0,0.0,0.0,0.0,0.0,0.0,0.0,0.0,-8.1128,-8.1128,0.0,0.0,0.0,0.0,-8.1128,-8.1128,-8.1128,-8.1128,-8.1128,-8.1128,-8.1128,-8.1128,-8.1128,-8.1128,-8.1128,-8.1491,-8.2215,-8.2287,-8.3084,-8.4569,-8.4605,-8.5076,-8.5837,-8.5837,-8.5873,-8.5909,-8.5873,-8.5873,-8.5909,-8.5909,-8.5909,-8.5947,-8.6062,-8.61,-8.61,-8.61,-8.621,-8.632,-8.6137,-8.61,-8.61,-8.61,-8.5987,0.0,0.0,-8.61,-8.6137,-8.632,-8.6356,-8.6393,-8.6429,-8.6429,-8.6429,-8.6429,-8.6882,-8.7345,-8.7544,-8.816,-8.8692,-8.8692,0.0,-8.8914,-8.9503,-8.9641,-8.9859,-9.0487,-9.0572,-9.0593,-9.0593,-9.0593,-9.0593,-9.0593,-9.0593,-9.0593,-9.0593,-9.0593,-9.0593,-9.0593,-9.0593,-9.0593,-9.0593,-9.0593,0.0,0.0,0.0,0.0,0.0,0.0,0.0,0.0,0.0,0.0,0.0,0.0,0.0,0.0,0.0,0.0,0.0,0.0,0.0,0.0,0.0,0.0,0.0,0.0,0.0,0.0,0.0,0.0,-8.1128,-8.1128,0.0,-8.1128,-8.1128,-8.1128,-8.1128,-8.1128,-8.1128,-8.1128,-8.1128,-8.1128,-8.1128,-8.1128,-8.1346,-8.1853,-8.1853,-8.2251,-8.3048,-8.3591,-8.4135,-8.4714,-8.5221,-8.5619,-8.5909,-8.5909,-8.5909,-8.5909,-8.5909,-8.5909,-8.5909,-8.5909,-8.5909,-8.5909,-8.5948,-8.5986,-8.5986,-8.5986,-8.6024,-8.6061,-8.6024,-8.5986,-8.5987,-8.6063,-8.5987,-8.5911,-8.6063,-8.6062,-8.5986,-8.6061,-8.6098,-8.6098,-8.6098,-8.6098,-8.6098,-8.6098,-8.6607,-8.7053,-8.712,-8.7948,-8.8654,-8.8776,-8.8804,-8.8996,-8.9616,-8.9714,-8.992,-9.053,-9.0593,-9.0593,-9.0593,-9.0593,-9.0593,-9.0593,-9.0593,-9.0593,-9.0593,-9.0593,-9.0593,-9.0593,-9.0593,-9.0593,-9.0593,-9.0593,-9.0593,0.0,0.0,0.0,0.0,0.0,0.0,0.0,0.0,0.0,0.0,0.0,0.0,0.0,0.0,0.0,0.0,0.0,0.0,0.0,0.0,0.0,0.0,0.0,0.0,0.0,-8.1128,-8.1128,-8.1128,-8.1128,-8.1128,-8.1128,-8.1128,-8.1128,-8.1128,-8.1128,-8.1128,-8.1128,-8.1128,-8.1237,-8.1491,-8.1491,-8.1889,-8.2686,-8.2686,-8.3084,-8.3881,-8.4424,-8.4823,-8.5112,-8.5656,-8.5909,-8.5909,-8.5909,-8.5909,-8.5909,-8.5909,-8.5909,-8.5909,-8.5909,-8.5909,-8.5909,-8.5909,-8.5909,-8.5909,-8.5909,-8.5909,-8.5909,-8.5909,-8.5909,-8.5911,-8.5987,-8.5986,-8.5911,-8.5987,-8.5986,-8.5909,-8.5909,-8.5909,-8.5909,-8.5909,-8.5909,-8.5911,-8.5948,-8.65,-8.6951,-8.7019,-8.7793,-8.8569,-8.8887,-8.9023,-8.9246,-8.9641,-8.9859,-9.006,-9.0257,-9.0449,-9.0593,-9.0593,-9.0593,-9.0593,-9.0593,-9.0593,-9.0593,-9.0593,-9.0593,-9.0593,-9.0593,-9.0593,-9.0593,-9.0593,-9.0593,-9.0593,-9.0593,0.0,0.0,0.0,0.0,0.0,0.0,0.0,0.0,0.0,0.0,0.0,0.0,0.0,0.0,0.0,0.0,0.0,0.0,0.0,0.0,0.0,0.0,0.0,-8.1128,-8.1128,-8.1128,-8.1128,-8.1128,-8.1128,-8.1128,-8.1128,-8.1128,-8.1128,-8.1128,-8.1128,-8.1165,-8.1165,-8.1527,-8.2287,-8.2324,-8.2722,-8.3519,-8.3519,-8.3917,-8.475,-8.475,-8.5149,-8.5909,-8.5909,-8.5909,-8.5909,-8.5909,-8.5909,-8.5909,-8.5909,-8.5909,-8.5909,-8.5909,-8.5909,-8.5909,-8.5909,-8.5909,-8.5909,-8.5909,-8.5909,-8.5909,-8.5909,-8.5909,-8.5909,-8.5909,-8.5909,-8.5909,-8.5909,-8.5909,-8.5909,-8.5909,-8.5909,-8.5909,-8.5909,-8.5909,-8.5911,-8.6063,-8.6532,-8.7044,-8.7247,-8.7892,-8.8558,-8.9167,-8.9516,-8.969,-8.969,-9.019,0.0,-8.9787,-9.0212,-9.0572,-9.0593,-9.0593,-9.0593,-9.0593,-9.0593,-9.0593,-9.0593,-9.0593,-9.0593,-9.0593,-9.0593,-9.0593,-9.0593,-9.0593,-9.0593,-9.0593,0.0,0.0,0.0,0.0,0.0,0.0,0.0,0.0,0.0,0.0,0.0,0.0,0.0,0.0,0.0,0.0,0.0,0.0,0.0,0.0,0.0,-8.1128,-8.1128,-8.1128,-8.1128,-8.1128,-8.1128,-8.1128,-8.1128,-8.1128,-8.1128,-8.1128,-8.1128,-8.1128,-8.1346,-8.1925,-8.1961,-8.2324,-8.312,-8.3157,-8.3555,-8.4352,-8.4352,-8.475,-8.5583,-8.5583,-8.5692,-8.5909,-8.5909,-8.5909,-8.5909,-8.5909,-8.5909,-8.5909,-8.5909,-8.5909,-8.5909,-8.5909,-8.5909,-8.5909,-8.5909,-8.5909,-8.5909,-8.5909,-8.5909,-8.5909,-8.5909,-8.5909,-8.5909,-8.5909,-8.5909,-8.5909,-8.5909,-8.5909,-8.5909,-8.5909,-8.5909,-8.5909,-8.5909,-8.5909,-8.5909,-8.5948,-8.6356,-8.6744,-8.6779,-8.741,-8.8063,-8.8446,-8.8904,-8.9182,-8.9182,-8.9641,-9.0006,-9.0052,-9.0228,-9.0362,-9.0572,-9.0593,-9.0593,-9.0593,-9.0593,-9.0593,-9.0593,-9.0593,-9.0593,-9.0593,-9.0593,-9.0593,-9.0593,-9.0593,-9.0593,0.0,0.0,0.0,0.0,0.0,0.0,0.0,0.0,0.0,0.0,0.0,0.0,0.0,0.0,0.0,0.0,0.0,0.0,0.0,0.0,0.0,0.0,-8.1128,-8.1128,-8.1128,-8.1128,-8.1128,-8.1128,-8.1128,-8.1128,-8.1128,-8.1128,-8.1237,-8.1563,-8.1599,-8.1961,-8.2758,-8.2794,-8.3157,-8.3953,-8.399,-8.4388,-8.5185,-8.5185,-8.5438,-8.5909,-8.5909,-8.5909,-8.5909,-8.5909,-8.5909,-8.5909,-8.5909,-8.5909,-8.5909,-8.5909,-8.5909,-8.5909,0.0,0.0,0.0,0.0,-8.5909,-8.5909,-8.5909,-8.5909,-8.5909,-8.5909,-8.5909,-8.5909,-8.5909,-8.5909,-8.5909,-8.5909,-8.5909,-8.5909,-8.5909,-8.5909,-8.5909,-8.5909,-8.5909,-8.5909,-8.5909,-8.6099,-8.632,-8.632,-8.6676,0.0,-8.7214,-8.8025,-8.8589,-8.8455,-8.9103,-8.9641,-8.9616,-9.0075,-9.0443,-9.0572,-9.0593,-9.0593,-9.0593,-9.0593,0.0,0.0,0.0,-9.0593,-9.0593,-9.0593,0.0,0.0,0.0,-9.0593,-9.0593,-9.0593,0.0,0.0,-9.0593,-9.0593,0.0,0.0,0.0,0.0,0.0,0.0,0.0,0.0,0.0,0.0,0.0,0.0,0.0,0.0,0.0,0.0,-8.1128,-8.1128,-8.1128,-8.1201,-8.1201,-8.1128,-8.1201,-8.1237,-8.1237,-8.1346,-8.1672,-8.236,-8.2432,-8.2758,-8.3591,-8.3627,0.0,0.0,0.0,-8.5185,-8.5873,-8.5909,-8.5909,-8.5909,-8.5909,-8.5909,-8.5909,-8.5909,-8.5909,-8.5909,-8.5909,-8.5909,-8.5909,-8.5909,-8.5909,-8.5909,-8.5909,-8.5909,-8.5909,-8.5909,-8.5909,-8.5909,-8.5909,0.0,0.0,-8.5909,-8.5909,-8.5909,-8.5909,-8.5909,-8.5909,-8.5909,-8.5909,-8.5909,-8.5909,-8.5909,-8.5909,-8.5909,-8.5909,-8.5909,-8.5909,-8.5909,-8.5909,-8.5909,-8.5986,-8.6025,-8.6025,-8.7181,-8.7995,-8.7667,-8.8645,-8.9287,-8.8941,-8.9897,-9.0551,-9.0551,-9.0572,0.0,-9.0551,-9.0572,-9.0572,-9.0551,-9.0572,-9.0593,-9.0593,-9.0593,-9.0593,-9.0593,-9.0593,-9.0593,-9.0593,-9.0593,-9.0593,-9.0593,-9.0593,-9.0593,0.0,0.0,0.0,0.0,0.0,0.0,0.0,0.0,0.0,0.0,0.0,0.0,0.0,0.0,0.0,-8.1128,-8.1128,-8.1128,-8.1128,-8.1672,-8.1817,-8.1201,-8.1672,-8.207,-8.207,-8.265,-8.3084,-8.3229,-8.3265,-8.3591,-8.4424,-8.446,-8.4823,-8.5619,-8.5656,-8.5728,-8.5909,-8.5909,-8.5909,-8.5909,-8.5909,0.0,-8.5909,-8.5909,-8.5909,-8.5909,-8.5909,-8.5909,-8.5909,-8.5909,-8.5909,-8.5909,-8.5909,-8.5909,-8.5909,-8.5909,-8.5909,-8.5909,-8.5909,-8.5909,-8.5909,-8.5909,-8.5909,-8.5909,-8.5909,-8.5909,0.0,-8.5909,-8.5909,-8.5909,-8.5909,-8.5909,-8.5909,-8.5909,-8.5909,-8.5909,-8.5909,-8.5909,-8.5909,-8.5909,-8.6356,-8.6775,-8.6775,-8.7181,-8.7609,-8.7761,-8.8729,-8.9426,-8.9579,-9.0006,-9.0273,-9.0273,-9.0487,-9.0508,-9.0295,-9.0487,-9.0508,-9.0295,-9.0487,-9.0593,-9.0593,-9.0593,-9.0593,-9.0593,-9.0593,-9.0593,-9.0593,-9.0593,-9.0593,-9.0593,-9.0593,-9.0593,0.0,0.0,0.0,0.0,0.0,0.0,0.0,0.0,0.0,0.0,0.0,-8.1128,-8.1128,0.0,-8.1128,-8.1128,-8.1454,-8.1708,-8.1708,-8.2396,-8.2577,-8.178,-8.2396,-8.2867,-8.2867,-8.3229,-8.3664,-8.4062,-8.4098,-8.446,-8.5257,-8.5293,-8.5475,-8.5873,-8.5909,-8.5909,-8.5909,-8.5909,-8.5909,-8.5909,-8.5909,-8.5909,-8.5909,-8.5909,-8.5909,-8.5909,-8.5909,-8.5909,-8.5909,-8.5909,-8.5909,-8.5909,-8.5909,-8.5909,-8.5909,-8.5909,-8.5909,-8.5909,-8.5909,-8.5909,-8.5909,-8.5909,-8.5909,-8.5909,-8.5909,-8.5909,-8.5909,-8.5909,-8.5909,-8.5909,-8.5909,-8.5909,-8.5909,-8.5909,-8.5909,-8.5909,-8.5909,-8.5909,-8.5909,-8.5909,-8.6392,-8.6811,-8.6811,-8.7386,-8.7898,-8.8123,-8.8849,-8.949,-8.9728,-9.0006,-9.0205,-9.0205,-9.0205,-9.0205,-9.0205,-9.0465,-9.053,-9.0422,-9.053,-9.0593,-9.0593,-9.0593,-9.0593,-9.0593,-9.0593,-9.0593,-9.0593,-9.0593,-9.0593,-9.0593,-9.0593,-9.0593,0.0,0.0,0.0,0.0,0.0,0.0,0.0,-8.1128,-8.1128,-8.1128,-8.1128,-8.1128,-8.1128,-8.1237,-8.1346,-8.1346,-8.1998,-8.2505,-8.2505,-8.3229,-8.3483,-8.2831,-8.3338,-8.3736,-8.3736,-8.3845,-8.4243,-8.4859,-8.4931,-8.5221,-8.5873,-8.5909,-8.5909,-8.5909,-8.5909,-8.5909,-8.5909,-8.5909,-8.5909,-8.5909,-8.5909,-8.5909,-8.5909,-8.5909,-8.5909,-8.5909,-8.5909,-8.5909,-8.5909,-8.5909,-8.5909,-8.5909,-8.5909,-8.5909,-8.5909,-8.5909,-8.5909,-8.5909,-8.5909,-8.5909,-8.5909,-8.5909,-8.5909,-8.5909,-8.5909,-8.5909,-8.5909,-8.5909,-8.5909,-8.5909,-8.5909,-8.5909,-8.5909,-8.5909,-8.5909,-8.5909,-8.5909,-8.5909,-8.5909,-8.5909,-8.632,-8.6674,-8.6674,-8.7577,-8.8413,-8.8512,-8.9039,-8.9478,-8.9616,-8.9897,-9.0075,-9.0029,-8.9935,-8.9996,-9.025,-9.0443,-9.053,-9.0572,-9.0593,-9.0593,-9.0593,-9.0593,-9.0593,-9.0593,-9.0593,-9.0593,-9.0593,-9.0593,-9.0593,-9.0593,-9.0593,-9.0572,-8.1056,-8.1128,-8.1128,-8.1128,-8.1128,-8.1128,0.0,-8.1128,-8.1128,-8.1128,-8.1128,-8.1128,-8.1128,-8.1672,-8.2143,-8.2143,-8.2831,-8.3338,-8.3338,-8.4062,-8.4533,-8.4424,-8.4497,-8.4569,-8.4569,-8.5221,-8.5656,-8.5764,-8.5764,-8.5801,-8.5909,-8.5909,-8.5909,-8.5909,-8.5909,-8.5909,-8.5909,-8.5909,-8.5909,-8.5909,-8.5909,-8.5909,-8.5909,-8.5909,-8.5909,-8.5909,-8.5909,-8.5909,-8.5909,-8.5909,-8.5909,-8.5909,-8.5909,-8.5909,-8.5909,-8.5909,-8.5909,-8.5909,-8.5909,-8.5909,-8.5909,-8.5909,-8.5909,-8.5909,-8.5909,-8.5909,-8.5909,-8.5909,-8.5909,-8.5909,-8.5909,-8.5909,-8.5909,-8.5909,-8.5909,-8.5909,-8.5909,-8.5909,-8.5909,-8.5909,-8.6499,-8.6943,-8.6943,-8.8063,-8.8859,-8.8635,-8.9044,-8.9412,-8.9412,-8.9667,-8.9741,-8.9489,-8.9887,-9.0273,-9.053,-9.0362,-9.034,-9.0572,-9.0593,-9.0593,-9.0593,-9.0593,-9.0593,-9.0593,-9.0593,-9.0593,-9.0593,-9.0593,-9.0593,-9.0593,-9.0593,-9.0487,-8.0948,-8.1128,-8.1128,-8.1128,-8.1128,-8.1128,-8.1128,-8.1128,-8.1128,-8.1128,-8.1454,-8.178,-8.178,-8.2432,-8.2976,-8.2976,-8.3664,-8.4207,-8.4207,-8.4895,-8.5402,-8.5402,-8.5402,-8.5402,-8.5402,-8.5692,-8.5909,-8.5909,-8.5909,-8.5909,-8.5909,-8.5909,-8.5909,-8.5909,-8.5909,-8.5909,-8.5909,-8.5909,-8.5909,-8.5909,-8.5909,-8.5909,-8.5909,-8.5909,-8.5909,-8.5909,-8.5909,-8.5909,-8.5909,-8.5909,-8.5909,-8.5909,-8.5909,-8.5909,-8.5909,-8.5909,-8.5909,-8.5909,-8.5909,-8.5909,-8.5909,-8.5909,-8.5909,-8.5909,-8.5909,-8.5909,-8.5909,-8.5909,-8.5909,-8.5909,-8.5909,-8.5909,-8.5909,-8.5909,-8.5909,-8.5909,-8.5909,-8.5909,-8.5909,-8.5909,-8.6392,-8.6777,-8.6777,-8.773,-8.85,-8.8383,-8.9071,-8.9616,-8.9616,-8.9716,-8.9741,-8.9642,-8.9958,-9.025,-9.034,-9.0422,-9.0487,-9.0572,-9.0593,-9.0593,-9.0593,-9.0593,-9.0593,-9.0593,-9.0593,-9.0593,-9.0593,-9.0593,-9.0593,-9.0593,-9.0593,-9.0465,-8.0948,-8.1128,-8.1128,-8.1128,-8.1128,-8.1128,-8.1128,-8.1128,-8.1165,-8.1382,-8.1889,-8.236,-8.2577,-8.3265,-8.3809,-8.3809,-8.4497,-8.504,-8.504,-8.5511,-8.5909,-8.5909,-8.5909,-8.5909,-8.5909,-8.5909,-8.5909,-8.5909,-8.5909,-8.5909,-8.5909,-8.5909,-8.5909,-8.5909,-8.5909,-8.5909,-8.5909,-8.5909,-8.5909,-8.5909,-8.5909,-8.5909,-8.5909,-8.5909,-8.5909,-8.5909,-8.5909,-8.5909,-8.5909,-8.5909,-8.5909,-8.5909,-8.5909,-8.5909,-8.5909,-8.5909,-8.5909,-8.5909,-8.5909,-8.5909,-8.5909,-8.5909,-8.5909,-8.5909,-8.5909,-8.5909,-8.5909,-8.5909,-8.5909,-8.5909,-8.5909,-8.5909,-8.5909,-8.5909,-8.5909,-8.5909,-8.5909,-8.5909,-8.5909,-8.5909,-8.6173,-8.6428,-8.6464,-8.7258,-8.7873,-8.7904,-8.8851,-8.9591,-8.9667,-8.9741,-8.9814,-8.9887,-9.0075,-9.0228,-9.0295,-9.0487,-9.0593,-9.0593,-9.0593,-9.0593,-9.0593,-9.0593,-9.0593,-9.0593,-9.0593,-9.0593,-9.0593,-9.0593,-9.0593,-9.0631,-9.0822,-9.077,-8.1092,-8.1128,-8.1128,-8.1128,-8.1128,-8.1128,-8.1128,-8.1128,-8.1309,-8.207,-8.2287,-8.2541,-8.3301,-8.4098,-8.4642,-8.4642,-8.533,-8.5873,-8.5873,-8.5873,-8.5909,-8.5909,-8.5909,-8.5909,-8.5909,-8.5909,-8.5909,-8.5909,-8.5909,-8.5909,-8.5909,-8.5909,-8.5909,-8.5909,-8.5909,-8.5909,-8.5909,-8.5909,-8.5909,-8.5909,-8.5909,-8.5909,-8.5909,-8.5909,-8.5909,-8.5909,-8.5909,-8.5909,-8.5909,-8.5909,-8.5909,-8.5909,-8.5909,-8.5909,-8.5909,-8.5909,-8.5909,-8.5909,-8.5909,-8.5909,-8.5909,-8.5909,-8.5909,-8.5909,-8.5909,-8.5909,-8.5909,-8.5909,-8.5909,-8.5909,-8.5909,-8.5909,-8.5909,-8.5909,-8.5909,-8.5909,-8.5909,-8.5909,-8.5909,-8.5909,-8.5909,-8.5948,-8.61,-8.6571,-8.6988,-8.7194,-8.8212,-8.9054,-8.9359,-8.9616,-8.9887,-9.0182,-9.0205,-9.0295,-9.0551,-9.061,-9.0593,-9.0593,-9.0593,-9.0593,-9.0593,-9.0593,-9.0593,-9.0593,-9.0593,-9.0593,-9.0593,-9.0593,-9.0593,-9.0631,-9.1395,-9.161,-8.1128,-8.1128,-8.1128,-8.1128,-8.1128,-8.1128,-8.1128,-8.1527,-8.1961,-8.2215,-8.312,-8.3953,-8.4243,-8.4931,-8.5511,-8.5511,-8.5728,-8.5909,-8.5909,-8.5909,-8.5909,-8.5909,-8.5909,-8.5909,-8.5909,-8.5909,-8.5909,-8.5909,-8.5909,-8.5909,-8.5909,-8.5909,-8.5909,-8.5909,-8.5909,-8.5909,-8.5909,-8.5909,-8.5909,-8.5909,-8.5909,-8.5909,-8.5909,-8.5909,-8.5909,-8.5909,-8.5909,-8.5909,-8.5909,-8.5909,-8.5909,-8.5909,-8.5909,-8.5909,-8.5909,-8.5909,-8.5909,-8.5909,-8.5909,-8.5909,-8.5909,-8.5909,-8.5909,-8.5909,-8.5909,-8.5909,-8.5909,-8.5909,-8.5909,-8.5909,-8.5909,-8.5909,-8.5909,-8.5909,-8.5909,-8.5909,-8.5909,-8.5909,-8.5909,-8.5909,-8.5986,-8.6062,-8.61,-8.6642,-8.7456,-8.8434,-8.8795,-8.9163,-8.9839,-8.9982,-9.0182,-9.0443,-9.0465,-9.0508,-9.0572,-9.0593,-9.0593,-9.0593,-9.0593,-9.0593,-9.0593,-9.0593,-9.0593,-9.0593,-9.0593,-9.0593,-9.0593,-9.1128,-9.1395,-9.1434,-9.2274,-9.2525,-8.1128,-8.1128,-8.1128,-8.1128,-8.1128,-8.1201,-8.1454,-8.1925,-8.2432,-8.3012,-8.3953,-8.4786,-8.5076,-8.5547,-8.5909,-8.5909,-8.5909,-8.5909,-8.5909,-8.5909,-8.5909,-8.5909,-8.5909,-8.5909,-8.5909,-8.5909,-8.5909,-8.5909,-8.5909,-8.5909,-8.5909,-8.5909,-8.5909,-8.5909,-8.5909,-8.5909,-8.5909,-8.5909,-8.5909,-8.5909,-8.5909,-8.5909,-8.5909,-8.5909,-8.5909,-8.5909,-8.5909,-8.5909,-8.5909,-8.5909,-8.5909,-8.5909,-8.5909,-8.5909,-8.5909,-8.5909,-8.5909,-8.5909,-8.5909,-8.5909,-8.5909,-8.5909,-8.5909,-8.5909,-8.5909,-8.5909,-8.5909,-8.5909,-8.5909,-8.5909,-8.5909,-8.5909,-8.5909,-8.5909,-8.5909,-8.5909,-8.5909,-8.5909,-8.5909,-8.5909,-8.5986,-8.6026,-8.61,-8.6536,-8.7324,-8.8521,-8.8463,-8.8841,-9.0167,-9.0144,-9.0167,-9.0551,-9.0593,-9.0593,-9.0593,-9.0593,-9.0593,-9.0593,-9.0593,-9.0593,-9.0593,-9.0593,-9.0593,-9.0593,-9.0899,-9.1052,-9.1052,-9.1854,-9.2274,-9.2274,-9.3115,-9.3403,-8.1128,-8.1128,-8.1128,-8.1128,-8.1128,-8.1382,-8.2106,-8.236,-8.2831,-8.4388,-8.4714,-8.4968,-8.5764,-8.5909,-8.5909,-8.5909,-8.5909,-8.5909,-8.5909,-8.5909,-8.5909,-8.5909,-8.5909,-8.5909,-8.5909,-8.5909,-8.5909,-8.5909,-8.5909,-8.5909,-8.5909,-8.5909,-8.5909,-8.5909,-8.5909,-8.5909,-8.5909,-8.5909,-8.5909,-8.5909,-8.5909,-8.5909,-8.5909,-8.5909,-8.5909,-8.5909,-8.5909,-8.5909,-8.5909,-8.5909,-8.5909,-8.5909,-8.5909,-8.5909,-8.5909,-8.5909,-8.5909,-8.5909,-8.5909,-8.5909,-8.5909,-8.5909,-8.5909,-8.5909,-8.5909,-8.5909,-8.5909,-8.5909,-8.5909,-8.5909,-8.5909,-8.5909,-8.5909,-8.5909,-8.5909,-8.5909,-8.5909,-8.5909,-8.5909,-8.5909,-8.5909,-8.5948,-8.61,-8.6283,-8.6677,-8.748,-8.741,-8.8063,-9.0235,-8.9991,-8.9859,-9.0465,-9.053,-9.0551,-9.0551,-9.0572,-9.0593,-9.0593,-9.0631,-9.0669,-9.0669,-9.0708,-9.0746,-9.0746,-9.1472,-9.1854,-9.1854,-9.2733,-9.3191,-9.3191,-9.3994,-9.4242,-8.1128,-8.1128,-8.1128,-8.1128,-8.1563,-8.2034,-8.2215,-8.3229,-8.4207,-8.4605,-8.5185,-8.5656,-8.5873,-8.5909,-8.5909,-8.5909,-8.5909,-8.5909,-8.5909,-8.5909,-8.5909,-8.5909,-8.5909,-8.5909,-8.5909,-8.5909,-8.5909,-8.5909,-8.5909,-8.5909,-8.5909,-8.5909,-8.5909,-8.5909,-8.5909,-8.5909,-8.5909,-8.5909,-8.5909,-8.5909,-8.5909,-8.5909,-8.5909,-8.5909,-8.5909,-8.5909,-8.5909,-8.5909,-8.5909,-8.5909,-8.5909,-8.5909,-8.5909,-8.5909,-8.5909,-8.5909,-8.5909,-8.5909,-8.5909,-8.5909,-8.5909,-8.5909,-8.5909,-8.5909,-8.5909,-8.5909,-8.5909,-8.5909,-8.5909,-8.5909,-8.5909,-8.5909,-8.5909,-8.5909,-8.5909,-8.5909,-8.5909,-8.5909,-8.5909,-8.5909,-8.5986,-8.6173,-8.6465,-8.6465,-8.6712,-8.7678,-8.7291,-8.7452,-8.905,-8.8985,-8.8931,-8.9246,-8.9665,-8.9944,-8.9944,-9.034,-9.0593,-9.0593,-9.1166,-9.1472,-9.1472,-9.2121,-9.2465,-9.2465,-9.2656,-9.2771,-9.2771,-9.365,-9.407,-9.4108,-9.4911,-9.512,-8.1128,-8.1128,-8.1201,-8.1527,-8.1961,-8.2468,-8.3193,-8.4026,-8.4786,-8.5149,-8.5583,-8.5909,-8.5909,-8.5909,-8.5909,-8.5909,-8.5909,-8.5909,-8.5909,-8.5909,-8.5909,-8.5909,-8.5909,-8.5909,-8.5909,-8.5909,-8.5909,-8.5909,-8.5909,-8.5909,-8.5909,-8.5909,-8.5909,-8.5909,-8.5909,-8.5909,-8.5909,-8.5909,-8.5909,-8.5909,-8.5909,-8.5909,-8.5909,-8.5909,-8.5909,-8.5909,-8.5909,-8.5909,-8.5909,-8.5909,-8.5909,-8.5909,-8.5909,-8.5909,-8.5909,-8.5909,-8.5909,-8.5909,-8.5909,-8.5909,-8.5909,-8.5909,-8.5909,-8.5909,-8.5909,-8.5909,-8.5909,-8.5909,-8.5909,-8.5909,-8.5909,-8.5909,-8.5909,-8.5909,-8.5909,-8.5909,-8.5909,-8.5909,-8.5911,-8.5986,-8.6136,-8.6283,-8.6501,-8.6465,-8.6643,-8.7258,-8.6921,-8.7068,-8.835,-8.8361,-8.8367,-8.8748,-8.935,-8.9729,-8.9815,-9.0616,-9.1195,-9.1279,-9.1953,-9.2351,-9.2351,-9.2847,-9.3115,-9.3115,-9.3497,-9.3688,-9.3688,-9.4529,-9.4949,-9.4949,-9.5369,-9.5463,-8.1128,-8.1128,-8.1309,-8.207,-8.2396,-8.2831,-8.4352,-8.4786,-8.504,-8.5764,-8.5909,-8.5909,-8.5909,-8.5909,-8.5909,-8.5909,-8.5909,-8.5909,-8.5909,-8.5909,-8.5909,-8.5909,-8.5909,-8.5909,-8.5909,-8.5909,-8.5909,-8.5909,-8.5909,-8.5909,-8.5909,-8.5909,-8.5909,-8.5909,-8.5909,-8.5909,-8.5909,-8.5909,-8.5909,-8.5909,-8.5909,-8.5909,-8.5909,-8.5909,-8.5909,-8.5909,-8.5909,-8.5909,-8.5909,-8.5909,-8.5909,-8.5909,-8.5909,-8.5909,-8.5909,-8.5909,-8.5909,-8.5909,-8.5909,-8.5909,-8.5909,-8.5909,-8.5909,-8.5909,-8.5909,-8.5909,-8.5909,-8.5909,-8.5909,-8.5909,-8.5909,-8.5909,-8.5909,-8.5909,-8.5909,-8.5909,-8.5909,-8.5909,-8.5947,-8.6171,-8.6392,-8.6575,-8.6721,-8.6757,-8.683,-8.7008,-8.6865,-8.7157,-8.8244,-8.8092,-8.8146,-8.8829,-8.9415,-8.9876,-9.0146,-9.1215,-9.1994,-9.2277,-9.2909,-9.3268,-9.3268,-9.3382,-9.3421,-9.3421,-9.4185,-9.4567,-9.4567,-9.5255,-9.5598,-9.5598,-9.5576,-9.544,-8.1128,-8.1128,-8.1309,-8.207,-8.2794,-8.3519,-8.446,-8.5221,-8.5728,-8.5873,-8.5909,-8.5909,-8.5909,-8.5909,-8.5909,-8.5909,-8.5909,-8.5909,-8.5909,-8.5909,-8.5909,-8.5909,-8.5909,-8.5909,-8.5909,-8.5909,-8.5909,-8.5909,-8.5909,-8.5909,-8.5909,-8.5909,-8.5909,-8.5909,-8.5909,-8.5909,-8.5909,-8.5909,-8.5909,-8.5909,-8.5909,-8.5909,-8.5909,-8.5909,-8.5909,-8.5909,-8.5909,-8.5909,-8.5909,-8.5909,-8.5909,-8.5909,-8.5909,-8.5909,-8.5909,-8.5909,-8.5909,-8.5909,-8.5909,-8.5909,-8.5909,-8.5909,-8.5909,-8.5909,-8.5909,-8.5909,-8.5909,-8.5909,-8.5909,-8.5909,-8.5909,-8.5909,-8.5909,-8.5909,-8.5909,-8.5909,-8.5909,-8.5909,-8.609,-8.6708,-8.7079,-8.7484,-8.8252,-8.8435,-8.8545,-8.887,-8.8763,-8.8764,-8.9162,-8.8428,-8.8276,-8.9214,-8.984,-9.0438,-9.1028,-9.1695,-9.2371,-9.2885,-9.3721,-9.4185,-9.4185,-9.4796,-9.5178,-9.5178,-9.5293,-9.5407,-9.5407,-9.5522,-9.5598,-9.5598,-9.5356,-9.5239,-8.1128,-8.1418,-8.1925,-8.2722,-8.3519,-8.4316,-8.5149,-8.5619,-8.5909,-8.5909,-8.5909,-8.5909,-8.5909,-8.5909,-8.5909,-8.5909,-8.5909,-8.5909,-8.5909,-8.5909,-8.5909,-8.5909,-8.5909,-8.5909,-8.5909,-8.5909,-8.5909,-8.5909,-8.5909,-8.5909,-8.5909,-8.5909,-8.5909,-8.5909,-8.5909,-8.5909,-8.5909,-8.5909,-8.5909,-8.5909,-8.5909,-8.5909,-8.5909,-8.5909,-8.5909,-8.5909,-8.5909,-8.5909,-8.5909,-8.5909,-8.5909,-8.5909,-8.5909,-8.5909,-8.5909,-8.5909,-8.5909,-8.5909,-8.5909,-8.5909,-8.5909,-8.5909,-8.5909,-8.5909,-8.5909,-8.5909,-8.5909,-8.5909,-8.5909,-8.5909,-8.5909,-8.5909,-8.5982,-8.638,-8.6815,-8.7104,-8.7104,-8.7181,-8.7404,-8.7881,-8.8141,-8.8472,-8.902,-8.913,-8.9346,-8.983,-8.9864,-9.0076,-9.0907,-9.061,-9.0062,-8.9488,-9.0254,-9.0998,-9.1416,-9.2628,-9.3516,-9.3911,-9.4624,-9.5025,-9.5025,-9.5407,-9.5598,-9.5598,-9.5598,-9.5598,-9.5598,-9.5463,-9.5379,-9.5394,-9.5119,-9.4921,-8.1309,-8.1817,-8.2505,-8.3483,-8.4207,-8.4895,-8.5728,-8.5909,-8.5909,-8.5909,-8.5909,-8.5909,-8.5909,-8.5909,-8.5909,-8.5909,-8.5909,-8.5909,-8.5909,-8.5909,-8.5909,-8.5909,-8.5909,-8.5909,-8.5909,-8.5909,-8.5909,-8.5909,-8.5909,-8.5909,-8.5909,-8.5909,-8.5909,-8.5909,-8.5909,-8.5909,-8.5909,-8.5909,-8.5909,-8.5909,-8.5909,-8.5909,-8.5909,-8.5909,-8.5909,-8.5909,-8.5909,-8.5909,-8.5909,-8.5909,-8.5909,-8.5909,-8.5909,-8.5909,-8.5909,-8.5909,-8.5909,-8.5909,-8.5909,-8.5909,-8.5909,-8.5909,-8.5909,-8.5909,-8.5909,-8.5909,-8.5909,-8.5909,-8.5909,-8.5945,-8.609,-8.6126,-8.6344,-8.7104,-8.7718,-8.8227,-8.8266,-8.842,-8.8609,-8.8981,-8.924,-8.9459,-8.9787,-8.9896,-9.0072,-9.0613,-9.081,-9.1317,-9.2436,-9.2688,-9.2129,-9.0486,-9.1212,-9.1925,-9.2237,-9.3629,-9.46,-9.4882,-9.5356,-9.5598,-9.5598,-9.5598,-9.5598,-9.5598,-9.5554,-9.5531,-9.5531,-9.5239,-9.5119,-9.5094,-9.4844,-9.4583,-8.1998,-8.2215,-8.265,-8.4207,-8.4642,-8.4895,-8.5728,-8.5909,-8.5909,-8.5909,-8.5909,-8.5909,-8.5909,-8.5909,-8.5909,-8.5909,-8.5909,-8.5909,-8.5909,-8.5909,-8.5909,-8.5909,-8.5909,-8.5909,-8.5909,-8.5909,-8.5909,-8.5909,-8.5909,-8.5909,-8.5909,-8.5909,-8.5909,-8.5909,-8.5909,-8.5909,-8.5909,-8.5909,-8.5909,-8.5909,-8.5909,-8.5909,-8.5909,-8.5909,-8.5909,-8.5909,-8.5909,-8.5909,-8.5909,-8.5909,-8.5909,-8.5909,-8.5909,-8.5909,-8.5909,-8.5909,-8.5909,-8.5909,-8.5909,-8.5909,-8.5909,-8.5909,-8.5909,-8.5909,-8.5909,-8.5909,-8.5909,-8.5909,-8.5909,-8.6054,-8.6742,-8.6923,-8.7104,-8.7899,-8.8116,-8.8266,-8.8422,-8.846,-8.8755,-8.971,-9.0117,-9.0521,-9.1216,-9.1474,-9.1619,-9.1655,-9.218,-9.2616,-9.2756,-9.3251,-9.3514,-9.332,-9.3409,-9.3737,-9.4345,-9.4566,-9.4918,-9.5471,-9.5576,-9.5598,-9.5598,-9.5598,-9.5598,-9.5598,-9.5333,-9.5215,-9.5215,-9.4971,-9.4844,-9.4819,-9.4557,-9.4431,-8.2179,-8.2976,-8.3881,-8.4533,-8.504,-8.5511,-8.5837,-8.5909,-8.5909,-8.5909,-8.5909,-8.5909,-8.5909,-8.5909,-8.5909,-8.5909,-8.5909,-8.5909,-8.5909,-8.5909,-8.5909,-8.5909,-8.5909,-8.5909,-8.5909,-8.5909,-8.5909,-8.5909,-8.5909,-8.5909,-8.5909,-8.5909,-8.5909,-8.5909,-8.5909,-8.5909,-8.5909,-8.5909,-8.5909,-8.5909,-8.5909,-8.5909,-8.5909,-8.5909,-8.5909,-8.5909,-8.5909,-8.5909,-8.5909,-8.5909,-8.5909,-8.5909,-8.5909,-8.5909,-8.5909,-8.5909,-8.5909,-8.5909,-8.5909,-8.5909,-8.5909,-8.5909,-8.5909,-8.5909,-8.5909,-8.5909,-8.5982,-8.6452,-8.6561,-8.6742,-8.7539,-8.8082,-8.8517,-8.8843,-8.9277,-8.964,-8.9758,-8.9875,-9.0102,-9.0621,-9.0921,-9.1179,-9.1583,-9.1767,-9.1912,-9.2333,-9.264,-9.2933,-9.3308,-9.3897,-9.4297,-9.4297,-9.4297,-9.4405,-9.4654,-9.5018,-9.5356,-9.5598,-9.5598,-9.5598,-9.5598,-9.5598,-9.5598,-9.5598,-9.5348,-9.5191,-9.5191,-9.4767,-9.4557,-9.453,-9.4293,-9.4151,-8.2867,-8.3845,-8.475,-8.5004,-8.5475,-8.5909,-8.5909,-8.5909,-8.5909,-8.5909,-8.5909,-8.5909,-8.5909,-8.5909,0.0,0.0,0.0,-8.5909,-8.5909,-8.5909,-8.5909,-8.5909,-8.5909,-8.5909,-8.5909,-8.5909,-8.5909,-8.5909,-8.5909,-8.5909,-8.5909,-8.5909,-8.5909,-8.5909,-8.5909,-8.5909,-8.5909,-8.5909,-8.5909,-8.5909,-8.5909,-8.5909,-8.5909,-8.5909,-8.5909,-8.5909,-8.5909,-8.5909,-8.5909,-8.5909,-8.5909,-8.5909,-8.5909,-8.5909,-8.5909,-8.5909,-8.5909,-8.5909,-8.5909,-8.5909,-8.5909,-8.5909,-8.5909,-8.5945,-8.6163,-8.6235,-8.6344,-8.6851,-8.7358,-8.7865,-8.8408,-8.9169,-8.9748,-8.9748,-9.0183,-9.0621,-9.074,-9.0897,-9.1053,-9.132,-9.1508,-9.1657,-9.1767,-9.1803,-9.1947,-9.2436,-9.267,-9.2965,-9.3363,-9.4188,-9.4679,-9.4679,-9.487,-9.4969,-9.4969,-9.5356,-9.5598,-9.5598,-9.5598,-9.5598,-9.5598,-9.5531,-9.5486,-9.5486,-9.5143,-9.4946,-9.4946,-9.4557,-9.4349,-9.4265,-9.4151,-9.4073,-8.4243,-8.4678,-8.4895,-8.5692,-8.5873,-8.5909,-8.5909,-8.5909,-8.5909,-8.5909,-8.5909,-8.5909,-8.5909,-8.5909,-8.5909,0.0,0.0,0.0,-8.5909,-8.5909,-8.5909,-8.5909,-8.5909,-8.5909,-8.5909,-8.5909,-8.5909,-8.5909,-8.5909,-8.5909,-8.5909,-8.5909,-8.5909,-8.5909,-8.5909,-8.5909,-8.5909,-8.5909,-8.5909,-8.5909,-8.5909,-8.5909,-8.5909,-8.5909,-8.5909,-8.5909,-8.5909,-8.5909,-8.5909,-8.5909,-8.5909,-8.5909,-8.5909,-8.5909,-8.5909,-8.5909,-8.5909,-8.5909,-8.5909,-8.5909,-8.5909,-8.5909,-8.5909,-8.6054,-8.6778,-8.6996,-8.6996,-8.7032,-8.8155,-8.9386,-8.9386,-8.9966,-9.0581,-9.0581,-9.0581,-9.0701,-9.113,-9.1206,-9.132,-9.173,-9.1803,-9.1803,-9.1803,-9.1803,-9.1803,-9.1803,-9.2368,-9.2802,-9.2802,-9.3934,-9.4679,-9.4679,-9.5224,-9.5598,-9.5598,-9.5598,-9.5598,-9.5598,-9.5598,-9.5598,-9.5598,-9.5371,-9.5191,-9.5191,-9.4663,-9.4404,-9.4404,-9.4404,-9.4265,-9.4015,-9.4265,-9.4236,-8.4569,-8.5112,-8.5583,-8.5837,-8.5909,-8.5909,-8.5909,-8.5909,-8.5909,-8.5909,-8.5909,-8.5909,-8.5909,-8.5909,-8.5909,0.0,0.0,0.0,-8.5909,-8.5909,-8.5909,-8.5909,-8.5909,-8.5909,-8.5909,-8.5909,-8.5909,-8.5909,-8.5909,-8.5909,-8.5909,-8.5909,-8.5909,-8.5909,-8.5909,-8.5909,-8.5909,-8.5909,-8.5909,-8.5909,-8.5909,-8.5909,-8.5909,-8.5909,-8.5909,-8.5909,-8.5909,-8.5909,-8.5909,-8.5909,-8.5909,-8.5909,-8.5909,-8.5909,-8.5909,-8.5909,-8.5909,-8.5909,-8.5909,-8.5909,-8.5909,-8.5909,-8.6235,-8.6706,-8.6996,-8.7068,-8.7249,-8.8336,-8.9386,-9.0219,-9.0219,-9.04,-9.0621,-9.078,-9.0819,-9.0858,-9.1168,-9.132,-9.1471,-9.1583,-9.173,-9.1803,-9.1803,-9.1803,-9.1803,-9.1803,-9.1983,-9.2126,-9.2126,-9.2863,-9.3582,-9.3954,-9.4602,-9.5153,-9.5576,-9.5598,-9.5598,-9.5598,-9.544,-9.5348,-9.5348,-9.507,-9.5021,-9.5191,-9.4844,-9.4663,-9.4663,-9.4513,-9.4265,-9.4015,-9.4102,-9.4102,-8.5149,-8.5247,-8.5417,-8.5797,-8.5909,-8.5909,-8.5909,-8.5909,-8.5909,-8.5909,-8.5909,-8.5909,-8.5909,-8.5909,-8.5909,-8.5909,-8.5909,-8.5909,-8.5909,-8.5909,-8.5909,-8.5909,-8.5909,-8.5909,-8.5909,-8.5909,-8.5909,-8.5909,-8.5909,-8.5909,-8.5909,-8.5909,-8.5909,-8.5909,-8.5909,-8.5909,-8.5909,-8.5909,-8.5909,-8.5909,-8.5909,-8.5909,-8.5909,-8.5909,-8.5909,-8.5909,-8.5909,-8.5909,0.0,-8.5909,-8.5909,-8.5909,-8.5909,-8.5909,-8.5909,-8.5909,-8.5909,-8.5909,-8.5909,-8.5909,-8.5945,-8.6235,-8.7068,-8.7901,-8.7974,-8.7937,-8.8191,-8.9495,-9.0219,-9.0581,-9.0581,-9.0581,-9.0621,-9.0858,-9.0897,-9.0975,-9.1244,-9.1433,-9.1546,-9.162,-9.173,-9.1803,-9.1803,-9.1803,-9.1803,-9.1803,-9.1803,-9.1803,-9.1803,-9.2402,-9.2965,-9.3301,-9.416,-9.487,-9.5224,-9.5471,-9.5598,-9.5598,-9.5463,-9.5333,-9.5333,-9.5094,-9.5021,-9.5191,-9.4844,-9.4636,-9.4636,-9.4376,-9.4208,-9.416,-9.4044,-9.3986,0.0,-8.5147,-8.4716,-8.5682,-8.5909,-8.5909,-8.5909,-8.5909,0.0,-8.5909,-8.5909,-8.5909,-8.5909,-8.5909,-8.5909,-8.5909,-8.5909,-8.5909,-8.5909,-8.5909,-8.5909,-8.5909,-8.5909,-8.5909,-8.5909,-8.5909,-8.5909,-8.5909,-8.5909,-8.5909,-8.5909,-8.5909,-8.5909,-8.5909,-8.5909,-8.5909,-8.5909,-8.5909,-8.5909,-8.5909,-8.5909,-8.5909,-8.5909,-8.5909,-8.5909,-8.5909,-8.5909,-8.5909,-8.5909,-8.5909,-8.5909,-8.5909,-8.5909,-8.5909,-8.5909,-8.5909,-8.5909,-8.5909,-8.5909,-8.5945,-8.6126,-8.6996,-8.8227,-8.9386,-8.9459,-8.9495,-8.964,-9.04,-9.0581,-9.0581,-9.0581,-9.0581,-9.0621,-9.0858,-9.0897,-9.1014,-9.1433,-9.1508,-9.1583,-9.1767,-9.1803,-9.1803,-9.1803,-9.1803,-9.1803,-9.1803,-9.1803,-9.1803,-9.1803,-9.2333,-9.2736,-9.2769,-9.3877,-9.4602,-9.4679,-9.5248,-9.5598,-9.5598,-9.5576,-9.5576,-9.5576,-9.531,-9.5167,-9.5167,-9.4636,-9.4404,-9.4404,-9.416,-9.4131,-9.4376,-9.4131,-9.3986,0.0,0.0,-8.5608,-8.5835,-8.5909,-8.5909,0.0,-8.5909,-8.5909,-8.5909,-8.5909,-8.5909,-8.5909,-8.5909,-8.5909,-8.5909,-8.5909,-8.5909,-8.5909,-8.5909,-8.5909,-8.5909,-8.5909,-8.5909,-8.5909,-8.5909,-8.5909,-8.5909,-8.5909,-8.5909,-8.5909,-8.5909,-8.5909,-8.5909,-8.5909,-8.5909,-8.5909,-8.5909,-8.5909,-8.5909,-8.5909,-8.5909,-8.5909,-8.5909,-8.5909,-8.5909,-8.5909,-8.5909,-8.5909,-8.5909,-8.5909,-8.5909,-8.5909,-8.5909,-8.5909,-8.5909,-8.5909,-8.5909,-8.5909,-8.6271,-8.6996,-8.8408,-8.9096,-8.9495,-9.011,-9.0328,-9.0364,-9.0545,-9.0581,-9.0581,-9.0581,-9.0581,-9.0621,-9.0858,-9.1014,-9.1206,-9.1471,-9.162,-9.1767,-9.1803,-9.1803,-9.1803,-9.1803,-9.1803,-9.1803,-9.1803,-9.1803,-9.1803,-9.1803,-9.1912,-9.2229,-9.2773,-9.3094,-9.3642,-9.4602,-9.5248,-9.5598,-9.5598,-9.5417,-9.5286,-9.5286,-9.5045,-9.4895,-9.4895,-9.4557,-9.4404,-9.4404,-9.416,-9.4044,-9.4102,-9.4044,-9.3986,-8.4106,-8.4792,-8.5339,-8.5797,-8.5909,-8.5909,-8.5909,-8.5909,-8.5909,-8.5909,-8.5909,-8.5909,-8.5909,-8.5909,-8.5909,-8.5909,-8.5909,-8.5909,-8.5909,-8.5909,-8.5909,-8.5909,-8.5909,-8.5909,-8.5909,-8.5909,-8.5909,-8.5909,-8.5909,-8.5909,-8.5909,-8.5909,-8.5909,-8.5909,-8.5909,-8.5909,-8.5909,-8.5909,-8.5909,-8.5909,-8.5909,-8.5909,-8.5909,-8.5909,-8.5909,-8.5909,-8.5909,-8.5909,-8.5909,-8.5909,-8.5909,-8.5909,-8.5909,-8.5909,-8.5909,-8.5909,-8.5909,-8.5945,-8.6308,-8.7141,-8.8263,-8.9096,-8.964,-9.0038,-9.0473,-9.0581,-9.0581,-9.0581,-9.0581,-9.0581,-9.0581,-9.0581,-9.0621,-9.0858,-9.0975,-9.113,-9.132,-9.1546,-9.1657,-9.1657,-9.173,-9.1803,-9.1803,-9.1803,-9.1803,-9.1803,-9.1803,-9.1803,-9.1803,-9.1803,-9.1912,-9.2299,-9.264,-9.3094,-9.379,-9.4654,-9.5333,-9.5598,-9.5486,-9.5356,-9.5356,-9.5119,-9.487,-9.461,-9.4486,-9.4349,-9.4208,-9.4073,-9.3986,-9.3986,-9.3986,-9.4073,-8.4355,-8.4513,-8.4832,-8.5721,-8.5909,-8.5909,-8.5909,-8.5909,-8.5909,-8.5909,-8.5909,-8.5909,-8.5909,-8.5909,-8.5909,-8.5909,-8.5909,-8.5909,-8.5909,-8.5909,-8.5909,-8.5909,-8.5909,-8.5909,-8.5909,-8.5909,-8.5909,-8.5909,-8.5909,-8.5909,-8.5909,-8.5909,-8.5909,-8.5909,-8.5909,-8.5909,-8.5909,-8.5909,-8.5909,-8.5909,-8.5909,-8.5909,-8.5909,-8.5909,-8.5909,-8.5909,-8.5909,-8.5909,-8.5909,-8.5909,-8.5909,-8.5909,-8.5909,-8.5909,-8.5909,-8.5909,-8.5982,-8.6199,-8.7068,-8.8263,-8.9422,-8.9531,-9.0038,-9.0581,-9.0581,-9.0581,-9.0581,-9.0581,-9.0581,-9.0581,-9.0581,-9.0581,-9.0621,-9.0819,-9.0897,-9.1014,-9.1168,-9.1396,-9.1546,-9.1546,-9.1694,-9.1803,-9.1803,-9.1803,-9.1803,-9.1803,-9.1803,-9.1803,-9.1803,-9.1875,-9.1912,-9.1803,-9.2468,-9.2933,-9.2933,-9.402,-9.4945,-9.5576,-9.5598,-9.5576,-9.5554,-9.531,-9.4971,-9.4486,-9.4431,-9.4293,-9.4073,-9.4015,-9.3986,-9.3986,-9.4044,-9.4151,-8.419,-8.5028,-8.5721,-8.5835,-8.5909,-8.5909,-8.5909,-8.5909,-8.5909,-8.5909,-8.5909,-8.5909,-8.5909,-8.5909,-8.5909,-8.5909,-8.5909,-8.5909,-8.5909,-8.5909,-8.5909,-8.5909,-8.5909,-8.5909,-8.5909,-8.5909,-8.5909,-8.5909,-8.5909,-8.5909,-8.5909,-8.5909,-8.5909,-8.5909,-8.5909,-8.5909,-8.5909,-8.5909,-8.5909,-8.5909,-8.5909,-8.5909,-8.5909,-8.5909,-8.5909,-8.5909,-8.5909,-8.5909,-8.5909,-8.5909,-8.5909,-8.5909,-8.5909,-8.5909,-8.5909,-8.5909,-8.6308,-8.7068,-8.8517,-8.9169,-8.9495,-9.0183,-9.0509,-9.0581,-9.0581,-9.0581,-9.0581,-9.0581,-9.0581,-9.0581,-9.0581,-9.0581,-9.0618,-9.0621,-9.0897,-9.1168,-9.1206,-9.1508,-9.1767,-9.1767,-9.1803,-9.1803,-9.1803,-9.1803,-9.1803,-9.1803,-9.1803,-9.1803,-9.1803,-9.2299,-9.2436,-9.1876,-9.2863,-9.3575,-9.3575,-9.427,-9.4945,-9.5576,-9.5598,-9.5509,-9.5263,-9.5215,-9.5045,-9.4741,-9.454,-9.4376,-9.4349,-9.4131,-9.3986,-9.4015,-9.4208,-9.4236,-8.4159,-8.492,-8.5366,-8.5801,-8.5909,-8.5909,-8.5909,-8.5909,-8.5909,-8.5909,-8.5909,-8.5909,-8.5909,-8.5909,-8.5909,-8.5909,-8.5909,-8.5909,-8.5909,-8.5909,-8.5909,-8.5909,-8.5909,-8.5909,-8.5909,-8.5909,-8.5909,-8.5909,-8.5909,-8.5909,-8.5909,-8.5909,-8.5909,-8.5909,-8.5909,-8.5909,-8.5909,-8.5909,-8.5909,-8.5909,-8.5909,-8.5909,-8.5909,-8.5909,-8.5909,-8.5909,-8.5909,-8.5909,-8.5909,-8.5909,-8.5909,-8.5909,-8.5909,-8.5909,-8.5945,-8.6344,-8.7249,-8.8408,-8.9133,-8.9676,-9.011,-9.0473,-9.0581,-9.0581,-9.0581,-9.0581,-9.0581,-9.0581,-9.0581,-9.0581,-9.0581,-9.0661,-9.074,-9.074,-9.0975,-9.1206,-9.1206,-9.1433,-9.1657,-9.1657,-9.173,-9.1803,-9.1803,-9.1803,-9.1803,-9.1803,-9.2126,-9.2333,-9.2333,-9.2896,-9.3146,-9.2858,-9.3363,-9.3723,-9.3723,-9.4325,-9.4945,-9.5576,-9.5598,-9.5486,-9.5191,-9.5191,-9.4996,-9.4583,-9.4486,-9.4321,-9.418,-9.4073,-9.4073,-9.4208,-9.418,-9.4265,-8.3982,-8.4424,-8.4605,-8.5402,-8.5764,-8.5909,-8.5909,-8.5909,-8.5909,-8.5909,-8.5909,-8.5909,-8.5909,-8.5909,-8.5909,-8.5909,-8.5909,-8.5909,-8.5909,-8.5909,-8.5909,-8.5909,-8.5909,-8.5909,-8.5909,-8.5909,-8.5909,-8.5909,-8.5909,-8.5909,-8.5909,-8.5909,-8.5909,-8.5909,-8.5909,-8.5909,-8.5909,-8.5909,-8.5909,-8.5909,-8.5909,-8.5909,-8.5909,-8.5909,-8.5909,-8.5909,-8.5909,-8.5909,-8.5909,-8.5909,-8.5909,-8.5909,-8.5909,-8.6018,-8.6271,-8.7213,-8.8336,-8.9422,-8.9603,-9.0074,-9.0581,-9.0581,-9.0581,-9.0581,-9.0581,-9.0621,-9.0661,-9.0661,-9.0701,-9.074,-9.0661,-9.0819,-9.0975,-9.0975,-9.113,-9.1282,-9.1282,-9.1433,-9.1583,-9.1583,-9.1694,-9.1803,-9.1803,-9.1803,-9.1803,-9.1803,-9.2368,-9.2802,-9.2802,-9.3454,-9.3868,-9.3723,-9.3982,-9.415,-9.415,-9.4628,-9.5129,-9.5576,-9.5598,-9.5486,-9.5191,-9.5239,-9.5045,-9.4513,-9.4513,-9.4404,-9.418,-9.4094,-9.418,-9.4404,-9.4236,-9.4349,-8.3296,-8.3591,-8.3772,-8.4569,-8.533,-8.5909,-8.5909,-8.5909,-8.5909,-8.5909,-8.5909,-8.5909,-8.5909,-8.5909,-8.5909,-8.5909,-8.5909,-8.5909,-8.5909,-8.5909,-8.5909,-8.5909,-8.5909,-8.5909,-8.5909,-8.5909,-8.5909,-8.5909,-8.5909,-8.5909,-8.5909,-8.5909,-8.5909,-8.5909,-8.5909,-8.5909,-8.5909,-8.5909,-8.5909,-8.5909,-8.5909,-8.5909,-8.5909,-8.5909,-8.5909,-8.5909,-8.5909,-8.5909,-8.5909,-8.5909,-8.5909,-8.5909,-8.5909,-8.6308,-8.7104,-8.8662,-8.9277,-8.9495,-9.0255,-9.0545,-9.0581,-9.0581,-9.0581,-9.0581,-9.0581,-9.074,-9.0858,-9.0858,-9.1014,-9.113,-9.0936,-9.1014,-9.1168,-9.1168,-9.1358,-9.1471,-9.1471,-9.1657,-9.1803,-9.1803,-9.1803,-9.1803,-9.1803,-9.1803,-9.1803,-9.1803,-9.2368,-9.2802,-9.2802,-9.3877,-9.4378,-9.3781,-9.4782,-9.5471,-9.5471,-9.5493,-9.5576,-9.5598,-9.5598,-9.5486,-9.5191,-9.5463,-9.531,-9.4793,-9.4767,-9.4767,-9.4741,-9.4513,-9.4376,-9.4404,-9.4636,-9.4476,-8.1645,-8.1866,-8.2234,-8.3625,-8.4171,-8.4678,-8.5656,-8.5909,-8.5909,-8.5909,-8.5909,-8.5909,-8.5909,-8.5909,-8.5909,-8.5909,-8.5909,-8.5909,-8.5909,-8.5909,-8.5909,-8.5909,-8.5909,-8.5909,-8.5909,-8.5909,-8.5909,-8.5909,-8.5909,-8.5909,-8.5909,-8.5909,-8.5909,-8.5909,-8.5909,-8.5909,-8.5909,-8.5909,-8.5909,-8.5909,-8.5909,-8.5909,-8.5909,-8.5909,-8.5909,-8.5909,-8.5909,-8.5909,-8.5909,-8.5909,-8.5909,-8.5945,-8.6416,-8.7394,-8.8589,-8.9169,-8.9712,-9.0183,-9.0473,-9.0581,-9.0581,-9.0581,-9.0581,-9.0621,-9.074,-9.0819,-9.0936,-9.1053,-9.1244,-9.1358,-9.113,-9.1244,-9.1396,-9.1396,-9.1546,-9.1694,-9.1694,-9.1767,-9.1803,-9.1803,-9.1803,-9.1803,-9.1803,-9.1803,-9.1803,-9.1803,-9.2666,-9.3363,-9.3363,-9.4459,-9.5177,-9.4907,-9.5295,-9.5598,-9.5598,-9.5598,-9.5598,-9.5598,-9.5598,-9.5554,-9.5463,-9.5394,-9.5167,-9.4819,-9.4793,-9.4715,-9.453,-9.4459,-9.4486,-9.4674,-9.5086,-9.5176,-8.0477,-8.0736,-8.1331,-8.2757,-8.312,-8.3519,-8.5149,-8.5511,-8.5583,-8.5837,-8.5909,-8.5909,-8.5909,-8.5909,-8.5909,-8.5909,-8.5909,-8.5909,-8.5909,-8.5909,-8.5909,-8.5909,-8.5909,-8.5909,-8.5909,-8.5909,-8.5909,-8.5909,-8.5909,-8.5909,-8.5909,-8.5909,-8.5909,-8.5909,-8.5909,-8.5909,-8.5909,-8.5909,-8.5909,-8.5909,-8.5909,-8.5909,-8.5909,-8.5909,-8.5909,-8.5909,-8.5909,-8.5909,-8.5909,-8.5909,-8.6054,-8.6344,-8.7358,-8.8444,-8.9422,-8.9676,-9.011,-9.0581,-9.0581,-9.0581,-9.0581,-9.0581,-9.0621,-9.0701,-9.0858,-9.0936,-9.1014,-9.1168,-9.132,-9.1396,-9.132,-9.1471,-9.162,-9.162,-9.1694,-9.1803,-9.1803,-9.1803,-9.1803,-9.1803,-9.1803,-9.1803,-9.1803,-9.1803,-9.1803,-9.1803,-9.2732,-9.3424,-9.3424,-9.4511,-9.5402,-9.5598,-9.5598,-9.5598,-9.5598,-9.5598,-9.5598,-9.5598,-9.5598,-9.5598,-9.5598,-9.5402,-9.5191,-9.4921,-9.4921,-9.4793,-9.454,-9.4767,-9.4988,-9.5172,-9.5712,-9.6045,-8.0023,-8.0436,-8.1309,-8.207,-8.2287,-8.2686,-8.4316,-8.4678,-8.4895,-8.5728,-8.5873,-8.5909,-8.5909,-8.5909,-8.5909,-8.5909,-8.5909,-8.5909,-8.5909,-8.5909,-8.5909,-8.5909,-8.5909,-8.5909,-8.5909,-8.5909,-8.5909,-8.5909,-8.5909,-8.5909,-8.5909,-8.5909,-8.5909,-8.5909,-8.5909,-8.5909,-8.5909,-8.5909,-8.5909,-8.5909,-8.5909,-8.5909,-8.5909,-8.5909,-8.5909,-8.5909,-8.5909,-8.5909,-8.5909,-8.5909,-8.6344,-8.7177,-8.877,-8.9386,-8.9495,-9.0292,-9.0581,-9.0581,-9.0581,-9.0581,-9.0581,-9.0581,-9.074,-9.0897,-9.0897,-9.1053,-9.1206,-9.1206,-9.1206,-9.1244,-9.1471,-9.1657,-9.1803,-9.1803,-9.1803,-9.1803,-9.1803,-9.1803,-9.1803,-9.1803,-9.1803,-9.1803,-9.1803,-9.1803,-9.1803,-9.1803,-9.2368,-9.2802,-9.2802,-9.3934,-9.4945,-9.5554,-9.5598,-9.5598,-9.5598,-9.5598,-9.5598,-9.5598,-9.5598,-9.5598,-9.5598,-9.5598,-9.5486,-9.5229,-9.5229,-9.507,-9.4831,-9.5627,-9.6006,-9.6006,-9.6581,-9.6986,-7.987,-7.9985,-8.0396,-8.1238,-8.1454,-8.1744,-8.2758,-8.3446,-8.4062,-8.4895,-8.5511,-8.5909,-8.5909,-8.5909,-8.5909,-8.5909,-8.5909,-8.5909,-8.5909,-8.5909,-8.5909,-8.5909,-8.5909,-8.5909,-8.5909,-8.5909,-8.5909,-8.5909,-8.5909,-8.5909,-8.5909,-8.5909,-8.5909,-8.5909,-8.5909,-8.5909,-8.5909,-8.5909,-8.5909,-8.5909,-8.5909,-8.5909,-8.5909,-8.5909,-8.5909,-8.5909,-8.5909,-8.5909,-8.5945,-8.6452,-8.7141,-8.7935,-8.8988,-8.9748,-9.0255,-9.0509,-9.0581,-9.0581,-9.0581,-9.0581,-9.0581,-9.0581,-9.0621,-9.0701,-9.0858,-9.0936,-9.1014,-9.1168,-9.132,-9.1433,-9.1508,-9.1657,-9.1803,-9.1803,-9.1803,-9.1803,-9.1803,-9.1803,-9.1803,-9.1803,-9.1803,-9.1803,-9.1803,-9.1803,-9.1803,-9.1803,-9.2368,-9.312,-9.402,-9.4845,-9.5402,-9.5598,-9.5598,-9.5598,-9.5598,-9.5598,-9.5866,-9.6477,-9.6515,-9.6248,-9.5637,-9.544,-9.5567,-9.6129,-9.6105,-9.6248,-9.6575,-9.7009,-9.6982,-9.6581,-9.7776,-9.8059,-7.9908,-8.0023,-8.0436,-8.0985,-8.1128,-8.1237,-8.1708,-8.2939,-8.4098,-8.4605,-8.533,-8.5909,-8.5909,-8.5909,-8.5909,-8.5909,-8.5909,-8.5909,-8.5909,-8.5909,-8.5909,-8.5909,-8.5909,-8.5909,-8.5909,-8.5909,-8.5909,-8.5909,-8.5909,-8.5909,-8.5909,-8.5909,-8.5909,-8.5909,-8.5909,-8.5909,-8.5909,-8.5909,-8.5909,-8.5909,-8.5909,-8.5909,-8.5909,-8.5909,-8.5909,-8.5909,-8.5909,-8.6054,-8.6416,-8.7177,-8.7974,-8.877,-8.9567,-9.0183,-9.0581,-9.0581,-9.0581,-9.0581,-9.0581,-9.0581,-9.0581,-9.0581,-9.0621,-9.074,-9.0858,-9.0897,-9.0936,-9.1168,-9.1244,-9.132,-9.1471,-9.1583,-9.1694,-9.1803,-9.1803,-9.1803,-9.1803,-9.1803,-9.1803,-9.1803,-9.1803,-9.1803,-9.1803,-9.1803,-9.1803,-9.1803,-9.2368,-9.3152,-9.4188,-9.5136,-9.5814,-9.6073,-9.6401,-9.6592,-9.6592,-9.6592,-9.6821,-9.7356,-9.7394,-9.7127,-9.6592,-9.6455,-9.6591,-9.7148,-9.7148,-9.7184,-9.7295,-9.7883,-9.7933,-9.7478,-9.8594,-9.9038,-8.0135,-8.0509,-8.1128,-8.1128,-8.1128,-8.1128,-8.1128,-8.2867,-8.4497,-8.4569,-8.5221,-8.5801,-8.5873,-8.5909,-8.5909,-8.5909,-8.5909,-8.5909,-8.5909,-8.5909,-8.5909,-8.5909,-8.5909,-8.5909,-8.5909,-8.5909,-8.5909,-8.5909,-8.5909,-8.5909,-8.5909,-8.5909,-8.5909,-8.5909,-8.5909,-8.5909,-8.5909,-8.5909,-8.5909,-8.5909,-8.5909,-8.5909,-8.5909,-8.5909,-8.5909,-8.5909,-8.5982,-8.638,-8.7104,-8.7935,-8.8734,-8.9459,-9.0292,-9.0581,-9.0581,-9.0581,-9.0581,-9.0581,-9.0581,-9.0581,-9.0581,-9.0581,-9.0701,-9.0858,-9.0858,-9.0897,-9.0936,-9.113,-9.1091,-9.1053,-9.1433,-9.1508,-9.1583,-9.1767,-9.1803,-9.1803,-9.1803,-9.1803,-9.1803,-9.1803,-9.1803,-9.184,-9.1875,-9.1949,-9.2059,-9.2167,-9.2758,-9.3407,-9.3948,-9.5248,-9.6337,-9.6929,-9.7662,-9.812,-9.812,-9.812,-9.8158,-9.8235,-9.8235,-9.8273,-9.8311,-9.8197,-9.8158,-9.8235,-9.8235,-9.8001,-9.7549,-9.8529,-9.8884,-9.8621,-9.9131,-9.9774,-8.0876,-8.0948,-8.1128,-8.1128,-8.1128,-8.1128,-8.1128,-8.1998,-8.2976,-8.3627,-8.4388,-8.5149,-8.5764,-8.5909,-8.5909,-8.5909,-8.5909,-8.5909,-8.5909,-8.5909,-8.5909,-8.5909,-8.5909,-8.5909,-8.5909,-8.5909,-8.5909,-8.5909,-8.5909,-8.5909,-8.5909,-8.5909,-8.5909,-8.5909,-8.5909,-8.5909,-8.5909,-8.5909,-8.5909,-8.5909,-8.5909,-8.5909,-8.5909,-8.5909,-8.5909,-8.5909,-8.6525,-8.6851,-8.7141,-8.8553,-8.9241,-8.9459,-9.0292,-9.0581,-9.0581,-9.0581,-9.0581,-9.0581,-9.0581,-9.0581,-9.0581,-9.0581,-9.0621,-9.0661,-9.0661,-9.078,-9.0897,-9.0936,-9.1168,-9.1396,-9.1471,-9.162,-9.1767,-9.1803,-9.1803,-9.1803,-9.1803,-9.1803,-9.1803,-9.1803,-9.1803,-9.1947,-9.2505,-9.3122,-9.3917,-9.5064,-9.5815,-9.6316,-9.6453,-9.7148,-9.77,-9.783,-9.8006,-9.812,-9.812,-9.812,-9.8388,-9.9075,-9.9114,-9.9381,-9.9992,-9.8808,-9.8426,-9.9114,-9.9114,-9.9279,-9.9569,-9.9809,-9.9783,-9.9531,-9.9843,-9.9866,-8.1128,-8.1128,-8.1128,-8.1128,-8.1128,-8.1128,-8.1128,-8.1418,-8.1925,-8.2758,-8.3845,-8.4823,-8.5257,-8.5619,-8.5909,-8.5909,-8.5909,-8.5909,-8.5909,-8.5909,-8.5909,-8.5909,-8.5909,-8.5909,-8.5909,-8.5909,-8.5909,-8.5909,-8.5909,-8.5909,-8.5909,-8.5909,-8.5909,-8.5909,-8.5909,-8.5909,-8.5909,-8.5909,-8.5909,-8.5909,-8.5909,-8.5909,-8.5909,-8.5909,-8.609,-8.6452,-8.6851,-8.7467,-8.8227,-8.906,-8.964,-9.0002,-9.0436,-9.0581,-9.0581,-9.0581,-9.0581,-9.0581,-9.0581,-9.0581,-9.0581,-9.0581,-9.0697,-9.074,-9.074,-9.0897,-9.1053,-9.1168,-9.165,-9.2168,-9.2243,-9.261,-9.2978,-9.2978,-9.2391,-9.1913,-9.2317,-9.2427,-9.2537,-9.2905,-9.3269,-9.3585,-9.3924,-9.4584,-9.5302,-9.6088,-9.678,-9.7207,-9.7207,-9.8081,-9.8732,-9.8732,-9.9075,-9.9305,-9.9305,-9.9305,-9.9496,-9.9954,-9.9954,-10.0183,-10.0604,-9.9763,-9.9496,-9.9954,-9.9954,-9.999,-10.0177,-10.0302,-10.0215,-9.9796,-9.9957,-9.9758,-8.1128,-8.1128,-8.1128,-8.1128,-8.1128,-8.1128,-8.1128,-8.1128,-8.1309,-8.1961,-8.3265,-8.4352,-8.4642,-8.5221,-8.5728,-8.5873,-8.5909,-8.5909,-8.5909,-8.5909,-8.5909,-8.5909,-8.5909,-8.5909,-8.5909,-8.5909,-8.5909,-8.5909,-8.5909,-8.5909,-8.5909,-8.5909,-8.5909,-8.5909,-8.5909,-8.5909,-8.5909,-8.5909,-8.5909,-8.5909,-8.5909,-8.5909,-8.5909,-8.6018,-8.6416,-8.7032,-8.7177,-8.8046,-8.9386,-8.9531,-9.0002,-9.0581,-9.0581,-9.0581,-9.0581,-9.0581,-9.0581,-9.0581,-9.0581,-9.0581,-9.0618,-9.0621,-9.074,-9.0897,-9.0936,-9.12,-9.1501,-9.169,-9.2387,-9.3084,-9.3271,-9.3786,-9.4299,-9.4299,-9.3235,-9.2427,-9.3161,-9.3308,-9.3492,-9.4153,-9.495,-9.5492,-9.5641,-9.6305,-9.6809,-9.696,-9.7426,-9.7781,-9.7781,-9.884,-9.961,-9.961,-10.0183,-10.0604,-10.0604,-10.0604,-10.0604,-10.0604,-10.0604,-10.0604,-10.0604,-10.0604,-10.0604,-10.0604,-10.0604,-10.051,-10.029,-10.0424,-10.0302,-9.993,-9.9796,-9.9565,-8.1128,-8.1128,-8.1128,-8.1128,-8.1128,-8.1128,-8.1128,-8.1128,-8.1128,-8.1237,-8.1998,-8.3048,-8.4424,-8.4786,-8.5076,-8.5801,-8.5909,-8.5909,-8.5909,-8.5909,-8.5909,-8.5909,-8.5909,-8.5909,-8.5909,-8.5909,-8.5909,-8.5909,-8.5909,-8.5909,-8.5909,-8.5909,-8.5909,-8.5909,-8.5909,-8.5909,-8.5909,-8.5909,-8.5909,-8.5909,-8.5909,-8.5909,-8.5909,-8.6561,-8.6923,-8.7068,-8.7718,-8.8553,-8.9459,-9.0147,-9.0509,-9.0581,-9.0581,-9.0581,-9.0581,-9.0581,-9.0581,-9.0581,-9.0581,-9.0581,-9.0621,-9.078,-9.0858,-9.0936,-9.113,-9.1831,-9.2605,-9.2643,-9.3342,-9.4115,-9.4116,-9.4226,-9.4299,-9.4299,-9.4116,-9.4006,-9.4116,-9.4153,-9.4153,-9.4263,-9.5254,-9.6342,-9.7055,-9.8189,-9.9193,-9.9918,-10.008,-10.009,-10.009,-10.029,-10.0413,-10.0413,-10.0489,-10.0604,-10.0604,-10.0604,-10.0604,-10.0604,-10.0604,-10.0604,-10.0604,-10.0604,-10.0604,-10.0604,-10.0604,-10.058,-10.0519,-10.0288,-10.0302,-10.0486,-9.9655,-9.9443,-8.1128,-8.1128,-8.1128,-8.1128,-8.1128,-8.1128,-8.1128,-8.1128,-8.1128,-8.1128,-8.1382,-8.1961,-8.312,-8.4098,-8.4823,-8.5149,-8.5619,-8.5909,-8.5909,-8.5909,-8.5909,-8.5909,-8.5909,-8.5909,-8.5909,-8.5909,-8.5909,-8.5909,-8.5909,-8.5909,-8.5909,-8.5909,-8.5909,-8.5909,-8.5909,-8.5909,-8.5909,-8.5909,-8.5909,-8.5909,-8.5909,-8.6126,-8.6525,-8.6851,-8.7249,-8.7718,-8.8517,-8.935,-9.011,-9.0436,-9.0581,-9.0581,-9.0581,-9.0581,-9.0581,-9.0581,-9.0581,-9.0581,-9.0581,-9.0661,-9.078,-9.0858,-9.138,-9.1974,-9.2089,-9.2825,-9.3673,-9.3673,-9.4261,-9.496,-9.496,-9.5327,-9.5621,-9.5621,-9.5621,-9.5621,-9.5621,-9.529,-9.522,-9.6029,-9.6961,-9.7824,-9.8592,-9.9467,-10.0183,-10.0489,-10.0604,-10.0604,-10.0604,-10.0604,-10.0604,-10.0604,-10.0604,-10.0604,-10.0604,-10.0604,-10.0604,-10.0604,-10.0604,-10.0604,-10.0604,-10.0604,-10.0604,-10.0604,-10.0604,-10.0604,-10.0604,-10.0486,-10.0375,-10.0389,-9.9774,-9.9415,-8.1128,-8.1128,-8.1128,-8.1128,-8.1128,-8.1128,-8.1128,-8.1128,-8.1128,-8.1128,-8.1128,-8.1273,-8.1889,-8.312,-8.4207,-8.4605,-8.5185,-8.5656,-8.5873,-8.5909,-8.5909,-8.5909,-8.5909,-8.5909,-8.5909,-8.5909,-8.5909,-8.5909,-8.5909,-8.5909,-8.5909,-8.5909,-8.5909,-8.5909,-8.5909,-8.5909,-8.5909,-8.5909,-8.5909,-8.5909,-8.5909,-8.6308,-8.7032,-8.7213,-8.7756,-8.8553,-8.9133,-8.9857,-9.0581,-9.0581,-9.0581,-9.0581,-9.0581,-9.0581,-9.0581,-9.0581,-9.0621,-9.0661,-9.0661,-9.0964,-9.1266,-9.138,-9.2158,-9.3082,-9.3194,-9.3857,-9.4593,-9.4593,-9.518,-9.5804,-9.5804,-9.6245,-9.6685,-9.6685,-9.6685,-9.6685,-9.6685,-9.6245,-9.614,-9.7244,-9.8142,-9.887,-9.9339,-10.0088,-10.0604,-10.0604,-10.0604,-10.0604,-10.0604,-10.0604,-10.0604,-10.0604,-10.0604,-10.0604,-10.0604,-10.0604,-10.0604,-10.0604,-10.0604,-10.0604,-10.0604,-10.0604,-10.0604,-10.0604,-10.0604,-10.0604,-10.0604,-10.0385,-10.0302,-10.0215,-9.9676,-9.9184,-8.1128,-8.1128,-8.1128,-8.1128,-8.1128,-8.1128,-8.1128,-8.1128,-8.1128,-8.1128,-8.1128,-8.1128,-8.1165,-8.1853,-8.2903,-8.446,-8.4714,-8.504,-8.5801,-8.5909,-8.5909,-8.5909,-8.5909,-8.5909,-8.5909,-8.5909,-8.5909,-8.5909,-8.5909,-8.5909,-8.5909,-8.5909,-8.5909,-8.5909,-8.5909,-8.5909,-8.5909,-8.5909,-8.5909,-8.5909,-8.5909,-8.6308,-8.7032,-8.779,-8.8589,-8.935,-8.9386,-8.9857,-9.0581,-9.0581,-9.0581,-9.0581,-9.0581,-9.0581,-9.0581,-9.0581,-9.0701,-9.0897,-9.0897,-9.1523,-9.2337,-9.2602,-9.3265,-9.3961,-9.4151,-9.4813,-9.5437,-9.5437,-9.6025,-9.6649,-9.6649,-9.6685,-9.6685,-9.6685,-9.6685,-9.6685,-9.6685,-9.6685,-9.6649,-9.6724,-9.7809,-9.8679,-9.8778,-9.979,-10.0604,-10.0604,-10.0604,-10.0604,-10.0604,-10.0604,-10.0604,-10.0604,-10.0604,-10.0604,-10.0604,-10.0604,-10.0604,-10.0604,-10.0604,-10.0604,-10.0604,-10.0604,-10.0604,-10.0604,-10.0604,-10.0604,-10.0604,-9.9999,-9.9907,-10.019,-9.89,-9.8466,-8.1128,-8.1128,-8.1021,-8.0767,-8.0912,-8.1021,-8.0767,-8.0912,-8.1128,-8.1128,-8.1128,-8.1273,-8.178,-8.2106,-8.265,-8.3736,-8.4352,-8.4968,-8.5801,-8.5909,-8.5909,-8.5909,-8.5909,-8.5909,-8.5909,-8.5909,-8.5909,-8.5909,-8.5909,-8.5909,-8.5909,-8.5909,-8.5909,-8.5909,-8.5909,-8.5909,-8.5909,-8.5909,-8.5909,-8.5909,-8.638,-8.7032,-8.779,-8.8626,-8.9422,-9.0183,-9.0183,-9.0328,-9.0581,-9.0581,-9.0581,-9.0581,-9.0581,-9.0581,-9.0618,-9.074,-9.0819,-9.1009,-9.1635,-9.2229,-9.2748,-9.3374,-9.4183,-9.4956,-9.5032,-9.5621,-9.6282,-9.6282,-9.6502,-9.6685,-9.6685,-9.6685,-9.6685,-9.6685,-9.6685,-9.6838,-9.7247,-9.7355,-9.7355,-9.7355,-9.8397,-9.9339,-9.9339,-10.0025,-10.0604,-10.0604,-10.0604,-10.0604,-10.0604,-10.0604,-10.0604,-10.0604,-10.0604,-10.0604,-10.0604,-10.0604,-10.0604,-10.0604,-10.0604,-10.0604,-10.0604,-10.0604,-10.0604,-10.0604,-10.0604,-10.0604,-10.0604,-10.0375,-10.0288,-10.0399,-9.9339,-9.893,-8.1491,-8.1309,-8.0985,-8.0582,-8.0693,-8.0803,-8.0545,-8.0909,-8.1346,-8.1455,-8.1708,-8.207,-8.2577,-8.2686,-8.2939,-8.3772,-8.4352,-8.4968,-8.5801,-8.5909,-8.5909,-8.5909,-8.5909,-8.5909,-8.5909,-8.5909,-8.5909,-8.5909,-8.5909,-8.5909,-8.5909,-8.5909,-8.5909,-8.5909,-8.5909,-8.5909,-8.5909,-8.5909,-8.6018,-8.6271,-8.6815,-8.7575,-8.8626,-8.9169,-8.9821,-9.0581,-9.0581,-9.0581,-9.0581,-9.0581,-9.0581,-9.0581,-9.0581,-9.0581,-9.0621,-9.0819,-9.1118,-9.1487,-9.2266,-9.3042,-9.3818,-9.4331,-9.514,-9.5914,-9.5914,-9.6282,-9.6685,-9.6685,-9.6685,-9.6685,-9.6685,-9.6685,-9.6685,-9.6685,-9.6685,-9.6877,-9.7567,-9.7669,-9.7772,-9.8009,-9.8922,-9.971,-9.971,-10.0189,-10.0604,-10.0604,-10.0604,-10.0604,-10.0604,-10.0604,-10.0604,-10.0604,-10.0604,-10.0604,-10.0604,-10.0604,-10.0604,-10.0604,-10.0604,-10.0604,-10.0604,-10.0604,-10.0604,-10.0604,-10.0604,-10.0604,-10.0604,-10.0399,-10.0176,-10.0114,-9.9254,-9.8679,0.0,0.0,0.0,-8.0618,-8.0544,-8.0544,-8.0471,-8.1119,-8.1809,-8.2215,-8.2939,-8.3483,-8.3519,-8.3519,-8.3772,-8.4605,-8.4714,-8.4968,-8.5801,-8.5909,-8.5909,-8.5909,-8.5909,-8.5909,-8.5909,-8.5909,-8.5909,-8.5909,-8.5909,-8.5909,-8.5909,-8.5909,-8.5909,-8.5909,-8.5909,-8.5909,-8.5909,-8.5909,-8.6271,-8.7032,-8.7104,-8.7937,-8.9386,-8.9422,-8.9857,-9.0581,-9.0581,-9.0581,-9.0581,-9.0581,-9.0581,-9.0581,-9.0581,-9.0581,-9.0657,-9.0855,-9.156,-9.2485,-9.275,-9.4001,-9.5511,-9.5511,-9.6061,-9.6685,-9.6685,-9.6685,-9.6685,-9.6685,-9.6685,-9.6685,-9.6685,-9.6685,-9.6685,-9.6685,-9.6685,-9.6914,-9.7602,-9.7775,-9.7942,-9.8586,-9.9282,-9.971,-9.971,-10.0189,-10.0604,-10.0604,-10.0604,-10.0604,-10.0604,-10.0604,-10.0604,-10.0604,-10.0604,-10.0604,-10.0604,-10.0604,-10.0604,-10.0604,-10.0604,-10.0604,-10.0604,-10.0604,-10.0604,-10.0604,-10.058,-10.058,-10.0604,-10.0012,-9.9545,-9.9225,-9.8561,-9.7738,-8.3157,0.0,0.0,0.0,0.0,0.0,-7.9854,-8.0665,-8.1734,-8.1809,-8.2719,-8.3664,-8.4243,-8.4352,-8.4605,-8.5438,-8.5076,-8.4968,-8.5801,-8.5909,-8.5909,-8.5909,-8.5909,-8.5909,-8.5909,-8.5909,-8.5909,-8.5909,-8.5909,-8.5909,-8.5909,-8.5909,-8.5909,-8.5909,-8.5909,-8.5909,-8.5909,-8.5909,-8.6271,-8.7032,-8.7611,-8.8444,-8.9422,-9.0002,-9.04,-9.0581,-9.0581,-9.0581,-9.0581,-9.0581,-9.0581,-9.0581,-9.0581,-9.0581,-9.0694,-9.1473,-9.2033,-9.2592,-9.4029,-9.4953,-9.5621,-9.6171,-9.6502,-9.6685,-9.6685,-9.6685,-9.6685,-9.6685,-9.6685,-9.6685,-9.6685,-9.6685,-9.6685,-9.6685,-9.7064,-9.7602,-9.8306,-9.8802,-9.9225,-9.9368,-9.9922,-10.0389,-10.0389,-10.051,-10.0604,-10.0604,-10.0604,-10.0604,-10.0604,-10.0604,-10.0604,-10.0604,-10.0604,-10.0604,-10.0604,-10.0604,-10.0604,-10.0604,-10.0604,-10.0604,-10.0604,-10.0604,-10.0604,-10.0604,-10.0202,-10.0202,-10.0604,-10.0012,-9.9869,-10.0189,-9.9071,-9.8072,-8.399,-8.3625,-8.2928,-8.1809,0.0,0.0,-8.0657,-8.1473,-8.2512,-8.2856,-8.3768,-8.4642,-8.5112,-8.5185,-8.533,-8.5801,-8.5511,-8.5366,-8.5837,-8.5909,-8.5909,-8.5909,-8.5909,-8.5909,-8.5909,-8.5909,-8.5909,-8.5909,-8.5909,-8.5909,-8.5909,-8.5909,-8.5909,-8.5909,-8.5909,-8.5909,-8.5909,-8.6199,-8.6742,-8.7539,-8.8336,-8.9133,-8.9929,-9.04,-9.0581,-9.0581,-9.0581,-9.0581,-9.0581,-9.0581,-9.0581,-9.0618,-9.0701,-9.0918,-9.1321,-9.2108,-9.2886,-9.3732,-9.4913,-9.5616,-9.6098,-9.6539,-9.6685,-9.6685,-9.6685,-9.6685,-9.6685,-9.6685,-9.6685,-9.6685,-9.6685,-9.6685,-9.6685,-9.6685,-9.721,-9.7874,-9.8561,-9.9225,-9.9763,-9.9999,-10.0413,-10.0604,-10.0604,-10.0604,-10.0604,-10.0604,-10.0604,-10.0604,-10.0604,-10.0604,-10.0604,-10.0604,-10.0604,-10.0604,-10.0604,-10.0604,-10.0604,-10.0604,-10.0604,-10.0604,-10.0604,-10.0604,-10.051,-10.0214,-10.0076,-10.0076,-10.0214,-9.9843,-9.9869,-10.0189,-9.9196,-9.8268,-8.4823,-8.3979,-8.2945,-8.2481,-8.2003,0.0,-8.1978,-8.2704,-8.3558,-8.4338,-8.5178,-8.5759,-8.5759,-8.5759,-8.5759,-8.5759,-8.5797,-8.5871,-8.5909,-8.5909,-8.5909,-8.5909,-8.5909,-8.5909,-8.5909,-8.5909,-8.5909,-8.5909,-8.5909,-8.5909,-8.5909,-8.5909,-8.5909,-8.5909,-8.5909,-8.5909,-8.5909,-8.6634,-8.7392,-8.8188,-8.9024,-8.9821,-9.0581,-9.0581,-9.0581,-9.0581,-9.0581,-9.0581,-9.0581,-9.0621,-9.0621,-9.0657,-9.0928,-9.1479,-9.2212,-9.2781,-9.396,-9.5242,-9.5506,-9.606,-9.6685,-9.6685,-9.6685,-9.6685,-9.6685,-9.6685,-9.6685,-9.6685,-9.6685,-9.6685,-9.6685,-9.6762,-9.6838,-9.6838,-9.7391,-9.8109,-9.8679,-9.9339,-9.9986,-10.051,-10.0604,-10.0604,-10.0604,-10.0604,-10.0604,-10.0604,-10.0604,-10.0604,-10.0604,-10.0604,-10.0604,-10.0604,-10.0604,-10.0604,-10.0604,-10.0604,-10.0604,-10.0604,-10.0604,-10.0604,-10.0604,-10.0604,-10.0313,-9.979,-10.0288,-10.0277,-9.9601,-9.9736,-9.9736,-9.9601,-9.9079,-9.8429,-8.5656,-8.5206,-8.4489,-8.3446,-8.2821,0.0,-8.1331,-8.2044,-8.2868,-8.3034,-8.3967,-8.4747,-8.4747,-8.4747,-8.4747,-8.4747,-8.5064,-8.5453,-8.5871,-8.5909,-8.5909,-8.5909,-8.5909,-8.5909,-8.5909,-8.5909,-8.5909,-8.5909,-8.5909,-8.5909,-8.5909,-8.5909,-8.5909,-8.5909,-8.5909,-8.5909,-8.5909,-8.6634,-8.7392,-8.8188,-8.9024,-8.9821,-9.0581,-9.0581,-9.0581,-9.0581,-9.0581,-9.0581,-9.0581,-9.078,-9.0819,-9.0931,-9.1585,-9.203,-9.2478,-9.3908,-9.4758,-9.5316,-9.6014,-9.6421,-9.6685,-9.6685,-9.6685,-9.6685,-9.6685,-9.6685,-9.6685,-9.6685,-9.6685,-9.6685,-9.6685,-9.7101,-9.7496,-9.7496,-9.8429,-9.9339,-9.949,-10.0012,-10.0486,-10.058,-10.0604,-10.0604,-10.0604,-10.0604,-10.0604,-10.0604,-10.0604,-10.0604,-10.0604,-10.0604,-10.0604,-10.0604,-10.0604,-10.0604,-10.0604,-10.0604,-10.0604,-10.0604,-10.0604,-10.0604,-10.0604,-10.0604,-10.0519,-10.0385,-10.0519,-9.9987,-9.89,-9.9922,-9.9896,-9.8892,-9.9311,-9.9167,-8.5606,-8.5218,-8.4635,-8.3869,-8.3302,0.0,0.0,-8.2849,-8.3345,-8.3561,-8.4053,-8.4503,-8.4503,-8.4503,-8.4503,-8.4503,-8.4904,-8.5297,-8.5528,-8.5759,-8.5909,-8.5909,-8.5909,-8.5909,-8.5909,-8.5909,-8.5909,-8.5909,-8.5909,-8.5909,-8.5909,-8.5909,-8.5909,-8.5909,-8.5909,-8.609,-8.6452,-8.7213,-8.801,-8.8807,-8.9603,-9.0219,-9.0581,-9.0581,-9.0581,-9.0581,-9.0581,-9.0661,-9.0776,-9.1294,-9.1633,-9.1899,-9.23,-9.2998,-9.3917,-9.4799,-9.5501,-9.5981,-9.6384,-9.6608,-9.6685,-9.6685,-9.6685,-9.6685,-9.6685,-9.6685,-9.6685,-9.6685,-9.6685,-9.6685,-9.6685,-9.7211,-9.7669,-9.7669,-9.871,-9.971,-9.971,-10.0202,-10.0604,-10.0604,-10.0604,-10.0604,-10.0604,-10.0604,-10.0604,-10.0604,-10.0604,-10.0604,-10.0604,-10.0604,-10.0604,-10.0604,-10.0604,-10.0604,-10.0604,-10.0604,-10.0486,-10.0202,-10.0385,-10.0486,-10.0202,-10.0385,-10.0486,-10.0202,-9.9843,-9.9508,-9.9196,-9.9843,-9.9817,-9.9196,-9.9545,-9.9545,-8.5218,-8.4742,-8.4296,-8.3954,-8.3559,-8.3297,0.0,0.0,0.0,-8.4171,-8.4255,-8.4255,-8.4255,-8.4255,-8.4255,-8.4255,-8.4661,-8.498,-8.498,-8.5336,-8.5682,-8.5909,-8.5909,-8.5909,-8.5909,-8.5909,-8.5909,-8.5909,-8.5909,-8.5909,-8.5909,-8.5909,-8.5909,-8.5909,-8.6054,-8.6416,-8.6996,-8.7974,-8.877,-8.9386,-9.0219,-9.0581,-9.0581,-9.0581,-9.0581,-9.0581,-9.0581,-9.0701,-9.097,-9.1809,-9.248,-9.3045,-9.3191,-9.4071,-9.532,-9.562,-9.6135,-9.6685,-9.6685,-9.6685,-9.6685,-9.6685,-9.6685,-9.6685,-9.6685,-9.6685,-9.6685,-9.6685,-9.6685,-9.6724,-9.6839,-9.7391,-9.7942,-9.8076,-9.8982,-9.9843,-9.9843,-10.0315,-10.0604,-10.0604,-10.0604,-10.0604,-10.0604,-10.0604,-10.0604,-10.0604,-10.0604,-10.0604,-10.0604,-10.0604,-10.0604,-10.0604,-10.051,-10.0486,-10.0604,-10.051,-10.0277,-9.9907,-10.0288,-10.0375,-9.9869,-10.0214,-10.0101,-9.9545,-9.9108,-9.9108,-9.9518,-9.9763,-9.979,-9.971,-9.9817,-9.979,-8.4707,-8.429,-8.3989,-8.3947,-8.3559,-8.3208,-8.3253,0.0,-8.3297,-8.3341,0.0,-8.3341,-8.3341,0.0,0.0,-8.3341,-8.374,-8.4074,-8.4074,-8.4379,-8.4984,-8.5797,-8.5909,-8.5909,-8.5909,-8.5909,-8.5909,-8.5909,-8.5909,-8.5909,-8.5909,-8.5909,-8.5909,-8.5909,-8.6525,-8.6923,-8.7032,-8.8517,-8.9314,-8.9386,-9.0219,-9.0581,-9.0581,-9.0581,-9.0581,-9.0581,-9.0581,-9.0701,-9.097,-9.1965,-9.2963,-9.3923,-9.4657,-9.5137,-9.5546,-9.6318,-9.6612,-9.6685,-9.6685,-9.6685,-9.6685,-9.6685,-9.6685,-9.6685,-9.6685,-9.6685,-9.6685,-9.6685,-9.6685,-9.6838,-9.7425,-9.8076,-9.8748,-9.9339,-10.0012,-10.051,-10.051,-10.0595,-10.0604,-10.0604,-10.0604,-10.0604,-10.0604,-10.0604,-10.0604,-10.0604,-10.0604,-10.0604,-10.0604,-10.0604,-10.0604,-10.0604,-10.0114,-9.9999,-10.0595,-10.0114,-10.0012,-10.0486,-10.0619,-10.0619,-10.051,-10.0025,-9.948,-9.8839,-9.9311,-9.9339,-9.8839,-9.9948,-10.0214,-9.971,-10.0201,-10.0189,-8.4332,-8.4207,-8.4123,-8.3611,-8.3559,-8.3559,-8.3253,-8.3208,-8.3208,-8.3208,0.0,0.0,0.0,0.0,0.0,0.0,-8.3603,-8.3904,-8.3904,-8.4213,-8.4666,-8.5064,-8.5336,-8.5606,-8.5871,-8.5909,-8.5909,-8.5909,-8.5909,-8.5909,-8.5909,-8.5909,-8.5909,-8.5909,-8.6634,-8.7249,-8.7681,-8.8843,-8.964,-9.011,-9.0436,-9.0581,-9.0581,-9.0581,-9.0581,-9.0618,-9.0701,-9.1152,-9.1856,-9.2927,-9.396,-9.4956,-9.5763,-9.6132,-9.6245,-9.6575,-9.6685,-9.6685,-9.6685,-9.6685,-9.6685,-9.6685,-9.6685,-9.6685,-9.6685,-9.6685,-9.6685,-9.6685,-9.6685,-9.6839,-9.7531,-9.8208,-9.887,-9.9545,-10.0202,-10.0604,-10.0604,-10.0604,-10.0604,-10.0604,-10.0604,-10.0604,-10.0604,-10.0604,-10.0604,-10.0604,-10.0604,-10.0604,-10.0604,-10.0604,-10.0604,-10.0604,-10.0101,-9.9922,-10.0481,-9.9999,-9.979,-10.0101,-9.9699,-9.9508,-9.9508,-9.9628,-9.9368,-9.8679,-9.9339,-9.9573,-9.9282,-9.9817,-10.0076,-10.0214,-10.051,-10.0486,-8.4249,-8.4255,-8.4338,-8.3568,-8.3646,-8.3776,-8.3297,-8.3208,-8.3208,-8.3208,-8.3208,0.0,0.0,0.0,-8.3208,-8.3208,0.0,-8.3733,-8.3733,-8.3954,-8.4213,-8.4462,-8.4904,-8.5336,-8.5682,-8.5797,-8.5909,-8.5909,-8.5909,-8.5909,-8.5909,-8.5909,-8.5982,-8.6199,-8.6959,-8.772,-8.8553,-8.9314,-9.0002,-9.0581,-9.0581,-9.0581,-9.0581,-9.0581,-9.0621,-9.0697,-9.1073,-9.1744,-9.2596,-9.3848,-9.477,-9.5584,-9.6392,-9.6685,-9.6685,-9.6685,-9.6685,-9.6685,-9.6685,-9.6685,-9.6685,-9.6685,-9.6685,-9.6685,-9.6685,-9.6685,-9.6685,-9.6685,-9.6838,-9.7138,-9.7772,-9.846,-9.9138,-9.979,-10.0302,-10.0604,-10.0604,-10.0604,-10.0604,-10.0604,-10.0604,-10.0604,-10.0604,-10.0604,-10.0604,-10.0604,-10.0604,-10.0604,-10.0604,-10.0604,-10.0519,-10.0413,-10.0214,-10.0211,-10.0593,-10.0321,-10.0076,-10.0114,-9.959,-9.9239,-9.9017,-9.9453,-9.9368,-9.8679,-9.9339,-9.971,-9.971,-9.9843,-10.0202,-10.0604,-10.0604,-10.0604,-8.4625,-8.4503,-8.442,-8.3954,-8.3904,-8.3776,-8.3297,-8.3208,-8.3208,-8.3208,-8.3208,-8.3208,-8.3208,-8.3208,-8.3208,-8.3208,-8.3208,0.0,0.0,-8.3253,-8.3568,-8.442,-8.4904,-8.5218,-8.5218,-8.5644,-8.5909,-8.5909,-8.5909,-8.5909,-8.5909,-8.5909,-8.6235,-8.6959,-8.7718,-8.8553,-8.935,-9.0147,-9.0581,-9.0581,-9.0581,-9.0581,-9.0581,-9.0581,-9.0701,-9.0934,-9.1733,-9.2332,-9.2935,-9.4509,-9.5283,-9.5584,-9.6392,-9.6685,-9.6685,-9.6685,-9.6685,-9.6685,-9.6685,-9.6685,-9.6685,-9.6685,-9.6685,-9.6685,-9.6685,-9.6685,-9.6685,-9.6685,-9.7174,-9.7806,-9.846,-9.9167,-9.9817,-10.0385,-10.058,-10.0604,-10.0604,-10.0604,-10.0604,-10.0604,-10.0604,-10.0604,-10.0604,-10.0604,-10.0604,-10.0604,-10.0604,-10.0604,-10.0604,-10.0604,-10.0413,-9.979,-10.0392,-10.0923,-10.0885,-10.0993,-10.1114,-10.1088,-10.0877,-10.0511,-9.9881,-9.9755,-9.9368,-9.8679,-9.9339,-9.971,-9.971,-10.0302,-10.058,-10.0604,-10.0604,-10.0604,-8.4625,-8.4707,-8.4864,-8.4379,-8.4296,-8.4207,-8.374,-8.3429,-8.3208,-8.3208,-8.3208,-8.3208,-8.3208,-8.3208,-8.3208,-8.3208,-8.3208,-8.3208,0.0,-8.3208,-8.3341,-8.3611,-8.4296,-8.4864,-8.5179,-8.5644,-8.5909,-8.5909,-8.5909,-8.5909,-8.5909,-8.638,-8.6742,-8.6996,-8.83,-8.9133,-8.9386,-9.0183,-9.0581,-9.0581,-9.0581,-9.0581,-9.0581,-9.074,-9.0819,-9.0934,-9.2081,-9.2967,-9.3705,-9.4918,-9.5728,-9.6318,-9.6575,-9.6685,-9.6685,-9.6685,-9.6685,-9.6685,-9.6685,-9.6685,-9.6685,-9.6685,-9.6685,-9.6685,-9.6685,-9.7027,-9.7355,-9.7355,-9.784,-9.8492,-9.9196,-9.9545,-9.9843,-10.0486,-10.0604,-10.0604,-10.0604,-10.0604,-10.0604,-10.0604,-10.0604,-10.0604,-10.0604,-10.11,-10.1292,-10.0718,-10.0604,-10.0795,-10.1406,-10.109,-10.0895,-10.1302,-10.1095,-10.1225,-10.1701,-10.1684,-10.1619,-10.1082,-10.1082,-10.0993,-10.0776,-10.0202,-9.9751,-9.9468,-9.9604,-9.971,-9.971,-10.0326,-10.0604,-10.0604,-10.0604,-10.0604,-8.5064,-8.5218,-8.5336,-8.4864,-8.4747,-8.4625,-8.4207,-8.3869,-8.3654,-8.3654,-8.3654,-8.3654,-8.3654,-8.3524,-8.3472,-8.3472,-8.3297,-8.3208,0.0,-8.3208,-8.3208,-8.3208,-8.3961,-8.4625,-8.4904,-8.5528,-8.5909,-8.5909,-8.5909,-8.6018,-8.6271,-8.6742,-8.7285,-8.7865,-8.8843,-8.9531,-8.9821,-9.0328,-9.0581,-9.0581,-9.0581,-9.0621,-9.0701,-9.0819,-9.1157,-9.164,-9.2748,-9.3705,-9.4587,-9.5508,-9.6245,-9.6685,-9.6685,-9.6685,-9.6685,-9.6685,-9.6685,-9.6685,-9.6685,-9.6685,-9.6685,-9.6685,-9.6685,-9.6687,-9.6694,-9.6986,-9.7443,-9.7938,-9.838,-9.8798,-9.9205,-9.9665,-10.0114,-10.0495,-10.0604,-10.0604,-10.0604,-10.0604,-10.0604,-10.0604,-10.0604,-10.0718,-10.0986,-10.1521,-10.1712,-10.11,-10.1292,-10.1602,-10.1902,-10.1826,-10.1714,-10.1711,-10.2089,-10.2391,-10.2597,-10.2597,-10.2289,-10.1696,-10.163,-10.1697,-10.1981,-10.1114,-10.0789,-10.1097,-10.0689,-10.0494,-10.0494,-10.059,-10.0604,-10.0604,-10.0604,-10.0604]},{"header":{"parameterUnit":"m.s-1","parameterCategory":1,"la1":30.6,"la2":29.2853,"lo1":-89.7004,"lo2":-87.6739,"dy":0.0162,"dx":0.0183,"nx":112,"ny":82,"refTime":"2023-02-25T06:00:00:Z","depth":0,"parameterNumber":3,"parameterNumberName":"V-component_of_WINDS"},"data":[0.0,0.0,0.0,0.0,0.0,0.0,0.0,0.0,0.0,0.0,0.0,0.0,0.0,0.0,0.0,0.0,0.0,0.0,0.0,0.0,0.0,0.0,0.0,0.0,0.0,0.0,0.0,0.0,0.0,0.0,0.0,0.0,0.0,0.0,0.0,0.0,0.0,0.0,0.0,0.0,0.0,0.0,0.0,0.0,0.0,0.0,0.0,0.0,0.0,0.0,0.0,0.0,0.0,0.0,0.0,0.0,0.0,0.0,0.0,0.0,0.0,0.0,0.0,0.0,0.0,0.0,0.0,0.0,0.0,0.0,0.0,0.0,0.0,0.0,0.0,0.0,0.0,0.0,0.0,0.0,0.0,0.0,0.0,0.0,0.0,0.0,0.0,0.0,0.0,0.0,-2.1296,-2.0751,-1.9184,-1.8184,-1.8217,-1.8217,-1.8298,-1.8485,0.0,0.0,0.0,0.0,0.0,0.0,0.0,0.0,0.0,0.0,0.0,0.0,0.0,0.0,0.0,0.0,0.0,0.0,0.0,0.0,0.0,0.0,0.0,0.0,0.0,0.0,0.0,0.0,0.0,0.0,0.0,0.0,0.0,0.0,0.0,0.0,0.0,0.0,0.0,0.0,0.0,0.0,0.0,0.0,0.0,0.0,0.0,0.0,0.0,0.0,0.0,0.0,0.0,0.0,0.0,0.0,0.0,0.0,0.0,0.0,0.0,0.0,0.0,0.0,0.0,0.0,0.0,0.0,0.0,0.0,0.0,0.0,0.0,0.0,0.0,0.0,0.0,0.0,0.0,0.0,0.0,0.0,0.0,0.0,0.0,0.0,0.0,0.0,0.0,0.0,0.0,0.0,0.0,0.0,0.0,0.0,0.0,0.0,0.0,0.0,0.0,0.0,0.0,0.0,-2.231,-1.9006,-1.8363,-1.8241,-1.8395,-1.8412,-1.8485,-1.8671,0.0,0.0,0.0,0.0,0.0,0.0,0.0,0.0,0.0,0.0,0.0,0.0,0.0,0.0,0.0,0.0,0.0,0.0,0.0,0.0,0.0,0.0,0.0,0.0,0.0,0.0,0.0,0.0,0.0,0.0,0.0,0.0,0.0,0.0,0.0,0.0,0.0,0.0,0.0,0.0,0.0,0.0,0.0,0.0,0.0,0.0,0.0,0.0,0.0,0.0,0.0,0.0,0.0,0.0,0.0,0.0,0.0,0.0,0.0,0.0,0.0,0.0,0.0,0.0,0.0,0.0,0.0,0.0,0.0,0.0,0.0,0.0,0.0,0.0,0.0,0.0,0.0,0.0,0.0,0.0,0.0,0.0,0.0,0.0,0.0,0.0,0.0,0.0,0.0,0.0,0.0,0.0,0.0,0.0,0.0,0.0,0.0,0.0,0.0,0.0,0.0,0.0,0.0,-2.3417,-2.1649,-1.8753,-1.8476,-1.8509,-1.859,-1.8598,-1.8671,-1.885,-1.8785,0.0,0.0,0.0,0.0,0.0,0.0,0.0,0.0,0.0,0.0,0.0,0.0,0.0,0.0,0.0,0.0,0.0,0.0,0.0,0.0,0.0,0.0,0.0,0.0,0.0,0.0,0.0,0.0,0.0,0.0,0.0,0.0,0.0,0.0,0.0,0.0,0.0,0.0,0.0,0.0,0.0,0.0,0.0,0.0,0.0,0.0,0.0,0.0,0.0,0.0,0.0,0.0,0.0,0.0,0.0,0.0,0.0,0.0,0.0,0.0,0.0,0.0,0.0,0.0,0.0,0.0,0.0,0.0,0.0,0.0,0.0,0.0,0.0,0.0,0.0,0.0,0.0,0.0,0.0,0.0,0.0,0.0,0.0,0.0,0.0,0.0,0.0,0.0,0.0,0.0,0.0,0.0,0.0,0.0,0.0,0.0,0.0,0.0,0.0,0.0,0.0,0.0,-2.2125,-2.0992,-1.8912,-1.8728,-1.8744,-1.8785,-1.8785,-1.8858,-1.9037,-1.9045,0.0,0.0,0.0,0.0,0.0,0.0,0.0,0.0,0.0,0.0,0.0,0.0,0.0,0.0,0.0,0.0,0.0,0.0,0.0,0.0,0.0,0.0,0.0,0.0,0.0,0.0,0.0,0.0,0.0,0.0,0.0,0.0,0.0,0.0,0.0,0.0,0.0,0.0,0.0,0.0,0.0,0.0,0.0,0.0,0.0,0.0,0.0,0.0,0.0,0.0,0.0,0.0,0.0,0.0,0.0,0.0,0.0,0.0,0.0,0.0,0.0,0.0,0.0,0.0,0.0,0.0,0.0,0.0,0.0,0.0,0.0,0.0,0.0,0.0,0.0,0.0,0.0,0.0,0.0,0.0,0.0,0.0,0.0,0.0,0.0,0.0,0.0,0.0,0.0,0.0,0.0,0.0,0.0,0.0,0.0,0.0,0.0,0.0,0.0,0.0,0.0,0.0,-2.2969,-2.0992,-1.8912,-1.8728,-1.8793,-1.8948,-1.8964,-1.9045,-1.9224,-1.924,0.0,0.0,0.0,0.0,0.0,0.0,0.0,0.0,0.0,0.0,0.0,0.0,0.0,0.0,0.0,0.0,0.0,0.0,0.0,0.0,0.0,0.0,0.0,0.0,0.0,0.0,0.0,0.0,0.0,0.0,0.0,0.0,0.0,0.0,0.0,0.0,0.0,0.0,0.0,0.0,0.0,0.0,0.0,0.0,0.0,0.0,0.0,0.0,0.0,0.0,0.0,0.0,0.0,0.0,0.0,0.0,0.0,0.0,0.0,0.0,0.0,0.0,0.0,0.0,0.0,0.0,0.0,0.0,0.0,0.0,0.0,0.0,0.0,0.0,0.0,0.0,0.0,0.0,0.0,0.0,0.0,0.0,0.0,0.0,0.0,0.0,0.0,0.0,0.0,0.0,0.0,0.0,0.0,0.0,0.0,0.0,0.0,0.0,0.0,0.0,0.0,0.0,-2.3475,-2.1366,-1.9346,-1.9061,-1.9086,-1.9151,-1.9159,-1.9183,-1.9256,0.0,0.0,0.0,0.0,0.0,0.0,0.0,0.0,0.0,0.0,0.0,0.0,0.0,0.0,0.0,0.0,0.0,0.0,0.0,0.0,0.0,0.0,0.0,0.0,0.0,0.0,0.0,0.0,0.0,0.0,0.0,0.0,0.0,0.0,0.0,0.0,0.0,0.0,0.0,0.0,0.0,0.0,0.0,0.0,0.0,0.0,0.0,0.0,0.0,0.0,0.0,0.0,0.0,0.0,0.0,0.0,0.0,0.0,0.0,0.0,0.0,0.0,0.0,0.0,0.0,0.0,0.0,0.0,0.0,0.0,0.0,0.0,0.0,0.0,0.0,0.0,0.0,0.0,0.0,0.0,0.0,0.0,0.0,0.0,0.0,0.0,0.0,0.0,0.0,0.0,0.0,0.0,0.0,0.0,0.0,0.0,0.0,0.0,0.0,0.0,0.0,0.0,-2.5755,-2.3726,-2.1594,-1.9553,-1.9256,-1.9256,-1.9256,-1.9256,-1.9256,-1.9256,0.0,0.0,0.0,0.0,0.0,0.0,0.0,0.0,0.0,0.0,0.0,0.0,0.0,0.0,0.0,0.0,0.0,0.0,0.0,0.0,0.0,0.0,0.0,0.0,0.0,0.0,0.0,0.0,0.0,0.0,0.0,0.0,0.0,0.0,0.0,0.0,0.0,0.0,0.0,0.0,0.0,0.0,0.0,0.0,0.0,0.0,0.0,0.0,0.0,0.0,0.0,0.0,0.0,0.0,0.0,0.0,0.0,0.0,0.0,0.0,0.0,0.0,0.0,0.0,0.0,0.0,0.0,0.0,0.0,0.0,0.0,0.0,0.0,0.0,0.0,0.0,0.0,0.0,0.0,0.0,0.0,0.0,0.0,0.0,0.0,0.0,0.0,0.0,0.0,0.0,0.0,0.0,0.0,0.0,0.0,0.0,0.0,0.0,0.0,0.0,0.0,0.0,-2.5755,-2.3628,-2.1594,-1.9553,-1.9256,-1.9256,-1.9256,-1.9256,-1.9256,0.0,0.0,0.0,0.0,0.0,0.0,0.0,0.0,0.0,0.0,0.0,0.0,0.0,0.0,0.0,0.0,0.0,0.0,0.0,0.0,0.0,0.0,0.0,0.0,0.0,0.0,0.0,0.0,0.0,0.0,0.0,0.0,0.0,0.0,0.0,0.0,0.0,0.0,0.0,0.0,0.0,0.0,0.0,0.0,0.0,0.0,0.0,0.0,0.0,0.0,0.0,0.0,0.0,0.0,0.0,0.0,0.0,0.0,0.0,0.0,0.0,0.0,0.0,0.0,0.0,0.0,0.0,0.0,0.0,0.0,0.0,0.0,0.0,0.0,0.0,0.0,0.0,0.0,0.0,0.0,0.0,0.0,0.0,0.0,0.0,0.0,0.0,0.0,0.0,0.0,0.0,0.0,0.0,0.0,0.0,0.0,0.0,0.0,0.0,0.0,0.0,0.0,0.0,-2.5561,-2.2368,-1.9939,-1.9355,-1.9256,-1.9256,-1.9256,-1.9256,-1.9256,-1.9256,0.0,0.0,0.0,0.0,0.0,0.0,0.0,0.0,0.0,0.0,0.0,0.0,0.0,0.0,0.0,0.0,0.0,0.0,0.0,0.0,0.0,0.0,0.0,0.0,0.0,0.0,0.0,0.0,0.0,0.0,0.0,0.0,0.0,0.0,0.0,0.0,0.0,0.0,0.0,0.0,0.0,0.0,0.0,0.0,0.0,0.0,0.0,0.0,0.0,0.0,0.0,0.0,0.0,0.0,0.0,0.0,0.0,0.0,0.0,0.0,0.0,0.0,0.0,0.0,0.0,0.0,0.0,0.0,0.0,0.0,0.0,0.0,0.0,0.0,0.0,0.0,0.0,0.0,0.0,0.0,0.0,0.0,0.0,0.0,0.0,0.0,0.0,0.0,0.0,0.0,0.0,0.0,0.0,0.0,0.0,0.0,0.0,0.0,0.0,0.0,0.0,0.0,-2.5561,-2.2564,-2.0235,-1.9355,-1.9256,-1.9256,-1.9256,-1.9256,-1.9256,-1.9256,0.0,0.0,0.0,0.0,0.0,0.0,0.0,0.0,0.0,0.0,0.0,0.0,0.0,0.0,0.0,0.0,0.0,0.0,0.0,0.0,0.0,0.0,0.0,0.0,0.0,0.0,0.0,0.0,0.0,0.0,0.0,0.0,0.0,0.0,0.0,0.0,0.0,0.0,0.0,0.0,0.0,0.0,0.0,0.0,0.0,0.0,0.0,0.0,0.0,0.0,0.0,0.0,0.0,0.0,0.0,0.0,0.0,0.0,0.0,0.0,0.0,0.0,0.0,0.0,0.0,0.0,0.0,0.0,0.0,0.0,0.0,0.0,0.0,0.0,0.0,0.0,0.0,0.0,0.0,0.0,0.0,0.0,0.0,0.0,0.0,0.0,0.0,0.0,0.0,0.0,0.0,0.0,0.0,0.0,0.0,0.0,0.0,0.0,0.0,0.0,0.0,0.0,-2.5755,-2.3531,-2.1397,-1.9454,-1.9256,-1.9256,-1.9256,-1.9256,-1.9256,-1.9256,0.0,0.0,0.0,0.0,0.0,0.0,0.0,0.0,0.0,0.0,0.0,0.0,0.0,0.0,0.0,0.0,0.0,0.0,0.0,0.0,0.0,0.0,0.0,0.0,0.0,0.0,0.0,0.0,0.0,0.0,0.0,0.0,0.0,0.0,0.0,0.0,0.0,0.0,0.0,0.0,0.0,0.0,0.0,0.0,0.0,0.0,0.0,0.0,0.0,0.0,0.0,0.0,0.0,0.0,0.0,0.0,0.0,0.0,0.0,0.0,-3.2778,-3.2778,0.0,0.0,0.0,0.0,0.0,0.0,0.0,0.0,0.0,0.0,0.0,0.0,0.0,0.0,0.0,0.0,0.0,0.0,0.0,0.0,0.0,0.0,0.0,0.0,0.0,0.0,0.0,0.0,0.0,0.0,0.0,0.0,0.0,0.0,0.0,0.0,0.0,0.0,0.0,0.0,-2.5561,-2.227,-1.975,-1.9355,-1.9256,-1.9256,-1.9256,-1.9256,-1.9256,-1.9256,-1.9256,0.0,0.0,0.0,0.0,0.0,0.0,0.0,0.0,0.0,0.0,0.0,0.0,0.0,0.0,0.0,0.0,0.0,0.0,0.0,0.0,0.0,0.0,0.0,0.0,0.0,0.0,0.0,0.0,0.0,0.0,0.0,0.0,0.0,0.0,0.0,0.0,0.0,0.0,0.0,0.0,0.0,0.0,0.0,0.0,0.0,0.0,0.0,0.0,0.0,0.0,0.0,0.0,0.0,0.0,0.0,0.0,0.0,0.0,0.0,-3.2837,-3.2851,0.0,0.0,0.0,0.0,0.0,0.0,0.0,0.0,0.0,0.0,0.0,0.0,0.0,0.0,0.0,0.0,0.0,0.0,0.0,0.0,0.0,0.0,0.0,0.0,0.0,0.0,0.0,0.0,0.0,0.0,0.0,0.0,0.0,0.0,0.0,0.0,0.0,0.0,0.0,0.0,-2.5658,-2.275,-2.0423,-1.9454,-1.9256,-1.9256,-1.9256,-1.9256,-1.9256,-1.9256,-1.9256,0.0,0.0,0.0,0.0,0.0,0.0,0.0,0.0,0.0,0.0,0.0,0.0,0.0,0.0,0.0,0.0,0.0,0.0,0.0,0.0,0.0,0.0,0.0,0.0,0.0,0.0,0.0,0.0,0.0,0.0,0.0,0.0,0.0,0.0,0.0,0.0,0.0,0.0,0.0,0.0,0.0,0.0,0.0,0.0,0.0,0.0,0.0,0.0,0.0,0.0,0.0,0.0,0.0,-3.2778,-3.2793,-3.2851,-3.2851,-3.3027,-3.3319,-3.3056,-3.3085,-3.3334,-3.3334,0.0,0.0,0.0,0.0,0.0,0.0,0.0,0.0,0.0,0.0,0.0,0.0,0.0,0.0,0.0,0.0,0.0,0.0,0.0,0.0,0.0,0.0,-3.2988,-3.2988,-3.2327,-3.1853,-3.2327,0.0,0.0,0.0,0.0,0.0,0.0,0.0,0.0,0.0,0.0,0.0,-2.527,-2.3141,-2.1201,-1.9454,-1.9256,-1.9256,-1.9256,-1.9256,-1.9256,-1.9256,-1.9256,-1.9256,0.0,0.0,0.0,0.0,0.0,0.0,0.0,0.0,0.0,0.0,0.0,0.0,0.0,0.0,0.0,0.0,0.0,0.0,0.0,0.0,0.0,0.0,0.0,0.0,0.0,0.0,0.0,0.0,0.0,0.0,0.0,0.0,-3.2675,-3.2675,0.0,0.0,0.0,0.0,0.0,0.0,0.0,0.0,0.0,0.0,0.0,0.0,0.0,-3.2778,-3.2778,-3.2778,-3.2778,-3.2778,-3.2778,-3.291,-3.3188,-3.3188,-3.3363,-3.3671,-3.3627,0.0,-3.3671,-3.3671,0.0,0.0,0.0,0.0,0.0,0.0,0.0,0.0,0.0,0.0,0.0,0.0,0.0,0.0,0.0,0.0,0.0,0.0,0.0,0.0,0.0,0.0,-3.1853,-3.1853,-3.1758,-3.1853,-3.2327,-3.0674,-2.9051,-2.9051,-2.7599,-2.6914,0.0,0.0,0.0,0.0,0.0,0.0,-2.3043,-2.1013,-1.9651,-1.9355,-1.9256,-1.9256,-1.9256,-1.9256,-1.9256,-1.9256,-1.9256,-1.9256,-1.9256,-1.9256,0.0,0.0,0.0,0.0,0.0,0.0,0.0,0.0,0.0,0.0,0.0,0.0,0.0,0.0,0.0,0.0,0.0,0.0,0.0,0.0,0.0,0.0,0.0,0.0,0.0,0.0,0.0,0.0,0.0,-3.2778,-3.2778,-3.2778,-3.2778,-3.2778,0.0,0.0,0.0,0.0,0.0,0.0,0.0,0.0,0.0,-3.2778,-3.2778,-3.2778,-3.2778,-3.2778,-3.2778,-3.2778,-3.2954,-3.3115,-3.3246,-3.3436,-3.37,-3.4007,-3.4007,-3.411,-3.4256,-3.408,-3.411,-3.4285,0.0,0.0,0.0,0.0,-3.4305,-3.4305,-3.4305,-3.4226,-3.4132,-3.432,0.0,0.0,0.0,0.0,0.0,0.0,0.0,-3.393,-3.3351,-3.3069,-3.288,-3.2611,-3.2516,-3.2611,-3.28,-3.0864,-2.9326,-3.0483,-3.0007,-2.9612,-3.021,-3.0306,0.0,0.0,0.0,-2.4785,-2.2662,-2.062,-1.9256,-1.9256,-1.9256,-1.9256,-1.9256,-1.9256,-1.9256,-1.9256,-1.9256,-1.9256,-1.9256,-1.9256,-1.9256,0.0,0.0,0.0,0.0,0.0,0.0,0.0,0.0,0.0,0.0,0.0,0.0,0.0,0.0,0.0,0.0,0.0,0.0,0.0,0.0,0.0,0.0,0.0,0.0,0.0,0.0,0.0,0.0,-3.2778,-3.2778,-3.2778,-3.2778,-3.2778,0.0,0.0,0.0,0.0,0.0,0.0,-3.2778,-3.2778,-3.2778,-3.2778,-3.2778,-3.2778,-3.2778,-3.2778,-3.2807,-3.2895,-3.3129,-3.3334,-3.3495,-3.3744,-3.4036,-3.4344,-3.4344,-3.4475,-3.468,-3.4446,-3.449,-3.471,-3.471,-3.471,-3.4695,-3.4508,-3.4508,-3.4508,-3.4508,-3.4414,-3.432,-3.4414,-3.4508,-3.4508,-3.4508,0.0,0.0,0.0,0.0,-3.4414,-3.3822,-3.3728,-3.3634,-3.3257,-3.3177,-3.3177,-3.3177,-3.1231,-2.9886,-3.1339,-3.1054,-3.0483,-3.021,-3.0115,0.0,-2.7311,-2.5658,-2.392,-2.1879,-2.0235,-1.9256,-1.9256,-1.9256,-1.9256,-1.9256,-1.9256,-1.9256,-1.9256,-1.9256,-1.9256,-1.9256,-1.9256,-1.9256,-1.9256,0.0,0.0,0.0,0.0,0.0,0.0,0.0,0.0,0.0,0.0,0.0,0.0,0.0,0.0,0.0,0.0,0.0,0.0,0.0,0.0,0.0,0.0,0.0,0.0,0.0,0.0,0.0,0.0,0.0,-3.2778,-3.2778,0.0,0.0,0.0,0.0,-3.2778,-3.2778,-3.2778,-3.2778,-3.2778,-3.2778,-3.2778,-3.2778,-3.2778,-3.2778,-3.2778,-3.2924,-3.3217,-3.3142,-3.3568,-3.4168,-3.4183,-3.4373,-3.468,-3.468,-3.4695,-3.471,-3.4695,-3.4695,-3.471,-3.471,-3.471,-3.4616,-3.4118,-3.3916,-3.3916,-3.3916,-3.3634,-3.3351,-3.3822,-3.3916,-3.3916,-3.3916,-3.4305,0.0,0.0,-3.3916,-3.3822,-3.3351,-3.3257,-3.3271,-3.3177,-3.3177,-3.3177,-3.3177,-3.1515,-2.9969,-2.9504,-2.748,-2.5851,-2.5851,0.0,-2.5076,-2.3043,-2.2662,-2.1781,-1.975,-1.9355,-1.9256,-1.9256,-1.9256,-1.9256,-1.9256,-1.9256,-1.9256,-1.9256,-1.9256,-1.9256,-1.9256,-1.9256,-1.9256,-1.9256,-1.9256,0.0,0.0,0.0,0.0,0.0,0.0,0.0,0.0,0.0,0.0,0.0,0.0,0.0,0.0,0.0,0.0,0.0,0.0,0.0,0.0,0.0,0.0,0.0,0.0,0.0,0.0,0.0,0.0,-3.2778,-3.2778,0.0,-3.2778,-3.2778,-3.2778,-3.2778,-3.2778,-3.2778,-3.2778,-3.2778,-3.2778,-3.2778,-3.2778,-3.2866,-3.3071,-3.3071,-3.3232,-3.3554,-3.3773,-3.3993,-3.4227,-3.4432,-3.4592,-3.471,-3.471,-3.471,-3.471,-3.471,-3.471,-3.471,-3.471,-3.471,-3.471,-3.4508,-3.4414,-3.4414,-3.4414,-3.432,-3.4226,-3.432,-3.4414,-3.4305,-3.401,-3.4305,-3.4601,-3.401,-3.4118,-3.4414,-3.4226,-3.4132,-3.4132,-3.4132,-3.4132,-3.4132,-3.4132,-3.2489,-3.1041,-3.0851,-2.8152,-2.584,-2.5561,-2.5464,-2.4785,-2.276,-2.2368,-2.1692,-1.9553,-1.9256,-1.9256,-1.9256,-1.9256,-1.9256,-1.9256,-1.9256,-1.9256,-1.9256,-1.9256,-1.9256,-1.9256,-1.9256,-1.9256,-1.9256,-1.9256,-1.9256,0.0,0.0,0.0,0.0,0.0,0.0,0.0,0.0,0.0,0.0,0.0,0.0,0.0,0.0,0.0,0.0,0.0,0.0,0.0,0.0,0.0,0.0,0.0,0.0,0.0,-3.2778,-3.2778,-3.2778,-3.2778,-3.2778,-3.2778,-3.2778,-3.2778,-3.2778,-3.2778,-3.2778,-3.2778,-3.2778,-3.2822,-3.2924,-3.2924,-3.3085,-3.3407,-3.3407,-3.3568,-3.389,-3.411,-3.4271,-3.4388,-3.4607,-3.471,-3.471,-3.471,-3.471,-3.471,-3.471,-3.471,-3.471,-3.471,-3.471,-3.471,-3.471,-3.471,-3.471,-3.471,-3.471,-3.471,-3.471,-3.471,-3.4601,-3.4305,-3.4414,-3.4601,-3.4305,-3.4414,-3.471,-3.471,-3.471,-3.471,-3.471,-3.471,-3.4601,-3.4508,-3.2772,-3.1326,-3.1136,-2.8632,-2.613,-2.5173,-2.4688,-2.4018,-2.2662,-2.1781,-2.1103,-2.0423,-1.9742,-1.9256,-1.9256,-1.9256,-1.9256,-1.9256,-1.9256,-1.9256,-1.9256,-1.9256,-1.9256,-1.9256,-1.9256,-1.9256,-1.9256,-1.9256,-1.9256,-1.9256,0.0,0.0,0.0,0.0,0.0,0.0,0.0,0.0,0.0,0.0,0.0,0.0,0.0,0.0,0.0,0.0,0.0,0.0,0.0,0.0,0.0,0.0,0.0,-3.2778,-3.2778,-3.2778,-3.2778,-3.2778,-3.2778,-3.2778,-3.2778,-3.2778,-3.2778,-3.2778,-3.2778,-3.2793,-3.2793,-3.2939,-3.3246,-3.3261,-3.3422,-3.3744,-3.3744,-3.3905,-3.4241,-3.4241,-3.4402,-3.471,-3.471,-3.471,-3.471,-3.471,-3.471,-3.471,-3.471,-3.471,-3.471,-3.471,-3.471,-3.471,-3.471,-3.471,-3.471,-3.471,-3.471,-3.471,-3.471,-3.471,-3.471,-3.471,-3.471,-3.471,-3.471,-3.471,-3.471,-3.471,-3.471,-3.471,-3.471,-3.471,-3.4601,-3.401,-3.2353,-3.0717,-3.0255,-2.8452,-2.6442,-2.431,-2.315,-2.2466,-2.2466,-2.0718,0.0,-2.2075,-2.062,-1.9355,-1.9256,-1.9256,-1.9256,-1.9256,-1.9256,-1.9256,-1.9256,-1.9256,-1.9256,-1.9256,-1.9256,-1.9256,-1.9256,-1.9256,-1.9256,-1.9256,0.0,0.0,0.0,0.0,0.0,0.0,0.0,0.0,0.0,0.0,0.0,0.0,0.0,0.0,0.0,0.0,0.0,0.0,0.0,0.0,0.0,-3.2778,-3.2778,-3.2778,-3.2778,-3.2778,-3.2778,-3.2778,-3.2778,-3.2778,-3.2778,-3.2778,-3.2778,-3.2778,-3.2866,-3.31,-3.3115,-3.3261,-3.3583,-3.3597,-3.3758,-3.408,-3.408,-3.4241,-3.4578,-3.4578,-3.4622,-3.471,-3.471,-3.471,-3.471,-3.471,-3.471,-3.471,-3.471,-3.471,-3.471,-3.471,-3.471,-3.471,-3.471,-3.471,-3.471,-3.471,-3.471,-3.471,-3.471,-3.471,-3.471,-3.471,-3.471,-3.471,-3.471,-3.471,-3.471,-3.471,-3.471,-3.471,-3.471,-3.471,-3.471,-3.4508,-3.3149,-3.1894,-3.1799,-2.9778,-2.766,-2.6409,-2.4969,-2.4105,-2.4105,-2.2662,-2.1505,-2.1308,-2.0727,-2.0136,-1.9355,-1.9256,-1.9256,-1.9256,-1.9256,-1.9256,-1.9256,-1.9256,-1.9256,-1.9256,-1.9256,-1.9256,-1.9256,-1.9256,-1.9256,0.0,0.0,0.0,0.0,0.0,0.0,0.0,0.0,0.0,0.0,0.0,0.0,0.0,0.0,0.0,0.0,0.0,0.0,0.0,0.0,0.0,0.0,-3.2778,-3.2778,-3.2778,-3.2778,-3.2778,-3.2778,-3.2778,-3.2778,-3.2778,-3.2778,-3.2822,-3.2954,-3.2968,-3.3115,-3.3436,-3.3451,-3.3597,-3.3919,-3.3934,-3.4095,-3.4417,-3.4417,-3.4519,-3.471,-3.471,-3.471,-3.471,-3.471,-3.471,-3.471,-3.471,-3.471,-3.471,-3.471,-3.471,-3.471,0.0,0.0,0.0,0.0,-3.471,-3.471,-3.471,-3.471,-3.471,-3.471,-3.471,-3.471,-3.471,-3.471,-3.471,-3.471,-3.471,-3.471,-3.471,-3.471,-3.471,-3.471,-3.471,-3.471,-3.471,-3.4024,-3.3351,-3.3351,-3.2191,0.0,-3.035,-2.7649,-2.5926,-2.6517,-2.4397,-2.2662,-2.276,-2.121,-1.9947,-1.9355,-1.9256,-1.9256,-1.9256,-1.9256,0.0,0.0,0.0,-1.9256,-1.9256,-1.9256,0.0,0.0,0.0,-1.9256,-1.9256,-1.9256,0.0,0.0,-1.9256,-1.9256,0.0,0.0,0.0,0.0,0.0,0.0,0.0,0.0,0.0,0.0,0.0,0.0,0.0,0.0,0.0,0.0,-3.2778,-3.2778,-3.2778,-3.2807,-3.2807,-3.2778,-3.2807,-3.2822,-3.2822,-3.2866,-3.2997,-3.3276,-3.3305,-3.3436,-3.3773,-3.3788,0.0,0.0,0.0,-3.4417,-3.4695,-3.471,-3.471,-3.471,-3.471,-3.471,-3.471,-3.471,-3.471,-3.471,-3.471,-3.471,-3.471,-3.471,-3.471,-3.471,-3.471,-3.471,-3.471,-3.471,-3.471,-3.471,-3.471,0.0,0.0,-3.471,-3.471,-3.471,-3.471,-3.471,-3.471,-3.471,-3.471,-3.471,-3.471,-3.471,-3.471,-3.471,-3.471,-3.471,-3.471,-3.471,-3.471,-3.471,-3.4414,-3.4212,-3.4212,-3.0445,-2.7745,-2.9014,-2.5733,-2.3716,-2.4979,-2.179,-1.9454,-1.9454,-1.9355,0.0,-1.9454,-1.9355,-1.9355,-1.9454,-1.9355,-1.9256,-1.9256,-1.9256,-1.9256,-1.9256,-1.9256,-1.9256,-1.9256,-1.9256,-1.9256,-1.9256,-1.9256,-1.9256,0.0,0.0,0.0,0.0,0.0,0.0,0.0,0.0,0.0,0.0,0.0,0.0,0.0,0.0,0.0,-3.2778,-3.2778,-3.2778,-3.2778,-3.2997,-3.3056,-3.2807,-3.2997,-3.3158,-3.3158,-3.3393,-3.3568,-3.3627,-3.3641,-3.3773,-3.411,-3.4124,-3.4271,-3.4592,-3.4607,-3.4636,-3.471,-3.471,-3.471,-3.471,-3.471,0.0,-3.471,-3.471,-3.471,-3.471,-3.471,-3.471,-3.471,-3.471,-3.471,-3.471,-3.471,-3.471,-3.471,-3.471,-3.471,-3.471,-3.471,-3.471,-3.471,-3.471,-3.471,-3.471,-3.471,-3.471,0.0,-3.471,-3.471,-3.471,-3.471,-3.471,-3.471,-3.471,-3.471,-3.471,-3.471,-3.471,-3.471,-3.471,-3.3041,-3.1583,-3.1583,-3.0445,-2.9313,-2.8727,-2.5862,-2.3648,-2.3062,-2.1505,-2.053,-2.053,-1.975,-1.9651,-2.0432,-1.975,-1.9651,-2.0432,-1.975,-1.9256,-1.9256,-1.9256,-1.9256,-1.9256,-1.9256,-1.9256,-1.9256,-1.9256,-1.9256,-1.9256,-1.9256,-1.9256,0.0,0.0,0.0,0.0,0.0,0.0,0.0,0.0,0.0,0.0,0.0,-3.2778,-3.2778,0.0,-3.2778,-3.2778,-3.291,-3.3012,-3.3012,-3.329,-3.3363,-3.3041,-3.329,-3.348,-3.348,-3.3627,-3.3802,-3.3963,-3.3978,-3.4124,-3.4446,-3.4461,-3.4534,-3.4695,-3.471,-3.471,-3.471,-3.471,-3.471,-3.471,-3.471,-3.471,-3.471,-3.471,-3.471,-3.471,-3.471,-3.471,-3.471,-3.471,-3.471,-3.471,-3.471,-3.471,-3.471,-3.471,-3.471,-3.471,-3.471,-3.471,-3.471,-3.471,-3.471,-3.471,-3.471,-3.471,-3.471,-3.471,-3.471,-3.471,-3.471,-3.471,-3.471,-3.471,-3.471,-3.471,-3.471,-3.471,-3.471,-3.471,-3.3055,-3.1597,-3.1597,-3.009,-2.856,-2.7468,-2.5163,-2.3248,-2.2476,-2.1505,-2.0826,-2.0826,-2.0826,-2.0826,-2.0826,-1.9849,-1.9553,-2.0046,-1.9553,-1.9256,-1.9256,-1.9256,-1.9256,-1.9256,-1.9256,-1.9256,-1.9256,-1.9256,-1.9256,-1.9256,-1.9256,-1.9256,0.0,0.0,0.0,0.0,0.0,0.0,0.0,-3.2778,-3.2778,-3.2778,-3.2778,-3.2778,-3.2778,-3.2822,-3.2866,-3.2866,-3.3129,-3.3334,-3.3334,-3.3627,-3.3729,-3.3466,-3.3671,-3.3832,-3.3832,-3.3875,-3.4036,-3.4285,-3.4314,-3.4432,-3.4695,-3.471,-3.471,-3.471,-3.471,-3.471,-3.471,-3.471,-3.471,-3.471,-3.471,-3.471,-3.471,-3.471,-3.471,-3.471,-3.471,-3.471,-3.471,-3.471,-3.471,-3.471,-3.471,-3.471,-3.471,-3.471,-3.471,-3.471,-3.471,-3.471,-3.471,-3.471,-3.471,-3.471,-3.471,-3.471,-3.471,-3.471,-3.471,-3.471,-3.471,-3.471,-3.471,-3.471,-3.471,-3.471,-3.471,-3.471,-3.471,-3.471,-3.3243,-3.2083,-3.2083,-2.9409,-2.6925,-2.6324,-2.4484,-2.3141,-2.276,-2.179,-2.121,-2.1406,-2.1799,-2.171,-2.0629,-1.9947,-1.9553,-1.9355,-1.9256,-1.9256,-1.9256,-1.9256,-1.9256,-1.9256,-1.9256,-1.9256,-1.9256,-1.9256,-1.9256,-1.9256,-1.9256,-1.9355,-3.2852,-3.2778,-3.2778,-3.2778,-3.2778,-3.2778,0.0,-3.2778,-3.2778,-3.2778,-3.2778,-3.2778,-3.2778,-3.2997,-3.3188,-3.3188,-3.3466,-3.3671,-3.3671,-3.3963,-3.4154,-3.411,-3.4139,-3.4168,-3.4168,-3.4432,-3.4607,-3.4651,-3.4651,-3.4666,-3.471,-3.471,-3.471,-3.471,-3.471,-3.471,-3.471,-3.471,-3.471,-3.471,-3.471,-3.471,-3.471,-3.471,-3.471,-3.471,-3.471,-3.471,-3.471,-3.471,-3.471,-3.471,-3.471,-3.471,-3.471,-3.471,-3.471,-3.471,-3.471,-3.471,-3.471,-3.471,-3.471,-3.471,-3.471,-3.471,-3.471,-3.471,-3.471,-3.471,-3.471,-3.471,-3.471,-3.471,-3.471,-3.471,-3.471,-3.471,-3.471,-3.471,-3.2664,-3.1002,-3.1002,-2.766,-2.527,-2.6045,-2.4903,-2.3853,-2.3853,-2.2877,-2.2583,-2.3561,-2.1995,-2.053,-1.9553,-2.0136,-2.0235,-1.9355,-1.9256,-1.9256,-1.9256,-1.9256,-1.9256,-1.9256,-1.9256,-1.9256,-1.9256,-1.9256,-1.9256,-1.9256,-1.9256,-1.975,-3.3117,-3.2778,-3.2778,-3.2778,-3.2778,-3.2778,-3.2778,-3.2778,-3.2778,-3.2778,-3.291,-3.3041,-3.3041,-3.3305,-3.3524,-3.3524,-3.3802,-3.4022,-3.4022,-3.43,-3.4505,-3.4505,-3.4505,-3.4505,-3.4505,-3.4622,-3.471,-3.471,-3.471,-3.471,-3.471,-3.471,-3.471,-3.471,-3.471,-3.471,-3.471,-3.471,-3.471,-3.471,-3.471,-3.471,-3.471,-3.471,-3.471,-3.471,-3.471,-3.471,-3.471,-3.471,-3.471,-3.471,-3.471,-3.471,-3.471,-3.471,-3.471,-3.471,-3.471,-3.471,-3.471,-3.471,-3.471,-3.471,-3.471,-3.471,-3.471,-3.471,-3.471,-3.471,-3.471,-3.471,-3.471,-3.471,-3.471,-3.471,-3.471,-3.471,-3.471,-3.471,-3.3055,-3.1691,-3.1691,-2.8823,-2.6636,-2.7021,-2.4806,-2.3072,-2.3072,-2.2681,-2.2583,-2.2974,-2.1701,-2.0629,-2.0235,-2.0046,-1.975,-1.9355,-1.9256,-1.9256,-1.9256,-1.9256,-1.9256,-1.9256,-1.9256,-1.9256,-1.9256,-1.9256,-1.9256,-1.9256,-1.9256,-1.9849,-3.3117,-3.2778,-3.2778,-3.2778,-3.2778,-3.2778,-3.2778,-3.2778,-3.2793,-3.288,-3.3085,-3.3276,-3.3363,-3.3641,-3.3861,-3.3861,-3.4139,-3.4358,-3.4358,-3.4549,-3.471,-3.471,-3.471,-3.471,-3.471,-3.471,-3.471,-3.471,-3.471,-3.471,-3.471,-3.471,-3.471,-3.471,-3.471,-3.471,-3.471,-3.471,-3.471,-3.471,-3.471,-3.471,-3.471,-3.471,-3.471,-3.471,-3.471,-3.471,-3.471,-3.471,-3.471,-3.471,-3.471,-3.471,-3.471,-3.471,-3.471,-3.471,-3.471,-3.471,-3.471,-3.471,-3.471,-3.471,-3.471,-3.471,-3.471,-3.471,-3.471,-3.471,-3.471,-3.471,-3.471,-3.471,-3.471,-3.471,-3.471,-3.471,-3.471,-3.471,-3.3836,-3.296,-3.2866,-3.0579,-2.8764,-2.8668,-2.5583,-2.317,-2.2877,-2.2583,-2.2289,-2.1995,-2.121,-2.0727,-2.0432,-1.975,-1.9256,-1.9256,-1.9256,-1.9256,-1.9256,-1.9256,-1.9256,-1.9256,-1.9256,-1.9256,-1.9256,-1.9256,-1.9256,-1.9264,-1.9305,-1.9916,-3.2763,-3.2778,-3.2778,-3.2778,-3.2778,-3.2778,-3.2778,-3.2778,-3.2851,-3.3158,-3.3142,-3.3349,-3.3656,-3.3978,-3.4197,-3.4197,-3.4475,-3.4695,-3.4695,-3.4695,-3.471,-3.471,-3.471,-3.471,-3.471,-3.471,-3.471,-3.471,-3.471,-3.471,-3.471,-3.471,-3.471,-3.471,-3.471,-3.471,-3.471,-3.471,-3.471,-3.471,-3.471,-3.471,-3.471,-3.471,-3.471,-3.471,-3.471,-3.471,-3.471,-3.471,-3.471,-3.471,-3.471,-3.471,-3.471,-3.471,-3.471,-3.471,-3.471,-3.471,-3.471,-3.471,-3.471,-3.471,-3.471,-3.471,-3.471,-3.471,-3.471,-3.471,-3.471,-3.471,-3.471,-3.471,-3.471,-3.471,-3.471,-3.471,-3.471,-3.471,-3.471,-3.4508,-3.3916,-3.2583,-3.1339,-3.0877,-2.7707,-2.5011,-2.4048,-2.3072,-2.1995,-2.0924,-2.0826,-2.0432,-1.9454,-1.9363,-1.9256,-1.9256,-1.9256,-1.9256,-1.9256,-1.9256,-1.9256,-1.9256,-1.9256,-1.9256,-1.9256,-1.9256,-1.9256,-1.9264,-1.9427,-2.01,-3.2778,-3.2778,-3.2778,-3.2778,-3.2778,-3.2778,-3.2778,-3.2939,-3.3115,-3.3217,-3.3583,-3.3919,-3.4036,-3.4314,-3.4549,-3.4549,-3.4636,-3.471,-3.471,-3.471,-3.471,-3.471,-3.471,-3.471,-3.471,-3.471,-3.471,-3.471,-3.471,-3.471,-3.471,-3.471,-3.471,-3.471,-3.471,-3.471,-3.471,-3.471,-3.471,-3.471,-3.471,-3.471,-3.471,-3.471,-3.471,-3.471,-3.471,-3.471,-3.471,-3.471,-3.471,-3.471,-3.471,-3.471,-3.471,-3.471,-3.471,-3.471,-3.471,-3.471,-3.471,-3.471,-3.471,-3.471,-3.471,-3.471,-3.471,-3.471,-3.471,-3.471,-3.471,-3.471,-3.471,-3.471,-3.471,-3.471,-3.471,-3.471,-3.471,-3.471,-3.4414,-3.4118,-3.3916,-3.2394,-3.0007,-2.6721,-2.5776,-2.4622,-2.2191,-2.1603,-2.0924,-1.9947,-1.9849,-1.9651,-1.9355,-1.9256,-1.9256,-1.9256,-1.9256,-1.9256,-1.9256,-1.9256,-1.9256,-1.9256,-1.9256,-1.9256,-1.9256,-1.937,-1.9427,-1.9435,-1.9613,-2.0301,-3.2778,-3.2778,-3.2778,-3.2778,-3.2778,-3.2807,-3.291,-3.31,-3.3305,-3.3539,-3.3919,-3.4256,-3.4373,-3.4563,-3.471,-3.471,-3.471,-3.471,-3.471,-3.471,-3.471,-3.471,-3.471,-3.471,-3.471,-3.471,-3.471,-3.471,-3.471,-3.471,-3.471,-3.471,-3.471,-3.471,-3.471,-3.471,-3.471,-3.471,-3.471,-3.471,-3.471,-3.471,-3.471,-3.471,-3.471,-3.471,-3.471,-3.471,-3.471,-3.471,-3.471,-3.471,-3.471,-3.471,-3.471,-3.471,-3.471,-3.471,-3.471,-3.471,-3.471,-3.471,-3.471,-3.471,-3.471,-3.471,-3.471,-3.471,-3.471,-3.471,-3.471,-3.471,-3.471,-3.471,-3.471,-3.471,-3.471,-3.471,-3.471,-3.471,-3.4414,-3.4103,-3.3916,-3.2677,-3.0388,-2.6431,-2.6624,-2.5475,-2.0817,-2.0915,-2.0817,-1.9454,-1.9256,-1.9256,-1.9256,-1.9256,-1.9256,-1.9256,-1.9256,-1.9256,-1.9256,-1.9256,-1.9256,-1.9256,-1.9321,-1.9354,-1.9354,-1.9524,-1.9613,-1.9613,-1.9792,-2.0493,-3.2778,-3.2778,-3.2778,-3.2778,-3.2778,-3.288,-3.3173,-3.3276,-3.3466,-3.4095,-3.4227,-3.4329,-3.4651,-3.471,-3.471,-3.471,-3.471,-3.471,-3.471,-3.471,-3.471,-3.471,-3.471,-3.471,-3.471,-3.471,-3.471,-3.471,-3.471,-3.471,-3.471,-3.471,-3.471,-3.471,-3.471,-3.471,-3.471,-3.471,-3.471,-3.471,-3.471,-3.471,-3.471,-3.471,-3.471,-3.471,-3.471,-3.471,-3.471,-3.471,-3.471,-3.471,-3.471,-3.471,-3.471,-3.471,-3.471,-3.471,-3.471,-3.471,-3.471,-3.471,-3.471,-3.471,-3.471,-3.471,-3.471,-3.471,-3.471,-3.471,-3.471,-3.471,-3.471,-3.471,-3.471,-3.471,-3.471,-3.471,-3.471,-3.471,-3.471,-3.4508,-3.3916,-3.3445,-3.23,-2.9695,-2.9778,-2.766,-2.0522,-2.1397,-2.1781,-1.9849,-1.9553,-1.9454,-1.9454,-1.9355,-1.9256,-1.9256,-1.9264,-1.9272,-1.9272,-1.9281,-1.9289,-1.9289,-1.9443,-1.9524,-1.9524,-1.9711,-1.9808,-1.9808,-1.9979,-2.0677,-3.2778,-3.2778,-3.2778,-3.2778,-3.2954,-3.3144,-3.3217,-3.3627,-3.4022,-3.4183,-3.4417,-3.4607,-3.4695,-3.471,-3.471,-3.471,-3.471,-3.471,-3.471,-3.471,-3.471,-3.471,-3.471,-3.471,-3.471,-3.471,-3.471,-3.471,-3.471,-3.471,-3.471,-3.471,-3.471,-3.471,-3.471,-3.471,-3.471,-3.471,-3.471,-3.471,-3.471,-3.471,-3.471,-3.471,-3.471,-3.471,-3.471,-3.471,-3.471,-3.471,-3.471,-3.471,-3.471,-3.471,-3.471,-3.471,-3.471,-3.471,-3.471,-3.471,-3.471,-3.471,-3.471,-3.471,-3.471,-3.471,-3.471,-3.471,-3.471,-3.471,-3.471,-3.471,-3.471,-3.471,-3.471,-3.471,-3.471,-3.471,-3.471,-3.471,-3.4414,-3.3836,-3.2974,-3.2974,-3.2205,-2.923,-3.0483,-2.9899,-2.4591,-2.4678,-2.4872,-2.4018,-2.2564,-2.1594,-2.1594,-2.0235,-1.9256,-1.9256,-1.9378,-1.9443,-1.9443,-1.9581,-1.9654,-1.9654,-1.9695,-1.9719,-1.9719,-1.9906,-1.9995,-2.0003,-2.0174,-2.087,-3.2778,-3.2778,-3.2807,-3.2939,-3.3115,-3.3319,-3.3612,-3.3949,-3.4256,-3.4402,-3.4578,-3.471,-3.471,-3.471,-3.471,-3.471,-3.471,-3.471,-3.471,-3.471,-3.471,-3.471,-3.471,-3.471,-3.471,-3.471,-3.471,-3.471,-3.471,-3.471,-3.471,-3.471,-3.471,-3.471,-3.471,-3.471,-3.471,-3.471,-3.471,-3.471,-3.471,-3.471,-3.471,-3.471,-3.471,-3.471,-3.471,-3.471,-3.471,-3.471,-3.471,-3.471,-3.471,-3.471,-3.471,-3.471,-3.471,-3.471,-3.471,-3.471,-3.471,-3.471,-3.471,-3.471,-3.471,-3.471,-3.471,-3.471,-3.471,-3.471,-3.471,-3.471,-3.471,-3.471,-3.471,-3.471,-3.471,-3.471,-3.4601,-3.4414,-3.393,-3.3445,-3.288,-3.2974,-3.2502,-3.0579,-3.1637,-3.169,-2.8813,-2.7754,-2.6806,-2.5658,-2.3628,-2.2788,-2.3856,-2.1129,-1.98,-2.0864,-2.0175,-1.963,-1.963,-1.9735,-1.9792,-1.9792,-1.9873,-1.9914,-1.9914,-2.0093,-2.0182,-2.0182,-2.0271,-2.0945,-3.2778,-3.2778,-3.2851,-3.3158,-3.3186,-3.3466,-3.408,-3.4256,-3.4358,-3.4651,-3.471,-3.471,-3.471,-3.471,-3.471,-3.471,-3.471,-3.471,-3.471,-3.471,-3.471,-3.471,-3.471,-3.471,-3.471,-3.471,-3.471,-3.471,-3.471,-3.471,-3.471,-3.471,-3.471,-3.471,-3.471,-3.471,-3.471,-3.471,-3.471,-3.471,-3.471,-3.471,-3.471,-3.471,-3.471,-3.471,-3.471,-3.471,-3.471,-3.471,-3.471,-3.471,-3.471,-3.471,-3.471,-3.471,-3.471,-3.471,-3.471,-3.471,-3.471,-3.471,-3.471,-3.471,-3.471,-3.471,-3.471,-3.471,-3.471,-3.471,-3.471,-3.471,-3.471,-3.471,-3.471,-3.471,-3.471,-3.471,-3.4616,-3.4161,-3.3705,-3.3341,-3.3289,-3.3303,-3.3114,-3.2531,-3.291,-3.2912,-3.2227,-3.044,-2.8428,-2.6629,-2.4587,-2.4082,-2.5743,-2.232,-2.0711,-2.258,-2.0917,-1.9825,-1.9825,-1.9849,-1.9857,-1.9857,-2.002,-2.0101,-2.0101,-2.0247,-2.032,-2.032,-2.0424,-2.1049,-3.2778,-3.2778,-3.2851,-3.3158,-3.3451,-3.3744,-3.4124,-3.4432,-3.4636,-3.4695,-3.471,-3.471,-3.471,-3.471,-3.471,-3.471,-3.471,-3.471,-3.471,-3.471,-3.471,-3.471,-3.471,-3.471,-3.471,-3.471,-3.471,-3.471,-3.471,-3.471,-3.471,-3.471,-3.471,-3.471,-3.471,-3.471,-3.471,-3.471,-3.471,-3.471,-3.471,-3.471,-3.471,-3.471,-3.471,-3.471,-3.471,-3.471,-3.471,-3.471,-3.471,-3.471,-3.471,-3.471,-3.471,-3.471,-3.471,-3.471,-3.471,-3.471,-3.471,-3.471,-3.471,-3.471,-3.471,-3.471,-3.471,-3.471,-3.471,-3.471,-3.471,-3.471,-3.471,-3.471,-3.471,-3.471,-3.471,-3.471,-3.4783,-3.4922,-3.4521,-3.4131,-3.3987,-3.3947,-3.3657,-3.2676,-3.2967,-3.3077,-3.2562,-3.2294,-3.1912,-3.1374,-2.9408,-2.765,-2.6209,-2.3927,-2.1857,-2.0486,-2.0135,-2.002,-2.002,-2.015,-2.0231,-2.0231,-2.0255,-2.0279,-2.0279,-2.0304,-2.032,-2.032,-2.1249,-2.1769,-3.2778,-3.2895,-3.31,-3.3422,-3.3744,-3.4066,-3.4402,-3.4592,-3.471,-3.471,-3.471,-3.471,-3.471,-3.471,-3.471,-3.471,-3.471,-3.471,-3.471,-3.471,-3.471,-3.471,-3.471,-3.471,-3.471,-3.471,-3.471,-3.471,-3.471,-3.471,-3.471,-3.471,-3.471,-3.471,-3.471,-3.471,-3.471,-3.471,-3.471,-3.471,-3.471,-3.471,-3.471,-3.471,-3.471,-3.471,-3.471,-3.471,-3.471,-3.471,-3.471,-3.471,-3.471,-3.471,-3.471,-3.471,-3.471,-3.471,-3.471,-3.471,-3.471,-3.471,-3.471,-3.471,-3.471,-3.471,-3.471,-3.471,-3.471,-3.471,-3.471,-3.471,-3.4739,-3.49,-3.5075,-3.5192,-3.5192,-3.5002,-3.476,-3.4617,-3.4166,-3.374,-3.3394,-3.3324,-3.274,-3.115,-3.1052,-3.0796,-2.9538,-2.9441,-3.0353,-3.235,-2.9652,-2.7821,-2.8058,-2.4063,-2.159,-2.1789,-2.0761,-2.0198,-2.0198,-2.0279,-2.032,-2.032,-2.032,-2.032,-2.032,-2.0945,-2.1145,-2.1258,-2.2288,-2.3117,-3.2851,-3.3056,-3.3334,-3.3729,-3.4022,-3.43,-3.4636,-3.471,-3.471,-3.471,-3.471,-3.471,-3.471,-3.471,-3.471,-3.471,-3.471,-3.471,-3.471,-3.471,-3.471,-3.471,-3.471,-3.471,-3.471,-3.471,-3.471,-3.471,-3.471,-3.471,-3.471,-3.471,-3.471,-3.471,-3.471,-3.471,-3.471,-3.471,-3.471,-3.471,-3.471,-3.471,-3.471,-3.471,-3.471,-3.471,-3.471,-3.471,-3.471,-3.471,-3.471,-3.471,-3.471,-3.471,-3.471,-3.471,-3.471,-3.471,-3.471,-3.471,-3.471,-3.471,-3.471,-3.471,-3.471,-3.471,-3.471,-3.471,-3.471,-3.4724,-3.4783,-3.4797,-3.4885,-3.5192,-3.5552,-3.5646,-3.555,-3.5164,-3.4792,-3.4268,-3.3699,-3.3336,-3.3013,-3.283,-3.2228,-3.0429,-2.9835,-2.8902,-2.7381,-2.6797,-2.7728,-3.1046,-2.8322,-2.6903,-2.831,-2.3779,-2.1406,-2.2779,-2.1249,-2.032,-2.032,-2.032,-2.032,-2.032,-2.0529,-2.0633,-2.0633,-2.1769,-2.2288,-2.2392,-2.3428,-2.4461,-3.3129,-3.3217,-3.3393,-3.4022,-3.4197,-3.43,-3.4636,-3.471,-3.471,-3.471,-3.471,-3.471,-3.471,-3.471,-3.471,-3.471,-3.471,-3.471,-3.471,-3.471,-3.471,-3.471,-3.471,-3.471,-3.471,-3.471,-3.471,-3.471,-3.471,-3.471,-3.471,-3.471,-3.471,-3.471,-3.471,-3.471,-3.471,-3.471,-3.471,-3.471,-3.471,-3.471,-3.471,-3.471,-3.471,-3.471,-3.471,-3.471,-3.471,-3.471,-3.471,-3.471,-3.471,-3.471,-3.471,-3.471,-3.471,-3.471,-3.471,-3.471,-3.471,-3.471,-3.471,-3.471,-3.471,-3.471,-3.471,-3.471,-3.471,-3.4768,-3.5046,-3.5119,-3.5192,-3.5625,-3.5713,-3.555,-3.5053,-3.4957,-3.485,-3.4549,-3.403,-3.3732,-3.3991,-3.3633,-3.3234,-3.302,-3.1403,-3.0093,-2.9915,-2.8065,-2.7036,-2.7421,-2.7116,-2.6106,-2.429,-2.3578,-2.2459,-2.0729,-2.0424,-2.032,-2.032,-2.032,-2.032,-2.032,-2.1353,-2.1873,-2.1873,-2.291,-2.3428,-2.3531,-2.4564,-2.5192,-3.3202,-3.3524,-3.389,-3.4154,-3.4358,-3.4549,-3.468,-3.471,-3.471,-3.471,-3.471,-3.471,-3.471,-3.471,-3.471,-3.471,-3.471,-3.471,-3.471,-3.471,-3.471,-3.471,-3.471,-3.471,-3.471,-3.471,-3.471,-3.471,-3.471,-3.471,-3.471,-3.471,-3.471,-3.471,-3.471,-3.471,-3.471,-3.471,-3.471,-3.471,-3.471,-3.471,-3.471,-3.471,-3.471,-3.471,-3.471,-3.471,-3.471,-3.471,-3.471,-3.471,-3.471,-3.471,-3.471,-3.471,-3.471,-3.471,-3.471,-3.471,-3.471,-3.471,-3.471,-3.471,-3.471,-3.471,-3.4739,-3.4929,-3.4973,-3.5046,-3.5368,-3.5588,-3.5763,-3.5895,-3.607,-3.6217,-3.5923,-3.5629,-3.5265,-3.49,-3.4333,-3.3977,-3.3787,-3.3514,-3.3,-3.168,-3.0772,-2.9748,-2.8416,-2.6261,-2.4936,-2.4936,-2.4936,-2.4525,-2.3709,-2.2374,-2.1249,-2.032,-2.032,-2.032,-2.032,-2.032,-2.032,-2.032,-2.1466,-2.1977,-2.1977,-2.3738,-2.4564,-2.4667,-2.5707,-2.6221,-3.348,-3.3875,-3.4241,-3.4344,-3.4534,-3.471,-3.471,-3.471,-3.471,-3.471,-3.471,-3.471,-3.471,-3.471,0.0,0.0,0.0,-3.471,-3.471,-3.471,-3.471,-3.471,-3.471,-3.471,-3.471,-3.471,-3.471,-3.471,-3.471,-3.471,-3.471,-3.471,-3.471,-3.471,-3.471,-3.471,-3.471,-3.471,-3.471,-3.471,-3.471,-3.471,-3.471,-3.471,-3.471,-3.471,-3.471,-3.471,-3.471,-3.471,-3.471,-3.471,-3.471,-3.471,-3.471,-3.471,-3.471,-3.471,-3.471,-3.471,-3.471,-3.471,-3.471,-3.4724,-3.4812,-3.4841,-3.4885,-3.509,-3.5295,-3.55,-3.5719,-3.6027,-3.6261,-3.6261,-3.6436,-3.6498,-3.6202,-3.5805,-3.5408,-3.4712,-3.4214,-3.3814,-3.3514,-3.3414,-3.2899,-3.1378,-3.0558,-2.9647,-2.8099,-2.5348,-2.3606,-2.3606,-2.2995,-2.2581,-2.2581,-2.1249,-2.032,-2.032,-2.032,-2.032,-2.032,-2.0633,-2.0841,-2.0841,-2.2184,-2.3014,-2.3014,-2.4564,-2.5501,-2.581,-2.6221,-2.6642,-3.4036,-3.4212,-3.43,-3.4622,-3.4695,-3.471,-3.471,-3.471,-3.471,-3.471,-3.471,-3.471,-3.471,-3.471,-3.471,0.0,0.0,0.0,-3.471,-3.471,-3.471,-3.471,-3.471,-3.471,-3.471,-3.471,-3.471,-3.471,-3.471,-3.471,-3.471,-3.471,-3.471,-3.471,-3.471,-3.471,-3.471,-3.471,-3.471,-3.471,-3.471,-3.471,-3.471,-3.471,-3.471,-3.471,-3.471,-3.471,-3.471,-3.471,-3.471,-3.471,-3.471,-3.471,-3.471,-3.471,-3.471,-3.471,-3.471,-3.471,-3.471,-3.471,-3.471,-3.4768,-3.5061,-3.5149,-3.5149,-3.5163,-3.5617,-3.6114,-3.6114,-3.6348,-3.6597,-3.6597,-3.6597,-3.6301,-3.521,-3.5011,-3.4712,-3.3614,-3.3414,-3.3414,-3.3414,-3.3414,-3.3414,-3.3414,-3.158,-3.0153,-3.0153,-2.6271,-2.3606,-2.3606,-2.1656,-2.032,-2.032,-2.032,-2.032,-2.032,-2.032,-2.032,-2.032,-2.1362,-2.1977,-2.1977,-2.4151,-2.5295,-2.5295,-2.5295,-2.581,-2.6847,-2.581,-2.5913,-3.4168,-3.4388,-3.4578,-3.468,-3.471,-3.471,-3.471,-3.471,-3.471,-3.471,-3.471,-3.471,-3.471,-3.471,-3.471,0.0,0.0,0.0,-3.471,-3.471,-3.471,-3.471,-3.471,-3.471,-3.471,-3.471,-3.471,-3.471,-3.471,-3.471,-3.471,-3.471,-3.471,-3.471,-3.471,-3.471,-3.471,-3.471,-3.471,-3.471,-3.471,-3.471,-3.471,-3.471,-3.471,-3.471,-3.471,-3.471,-3.471,-3.471,-3.471,-3.471,-3.471,-3.471,-3.471,-3.471,-3.471,-3.471,-3.471,-3.471,-3.471,-3.471,-3.4841,-3.5031,-3.5149,-3.5178,-3.5251,-3.569,-3.6114,-3.6451,-3.6451,-3.6524,-3.6498,-3.6103,-3.6004,-3.5905,-3.511,-3.4712,-3.4313,-3.4014,-3.3614,-3.3414,-3.3414,-3.3414,-3.3414,-3.3414,-3.2799,-3.2397,-3.2397,-2.9837,-2.7498,-2.6056,-2.3916,-2.1968,-2.0424,-2.032,-2.032,-2.032,-2.1049,-2.1466,-2.1466,-2.2495,-2.2703,-2.1977,-2.3428,-2.4151,-2.4151,-2.4883,-2.581,-2.6847,-2.654,-2.654,-3.4402,-3.5093,-3.56,-3.4882,-3.471,-3.471,-3.471,-3.471,-3.471,-3.471,-3.471,-3.471,-3.471,-3.471,-3.471,-3.471,-3.471,-3.471,-3.471,-3.471,-3.471,-3.471,-3.471,-3.471,-3.471,-3.471,-3.471,-3.471,-3.471,-3.471,-3.471,-3.471,-3.471,-3.471,-3.471,-3.471,-3.471,-3.471,-3.471,-3.471,-3.471,-3.471,-3.471,-3.471,-3.471,-3.471,-3.471,-3.471,0.0,-3.471,-3.471,-3.471,-3.471,-3.471,-3.471,-3.471,-3.471,-3.471,-3.471,-3.471,-3.4724,-3.4841,-3.5178,-3.5514,-3.5544,-3.5529,-3.5631,-3.6158,-3.6451,-3.6597,-3.6597,-3.6597,-3.6498,-3.5905,-3.5805,-3.5607,-3.4911,-3.4413,-3.4114,-3.3914,-3.3614,-3.3414,-3.3414,-3.3414,-3.3414,-3.3414,-3.3414,-3.3414,-3.3414,-3.1479,-2.9647,-2.8303,-2.545,-2.2995,-2.1656,-2.0729,-2.032,-2.032,-2.0945,-2.1353,-2.1353,-2.2392,-2.2703,-2.1977,-2.3428,-2.4254,-2.4254,-2.5398,-2.6016,-2.6334,-2.6745,-2.695,0.0,-3.6143,-3.6945,-3.5163,-3.471,-3.471,-3.471,-3.471,0.0,-3.471,-3.471,-3.471,-3.471,-3.471,-3.471,-3.471,-3.471,-3.471,-3.471,-3.471,-3.471,-3.471,-3.471,-3.471,-3.471,-3.471,-3.471,-3.471,-3.471,-3.471,-3.471,-3.471,-3.471,-3.471,-3.471,-3.471,-3.471,-3.471,-3.471,-3.471,-3.471,-3.471,-3.471,-3.471,-3.471,-3.471,-3.471,-3.471,-3.471,-3.471,-3.471,-3.471,-3.471,-3.471,-3.471,-3.471,-3.471,-3.471,-3.471,-3.4724,-3.4797,-3.5149,-3.5646,-3.6114,-3.6144,-3.6158,-3.6217,-3.6524,-3.6597,-3.6597,-3.6597,-3.6597,-3.6498,-3.5905,-3.5805,-3.5508,-3.4413,-3.4214,-3.4014,-3.3514,-3.3414,-3.3414,-3.3414,-3.3414,-3.3414,-3.3414,-3.3414,-3.3414,-3.3414,-3.168,-3.0356,-3.0254,-2.6476,-2.3916,-2.3606,-2.1552,-2.032,-2.032,-2.0424,-2.0424,-2.0424,-2.1457,-2.208,-2.208,-2.4254,-2.5295,-2.5295,-2.6334,-2.6437,-2.5398,-2.6437,-2.695,0.0,0.0,-3.5241,-3.4789,-3.471,-3.471,0.0,-3.471,-3.471,-3.471,-3.471,-3.471,-3.471,-3.471,-3.471,-3.471,-3.471,-3.471,-3.471,-3.471,-3.471,-3.471,-3.471,-3.471,-3.471,-3.471,-3.471,-3.471,-3.471,-3.471,-3.471,-3.471,-3.471,-3.471,-3.471,-3.471,-3.471,-3.471,-3.471,-3.471,-3.471,-3.471,-3.471,-3.471,-3.471,-3.471,-3.471,-3.471,-3.471,-3.471,-3.471,-3.471,-3.471,-3.471,-3.471,-3.471,-3.471,-3.471,-3.471,-3.4856,-3.5149,-3.5719,-3.5997,-3.6158,-3.6407,-3.6495,-3.6509,-3.6583,-3.6597,-3.6597,-3.6597,-3.6597,-3.6498,-3.5905,-3.5508,-3.5011,-3.4313,-3.3914,-3.3514,-3.3414,-3.3414,-3.3414,-3.3414,-3.3414,-3.3414,-3.3414,-3.3414,-3.3414,-3.3414,-3.3,-3.1982,-3.0368,-2.9241,-2.7294,-2.3916,-2.1552,-2.032,-2.032,-2.1154,-2.1561,-2.1561,-2.2599,-2.3221,-2.3221,-2.4564,-2.5295,-2.5295,-2.6334,-2.6745,-2.654,-2.6745,-2.695,-3.8219,-3.6869,-3.5786,-3.4882,-3.471,-3.471,-3.471,-3.471,-3.471,-3.471,-3.471,-3.471,-3.471,-3.471,-3.471,-3.471,-3.471,-3.471,-3.471,-3.471,-3.471,-3.471,-3.471,-3.471,-3.471,-3.471,-3.471,-3.471,-3.471,-3.471,-3.471,-3.471,-3.471,-3.471,-3.471,-3.471,-3.471,-3.471,-3.471,-3.471,-3.471,-3.471,-3.471,-3.471,-3.471,-3.471,-3.471,-3.471,-3.471,-3.471,-3.471,-3.471,-3.471,-3.471,-3.471,-3.471,-3.471,-3.4724,-3.4871,-3.5207,-3.5661,-3.5997,-3.6217,-3.6378,-3.6553,-3.6597,-3.6597,-3.6597,-3.6597,-3.6597,-3.6597,-3.6597,-3.6498,-3.5905,-3.5607,-3.521,-3.4712,-3.4114,-3.3814,-3.3814,-3.3614,-3.3414,-3.3414,-3.3414,-3.3414,-3.3414,-3.3414,-3.3414,-3.3414,-3.3414,-3.3,-3.1781,-3.0772,-2.9241,-2.6783,-2.3709,-2.1353,-2.032,-2.0841,-2.1249,-2.1249,-2.2288,-2.3324,-2.4358,-2.4986,-2.5501,-2.6016,-2.6642,-2.695,-2.695,-2.695,-2.6642,-3.7667,-3.7407,-3.6776,-3.5069,-3.471,-3.471,-3.471,-3.471,-3.471,-3.471,-3.471,-3.471,-3.471,-3.471,-3.471,-3.471,-3.471,-3.471,-3.471,-3.471,-3.471,-3.471,-3.471,-3.471,-3.471,-3.471,-3.471,-3.471,-3.471,-3.471,-3.471,-3.471,-3.471,-3.471,-3.471,-3.471,-3.471,-3.471,-3.471,-3.471,-3.471,-3.471,-3.471,-3.471,-3.471,-3.471,-3.471,-3.471,-3.471,-3.471,-3.471,-3.471,-3.471,-3.471,-3.471,-3.471,-3.4739,-3.4827,-3.5178,-3.5661,-3.6129,-3.6173,-3.6378,-3.6597,-3.6597,-3.6597,-3.6597,-3.6597,-3.6597,-3.6597,-3.6597,-3.6597,-3.6498,-3.6004,-3.5805,-3.5508,-3.511,-3.4513,-3.4114,-3.4114,-3.3714,-3.3414,-3.3414,-3.3414,-3.3414,-3.3414,-3.3414,-3.3414,-3.3414,-3.31,-3.3,-3.3414,-3.1164,-2.9748,-2.9748,-2.5964,-2.2685,-2.0424,-2.032,-2.0424,-2.0529,-2.1457,-2.291,-2.4986,-2.5192,-2.5707,-2.6642,-2.6847,-2.695,-2.695,-2.6745,-2.6221,-3.8035,-3.6421,-3.5069,-3.4789,-3.471,-3.471,-3.471,-3.471,-3.471,-3.471,-3.471,-3.471,-3.471,-3.471,-3.471,-3.471,-3.471,-3.471,-3.471,-3.471,-3.471,-3.471,-3.471,-3.471,-3.471,-3.471,-3.471,-3.471,-3.471,-3.471,-3.471,-3.471,-3.471,-3.471,-3.471,-3.471,-3.471,-3.471,-3.471,-3.471,-3.471,-3.471,-3.471,-3.471,-3.471,-3.471,-3.471,-3.471,-3.471,-3.471,-3.471,-3.471,-3.471,-3.471,-3.471,-3.471,-3.4871,-3.5178,-3.5763,-3.6027,-3.6158,-3.6436,-3.6568,-3.6597,-3.6597,-3.6597,-3.6597,-3.6597,-3.6597,-3.6597,-3.6597,-3.6597,-3.6612,-3.6498,-3.5805,-3.511,-3.5011,-3.4214,-3.3514,-3.3514,-3.3414,-3.3414,-3.3414,-3.3414,-3.3414,-3.3414,-3.3414,-3.3414,-3.3414,-3.1781,-3.1378,-3.3213,-2.9837,-2.7385,-2.7385,-2.5039,-2.2685,-2.0424,-2.032,-2.0737,-2.1665,-2.1873,-2.2599,-2.3841,-2.478,-2.5398,-2.5501,-2.6437,-2.695,-2.6847,-2.6016,-2.5913,-3.6266,-3.5066,-3.449,-3.4666,-3.471,-3.471,-3.471,-3.471,-3.471,-3.471,-3.471,-3.471,-3.471,-3.471,-3.471,-3.471,-3.471,-3.471,-3.471,-3.471,-3.471,-3.471,-3.471,-3.471,-3.471,-3.471,-3.471,-3.471,-3.471,-3.471,-3.471,-3.471,-3.471,-3.471,-3.471,-3.471,-3.471,-3.471,-3.471,-3.471,-3.471,-3.471,-3.471,-3.471,-3.471,-3.471,-3.471,-3.471,-3.471,-3.471,-3.471,-3.471,-3.471,-3.471,-3.4724,-3.4885,-3.5251,-3.5719,-3.6012,-3.6231,-3.6407,-3.6553,-3.6597,-3.6597,-3.6597,-3.6597,-3.6597,-3.6597,-3.6597,-3.6597,-3.6597,-3.64,-3.6202,-3.6202,-3.5607,-3.5011,-3.5011,-3.4413,-3.3814,-3.3814,-3.3614,-3.3414,-3.3414,-3.3414,-3.3414,-3.3414,-3.2397,-3.168,-3.168,-2.9736,-2.8811,-2.9724,-2.8099,-2.6875,-2.6875,-2.4834,-2.2685,-2.0424,-2.032,-2.0841,-2.1977,-2.1977,-2.2806,-2.4461,-2.4986,-2.5604,-2.6118,-2.6642,-2.6642,-2.6016,-2.6118,-2.581,-3.4572,-3.411,-3.4183,-3.4505,-3.4651,-3.471,-3.471,-3.471,-3.471,-3.471,-3.471,-3.471,-3.471,-3.471,-3.471,-3.471,-3.471,-3.471,-3.471,-3.471,-3.471,-3.471,-3.471,-3.471,-3.471,-3.471,-3.471,-3.471,-3.471,-3.471,-3.471,-3.471,-3.471,-3.471,-3.471,-3.471,-3.471,-3.471,-3.471,-3.471,-3.471,-3.471,-3.471,-3.471,-3.471,-3.471,-3.471,-3.471,-3.471,-3.471,-3.471,-3.471,-3.471,-3.4753,-3.4856,-3.5236,-3.569,-3.6129,-3.6202,-3.6392,-3.6597,-3.6597,-3.6597,-3.6597,-3.6597,-3.6498,-3.64,-3.64,-3.6301,-3.6202,-3.64,-3.6004,-3.5607,-3.5607,-3.521,-3.4812,-3.4812,-3.4413,-3.4014,-3.4014,-3.3714,-3.3414,-3.3414,-3.3414,-3.3414,-3.3414,-3.158,-3.0153,-3.0153,-2.7793,-2.6363,-2.6875,-2.5953,-2.5338,-2.5338,-2.3813,-2.2072,-2.0424,-2.032,-2.0841,-2.1977,-2.1769,-2.2599,-2.4883,-2.4883,-2.5295,-2.6118,-2.6426,-2.6118,-2.5295,-2.5913,-2.5501,-3.429,-3.3773,-3.3846,-3.4168,-3.4475,-3.471,-3.471,-3.471,-3.471,-3.471,-3.471,-3.471,-3.471,-3.471,-3.471,-3.471,-3.471,-3.471,-3.471,-3.471,-3.471,-3.471,-3.471,-3.471,-3.471,-3.471,-3.471,-3.471,-3.471,-3.471,-3.471,-3.471,-3.471,-3.471,-3.471,-3.471,-3.471,-3.471,-3.471,-3.471,-3.471,-3.471,-3.471,-3.471,-3.471,-3.471,-3.471,-3.471,-3.471,-3.471,-3.471,-3.471,-3.471,-3.4871,-3.5192,-3.5822,-3.607,-3.6158,-3.6466,-3.6583,-3.6597,-3.6597,-3.6597,-3.6597,-3.6597,-3.6202,-3.5905,-3.5905,-3.5508,-3.521,-3.5706,-3.5508,-3.511,-3.511,-3.4612,-3.4313,-3.4313,-3.3814,-3.3414,-3.3414,-3.3414,-3.3414,-3.3414,-3.3414,-3.3414,-3.3414,-3.158,-3.0153,-3.0153,-2.6476,-2.4628,-2.667,-2.3193,-2.0729,-2.0729,-2.0625,-2.0424,-2.032,-2.032,-2.0841,-2.1977,-2.0945,-2.1457,-2.3635,-2.3738,-2.3738,-2.3841,-2.4883,-2.5398,-2.5295,-2.4254,-2.4873,-3.5289,-3.5172,-3.4906,-3.4105,-3.4007,-3.4212,-3.4607,-3.471,-3.471,-3.471,-3.471,-3.471,-3.471,-3.471,-3.471,-3.471,-3.471,-3.471,-3.471,-3.471,-3.471,-3.471,-3.471,-3.471,-3.471,-3.471,-3.471,-3.471,-3.471,-3.471,-3.471,-3.471,-3.471,-3.471,-3.471,-3.471,-3.471,-3.471,-3.471,-3.471,-3.471,-3.471,-3.471,-3.471,-3.471,-3.471,-3.471,-3.471,-3.471,-3.471,-3.471,-3.4724,-3.4914,-3.531,-3.5792,-3.6027,-3.6246,-3.6436,-3.6553,-3.6597,-3.6597,-3.6597,-3.6597,-3.6498,-3.6202,-3.6004,-3.5706,-3.5408,-3.4911,-3.4612,-3.521,-3.4911,-3.4513,-3.4513,-3.4114,-3.3714,-3.3714,-3.3514,-3.3414,-3.3414,-3.3414,-3.3414,-3.3414,-3.3414,-3.3414,-3.3414,-3.0445,-2.8099,-2.8099,-2.4319,-2.1864,-2.2676,-2.1345,-2.032,-2.032,-2.032,-2.032,-2.032,-2.032,-2.0529,-2.0945,-2.1258,-2.208,-2.3531,-2.3635,-2.3945,-2.4667,-2.5089,-2.4986,-2.4264,-2.4702,-2.528,-3.562,-3.542,-3.4733,-3.3751,-3.3583,-3.3744,-3.4402,-3.4549,-3.4578,-3.468,-3.471,-3.471,-3.471,-3.471,-3.471,-3.471,-3.471,-3.471,-3.471,-3.471,-3.471,-3.471,-3.471,-3.471,-3.471,-3.471,-3.471,-3.471,-3.471,-3.471,-3.471,-3.471,-3.471,-3.471,-3.471,-3.471,-3.471,-3.471,-3.471,-3.471,-3.471,-3.471,-3.471,-3.471,-3.471,-3.471,-3.471,-3.471,-3.471,-3.471,-3.4768,-3.4885,-3.5295,-3.5734,-3.6129,-3.6231,-3.6407,-3.6597,-3.6597,-3.6597,-3.6597,-3.6597,-3.6498,-3.6301,-3.5905,-3.5706,-3.5508,-3.511,-3.4712,-3.4513,-3.4712,-3.4313,-3.3914,-3.3914,-3.3714,-3.3414,-3.3414,-3.3414,-3.3414,-3.3414,-3.3414,-3.3414,-3.3414,-3.3414,-3.3414,-3.3414,-3.0242,-2.7895,-2.7895,-2.4113,-2.1041,-2.032,-2.032,-2.032,-2.032,-2.032,-2.032,-2.032,-2.032,-2.032,-2.032,-2.1041,-2.1977,-2.3117,-2.3117,-2.3635,-2.478,-2.484,-2.4455,-2.3729,-2.5087,-2.5511,-3.5003,-3.4143,-3.2851,-3.3158,-3.3246,-3.3407,-3.4066,-3.4212,-3.43,-3.4636,-3.4695,-3.471,-3.471,-3.471,-3.471,-3.471,-3.471,-3.471,-3.471,-3.471,-3.471,-3.471,-3.471,-3.471,-3.471,-3.471,-3.471,-3.471,-3.471,-3.471,-3.471,-3.471,-3.471,-3.471,-3.471,-3.471,-3.471,-3.471,-3.471,-3.471,-3.471,-3.471,-3.471,-3.471,-3.471,-3.471,-3.471,-3.471,-3.471,-3.471,-3.4885,-3.5222,-3.5866,-3.6114,-3.6158,-3.648,-3.6597,-3.6597,-3.6597,-3.6597,-3.6597,-3.6597,-3.6202,-3.5805,-3.5805,-3.5408,-3.5011,-3.5011,-3.5011,-3.4911,-3.4313,-3.3814,-3.3414,-3.3414,-3.3414,-3.3414,-3.3414,-3.3414,-3.3414,-3.3414,-3.3414,-3.3414,-3.3414,-3.3414,-3.3414,-3.3414,-3.158,-3.0153,-3.0153,-2.6271,-2.2685,-2.0529,-2.032,-2.032,-2.032,-2.032,-2.032,-2.032,-2.032,-2.032,-2.032,-2.032,-2.0841,-2.1985,-2.1985,-2.2495,-2.3644,-2.3842,-2.3937,-2.3937,-2.5315,-2.5308,-3.5352,-3.509,-3.4437,-3.3235,-3.291,-3.3027,-3.3436,-3.3715,-3.3963,-3.43,-3.4549,-3.471,-3.471,-3.471,-3.471,-3.471,-3.471,-3.471,-3.471,-3.471,-3.471,-3.471,-3.471,-3.471,-3.471,-3.471,-3.471,-3.471,-3.471,-3.471,-3.471,-3.471,-3.471,-3.471,-3.471,-3.471,-3.471,-3.471,-3.471,-3.471,-3.471,-3.471,-3.471,-3.471,-3.471,-3.471,-3.471,-3.471,-3.4724,-3.4929,-3.5207,-3.564,-3.5953,-3.6261,-3.6466,-3.6568,-3.6597,-3.6597,-3.6597,-3.6597,-3.6597,-3.6597,-3.6498,-3.6301,-3.5905,-3.5706,-3.5508,-3.511,-3.4712,-3.4413,-3.4214,-3.3814,-3.3414,-3.3414,-3.3414,-3.3414,-3.3414,-3.3414,-3.3414,-3.3414,-3.3414,-3.3414,-3.3414,-3.3414,-3.3414,-3.3414,-3.158,-2.9026,-2.5964,-2.3099,-2.1041,-2.032,-2.032,-2.032,-2.032,-2.032,-2.0377,-2.0507,-2.0515,-2.0458,-2.0328,-2.1049,-2.1734,-2.2083,-2.2188,-2.2774,-2.4079,-2.329,-2.3731,-2.5315,-2.4265,-2.4904,-3.5265,-3.5003,-3.4143,-3.3029,-3.2778,-3.2822,-3.3012,-3.351,-3.3978,-3.4183,-3.4475,-3.471,-3.471,-3.471,-3.471,-3.471,-3.471,-3.471,-3.471,-3.471,-3.471,-3.471,-3.471,-3.471,-3.471,-3.471,-3.471,-3.471,-3.471,-3.471,-3.471,-3.471,-3.471,-3.471,-3.471,-3.471,-3.471,-3.471,-3.471,-3.471,-3.471,-3.471,-3.471,-3.471,-3.471,-3.471,-3.471,-3.4768,-3.4914,-3.5222,-3.5544,-3.5866,-3.6187,-3.6436,-3.6597,-3.6597,-3.6597,-3.6597,-3.6597,-3.6597,-3.6597,-3.6597,-3.6498,-3.6202,-3.5905,-3.5805,-3.5706,-3.511,-3.4911,-3.4712,-3.4313,-3.4014,-3.3714,-3.3414,-3.3414,-3.3414,-3.3414,-3.3414,-3.3414,-3.3414,-3.3414,-3.3414,-3.3414,-3.3414,-3.3414,-3.3414,-3.158,-2.8924,-2.5348,-2.306,-2.1351,-2.053,-2.0491,-2.0531,-2.0531,-2.0531,-2.058,-2.0694,-2.0702,-2.0645,-2.0531,-2.1163,-2.1635,-2.1648,-2.1648,-2.2548,-2.4258,-2.3161,-2.3625,-2.5436,-2.4697,-2.4693,-3.4844,-3.4071,-3.2778,-3.2778,-3.2778,-3.2778,-3.2778,-3.348,-3.4139,-3.4168,-3.4432,-3.4666,-3.4695,-3.471,-3.471,-3.471,-3.471,-3.471,-3.471,-3.471,-3.471,-3.471,-3.471,-3.471,-3.471,-3.471,-3.471,-3.471,-3.471,-3.471,-3.471,-3.471,-3.471,-3.471,-3.471,-3.471,-3.471,-3.471,-3.471,-3.471,-3.471,-3.471,-3.471,-3.471,-3.471,-3.471,-3.4739,-3.49,-3.5192,-3.564,-3.5851,-3.6144,-3.648,-3.6597,-3.6597,-3.6597,-3.6597,-3.6597,-3.6597,-3.6597,-3.6597,-3.6597,-3.6301,-3.5905,-3.5905,-3.5805,-3.5706,-3.521,-3.5309,-3.5408,-3.4413,-3.4214,-3.4014,-3.3514,-3.3414,-3.3414,-3.3414,-3.3414,-3.3414,-3.3414,-3.3414,-3.3314,-3.31,-3.3126,-3.3052,-3.2865,-3.1036,-2.8892,-2.6939,-2.4855,-2.2906,-2.0824,-2.0759,-2.0856,-2.0856,-2.0856,-2.0864,-2.088,-2.088,-2.0889,-2.0897,-2.0872,-2.0864,-2.088,-2.088,-2.1951,-2.4209,-2.3314,-2.3512,-2.4589,-2.5752,-2.4645,-3.3293,-3.3117,-3.2778,-3.2778,-3.2778,-3.2778,-3.2778,-3.3129,-3.3524,-3.3788,-3.4095,-3.4402,-3.4651,-3.471,-3.471,-3.471,-3.471,-3.471,-3.471,-3.471,-3.471,-3.471,-3.471,-3.471,-3.471,-3.471,-3.471,-3.471,-3.471,-3.471,-3.471,-3.471,-3.471,-3.471,-3.471,-3.471,-3.471,-3.471,-3.471,-3.471,-3.471,-3.471,-3.471,-3.471,-3.471,-3.471,-3.4958,-3.509,-3.5207,-3.5778,-3.6056,-3.6144,-3.648,-3.6597,-3.6597,-3.6597,-3.6597,-3.6597,-3.6597,-3.6597,-3.6597,-3.6597,-3.6498,-3.64,-3.64,-3.6103,-3.5805,-3.5706,-3.511,-3.4513,-3.4313,-3.3914,-3.3514,-3.3414,-3.3414,-3.3414,-3.3414,-3.3414,-3.3414,-3.3414,-3.3414,-3.2899,-3.1176,-3.0932,-3.0515,-2.8951,-2.6797,-2.5246,-2.472,-2.2875,-2.1324,-2.0906,-2.0832,-2.0856,-2.0856,-2.0856,-2.0913,-2.1059,-2.1067,-2.1124,-2.1254,-2.1002,-2.0921,-2.1067,-2.1067,-2.1782,-2.3331,-2.3158,-2.3611,-2.4816,-2.4201,-2.4437,-3.2778,-3.2778,-3.2778,-3.2778,-3.2778,-3.2778,-3.2778,-3.2895,-3.31,-3.3436,-3.3875,-3.4271,-3.4446,-3.4592,-3.471,-3.471,-3.471,-3.471,-3.471,-3.471,-3.471,-3.471,-3.471,-3.471,-3.471,-3.471,-3.471,-3.471,-3.471,-3.471,-3.471,-3.471,-3.471,-3.471,-3.471,-3.471,-3.471,-3.471,-3.471,-3.471,-3.471,-3.471,-3.471,-3.471,-3.4783,-3.4929,-3.509,-3.5339,-3.5646,-3.5983,-3.6217,-3.6363,-3.6539,-3.6597,-3.6597,-3.6597,-3.6597,-3.6597,-3.6597,-3.6597,-3.6597,-3.6597,-3.6414,-3.6202,-3.6202,-3.5805,-3.5408,-3.511,-3.4723,-3.4346,-3.4144,-3.3936,-3.3841,-3.3841,-3.3627,-3.3454,-3.3601,-3.3641,-3.3681,-3.3814,-3.2914,-3.1882,-3.0744,-2.9709,-2.8569,-2.7553,-2.548,-2.4124,-2.4124,-2.2306,-2.0986,-2.0986,-2.1059,-2.1108,-2.1108,-2.1108,-2.1148,-2.1246,-2.1246,-2.1295,-2.1384,-2.1205,-2.1148,-2.1246,-2.1246,-2.1824,-2.3128,-2.2581,-2.3137,-2.4882,-2.4228,-2.4873,-3.2778,-3.2778,-3.2778,-3.2778,-3.2778,-3.2778,-3.2778,-3.2778,-3.2851,-3.3115,-3.3641,-3.408,-3.4197,-3.4432,-3.4636,-3.4695,-3.471,-3.471,-3.471,-3.471,-3.471,-3.471,-3.471,-3.471,-3.471,-3.471,-3.471,-3.471,-3.471,-3.471,-3.471,-3.471,-3.471,-3.471,-3.471,-3.471,-3.471,-3.471,-3.471,-3.471,-3.471,-3.471,-3.471,-3.4753,-3.4914,-3.5163,-3.5222,-3.5573,-3.6114,-3.6173,-3.6363,-3.6597,-3.6597,-3.6597,-3.6597,-3.6597,-3.6597,-3.6597,-3.6597,-3.6597,-3.6612,-3.6498,-3.6202,-3.5805,-3.5706,-3.5351,-3.4895,-3.4396,-3.4427,-3.4571,-3.4063,-3.4135,-3.4322,-3.4322,-3.3935,-3.3641,-3.3908,-3.3961,-3.4028,-3.4269,-3.2116,-3.0338,-3.0385,-2.807,-2.628,-2.6321,-2.4856,-2.3588,-2.3588,-2.2139,-2.1173,-2.1173,-2.1295,-2.1384,-2.1384,-2.1384,-2.1384,-2.1384,-2.1384,-2.1384,-2.1384,-2.1384,-2.1384,-2.1384,-2.1384,-2.1823,-2.2808,-2.2034,-2.2581,-2.4337,-2.4882,-2.5634,-3.2778,-3.2778,-3.2778,-3.2778,-3.2778,-3.2778,-3.2778,-3.2778,-3.2778,-3.2822,-3.3129,-3.3554,-3.411,-3.4256,-3.4373,-3.4666,-3.471,-3.471,-3.471,-3.471,-3.471,-3.471,-3.471,-3.471,-3.471,-3.471,-3.471,-3.471,-3.471,-3.471,-3.471,-3.471,-3.471,-3.471,-3.471,-3.471,-3.471,-3.471,-3.471,-3.471,-3.471,-3.471,-3.471,-3.4973,-3.5119,-3.5178,-3.5552,-3.5778,-3.6144,-3.6422,-3.6568,-3.6597,-3.6597,-3.6597,-3.6597,-3.6597,-3.6597,-3.6597,-3.6597,-3.6597,-3.6498,-3.6103,-3.5905,-3.5706,-3.521,-3.4906,-3.4739,-3.4638,-3.4551,-3.4371,-3.4255,-3.4295,-3.4322,-3.4322,-3.4255,-3.4215,-3.4255,-3.4269,-3.4269,-3.4309,-3.095,-2.8081,-2.8289,-2.4709,-2.1991,-2.2151,-2.1958,-2.1732,-2.1732,-2.1546,-2.1343,-2.1343,-2.136,-2.1384,-2.1384,-2.1384,-2.1384,-2.1384,-2.1384,-2.1384,-2.1384,-2.1384,-2.1384,-2.1384,-2.1384,-2.1494,-2.1595,-2.2463,-2.2581,-2.1932,-2.4962,-2.5949,-3.2778,-3.2778,-3.2778,-3.2778,-3.2778,-3.2778,-3.2778,-3.2778,-3.2778,-3.2778,-3.288,-3.3115,-3.3583,-3.3978,-3.4271,-3.4402,-3.4592,-3.471,-3.471,-3.471,-3.471,-3.471,-3.471,-3.471,-3.471,-3.471,-3.471,-3.471,-3.471,-3.471,-3.471,-3.471,-3.471,-3.471,-3.471,-3.471,-3.471,-3.471,-3.471,-3.471,-3.471,-3.4797,-3.4958,-3.509,-3.5251,-3.5552,-3.5763,-3.61,-3.6407,-3.6539,-3.6597,-3.6597,-3.6597,-3.6597,-3.6597,-3.6597,-3.6597,-3.6597,-3.6597,-3.64,-3.6103,-3.5905,-3.5536,-3.519,-3.4889,-3.4706,-3.4442,-3.4442,-3.4541,-3.4563,-3.4563,-3.4696,-3.4803,-3.4803,-3.4803,-3.4803,-3.4803,-3.4683,-3.4188,-3.3065,-3.0223,-2.7589,-2.6418,-2.3421,-2.1295,-2.136,-2.1384,-2.1384,-2.1384,-2.1384,-2.1384,-2.1384,-2.1384,-2.1384,-2.1384,-2.1384,-2.1384,-2.1384,-2.1384,-2.1384,-2.1384,-2.1384,-2.1384,-2.1384,-2.1384,-2.1384,-2.1384,-2.1932,-2.2253,-2.2371,-2.4645,-2.6058,-3.2778,-3.2778,-3.2778,-3.2778,-3.2778,-3.2778,-3.2778,-3.2778,-3.2778,-3.2778,-3.2778,-3.2837,-3.3085,-3.3583,-3.4022,-3.4183,-3.4417,-3.4607,-3.4695,-3.471,-3.471,-3.471,-3.471,-3.471,-3.471,-3.471,-3.471,-3.471,-3.471,-3.471,-3.471,-3.471,-3.471,-3.471,-3.471,-3.471,-3.471,-3.471,-3.471,-3.471,-3.471,-3.4871,-3.5163,-3.5236,-3.5456,-3.5778,-3.6012,-3.6305,-3.6597,-3.6597,-3.6597,-3.6597,-3.6597,-3.6597,-3.6597,-3.6597,-3.6498,-3.64,-3.64,-3.6061,-3.5721,-3.5536,-3.5146,-3.4802,-3.4612,-3.4509,-3.4429,-3.4429,-3.4643,-3.487,-3.487,-3.503,-3.5191,-3.5191,-3.5191,-3.5191,-3.5191,-3.503,-3.44,-3.2892,-3.0239,-2.7768,-2.6038,-2.3337,-2.1384,-2.1384,-2.1384,-2.1384,-2.1384,-2.1384,-2.1384,-2.1384,-2.1384,-2.1384,-2.1384,-2.1384,-2.1384,-2.1384,-2.1384,-2.1384,-2.1384,-2.1384,-2.1384,-2.1384,-2.1384,-2.1384,-2.1384,-2.2025,-2.2581,-2.3137,-2.5199,-2.6924,-3.2778,-3.2778,-3.2778,-3.2778,-3.2778,-3.2778,-3.2778,-3.2778,-3.2778,-3.2778,-3.2778,-3.2778,-3.2793,-3.3071,-3.3495,-3.4124,-3.4227,-3.4358,-3.4666,-3.471,-3.471,-3.471,-3.471,-3.471,-3.471,-3.471,-3.471,-3.471,-3.471,-3.471,-3.471,-3.471,-3.471,-3.471,-3.471,-3.471,-3.471,-3.471,-3.471,-3.471,-3.471,-3.4871,-3.5163,-3.5581,-3.5792,-3.61,-3.6114,-3.6305,-3.6597,-3.6597,-3.6597,-3.6597,-3.6597,-3.6597,-3.6597,-3.6597,-3.6301,-3.5805,-3.5805,-3.5706,-3.5445,-3.4968,-3.487,-3.5014,-3.4501,-3.4509,-3.4736,-3.4736,-3.495,-3.5177,-3.5177,-3.5191,-3.5191,-3.5191,-3.5191,-3.5191,-3.5191,-3.5191,-3.5177,-3.5085,-3.1427,-2.8296,-2.8091,-2.4418,-2.1384,-2.1384,-2.1384,-2.1384,-2.1384,-2.1384,-2.1384,-2.1384,-2.1384,-2.1384,-2.1384,-2.1384,-2.1384,-2.1384,-2.1384,-2.1384,-2.1384,-2.1384,-2.1384,-2.1384,-2.1384,-2.1384,-2.1384,-2.3547,-2.4101,-2.3246,-2.766,-2.9167,-3.2778,-3.2778,-3.294,-3.3558,-3.3205,-3.294,-3.3558,-3.3205,-3.2778,-3.2778,-3.2778,-3.2837,-3.3041,-3.3173,-3.3393,-3.3832,-3.408,-3.4329,-3.4666,-3.471,-3.471,-3.471,-3.471,-3.471,-3.471,-3.471,-3.471,-3.471,-3.471,-3.471,-3.471,-3.471,-3.471,-3.471,-3.471,-3.471,-3.471,-3.471,-3.471,-3.471,-3.49,-3.5163,-3.5581,-3.5807,-3.6129,-3.6436,-3.6436,-3.6495,-3.6597,-3.6597,-3.6597,-3.6597,-3.6597,-3.6597,-3.6612,-3.6202,-3.6004,-3.5735,-3.5635,-3.5288,-3.5023,-3.4911,-3.4979,-3.4914,-3.4706,-3.4803,-3.5044,-3.5044,-3.5124,-3.5191,-3.5191,-3.5191,-3.5191,-3.5191,-3.5191,-3.4768,-3.3248,-3.2929,-3.2929,-3.2929,-2.9263,-2.6038,-2.6038,-2.3438,-2.1384,-2.1384,-2.1384,-2.1384,-2.1384,-2.1384,-2.1384,-2.1384,-2.1384,-2.1384,-2.1384,-2.1384,-2.1384,-2.1384,-2.1384,-2.1384,-2.1384,-2.1384,-2.1384,-2.1384,-2.1384,-2.1384,-2.1384,-2.2253,-2.2463,-2.2143,-2.6038,-2.7552,-3.2924,-3.2851,-3.3029,-3.3998,-3.3734,-3.347,-3.4086,-3.3824,-3.328,-3.3013,-3.3012,-3.3158,-3.3363,-3.3407,-3.351,-3.3846,-3.408,-3.4329,-3.4666,-3.471,-3.471,-3.471,-3.471,-3.471,-3.471,-3.471,-3.471,-3.471,-3.471,-3.471,-3.471,-3.471,-3.471,-3.471,-3.471,-3.471,-3.471,-3.471,-3.4753,-3.4856,-3.5075,-3.5383,-3.5807,-3.6027,-3.629,-3.6597,-3.6597,-3.6597,-3.6597,-3.6597,-3.6597,-3.6597,-3.6597,-3.6597,-3.6498,-3.6004,-3.5778,-3.5692,-3.5302,-3.5019,-3.4728,-3.4917,-3.4981,-3.491,-3.491,-3.5044,-3.5191,-3.5191,-3.5191,-3.5191,-3.5191,-3.5191,-3.5191,-3.5191,-3.5191,-3.4544,-3.2173,-3.1735,-3.1415,-3.0667,-2.7434,-2.4745,-2.4745,-2.29,-2.1384,-2.1384,-2.1384,-2.1384,-2.1384,-2.1384,-2.1384,-2.1384,-2.1384,-2.1384,-2.1384,-2.1384,-2.1384,-2.1384,-2.1384,-2.1384,-2.1384,-2.1384,-2.1384,-2.1384,-2.1384,-2.1384,-2.1384,-2.2143,-2.2782,-2.3228,-2.6363,-2.8296,0.0,0.0,0.0,-3.4013,-3.4189,-3.4189,-3.4261,-3.4433,-3.4305,-3.3426,-3.351,-3.3729,-3.3744,-3.3744,-3.3846,-3.4183,-3.4227,-3.4329,-3.4666,-3.471,-3.471,-3.471,-3.471,-3.471,-3.471,-3.471,-3.471,-3.471,-3.471,-3.471,-3.471,-3.471,-3.471,-3.471,-3.471,-3.471,-3.471,-3.471,-3.4856,-3.5163,-3.5192,-3.5529,-3.6114,-3.6129,-3.6305,-3.6597,-3.6597,-3.6597,-3.6597,-3.6597,-3.6597,-3.6597,-3.6597,-3.6597,-3.6513,-3.6018,-3.5721,-3.5386,-3.4908,-3.4795,-3.4763,-3.4763,-3.4963,-3.5191,-3.5191,-3.5191,-3.5191,-3.5191,-3.5191,-3.5191,-3.5191,-3.5191,-3.5191,-3.5191,-3.5191,-3.4438,-3.2066,-3.1533,-3.0881,-2.8619,-2.6255,-2.4745,-2.4745,-2.29,-2.1384,-2.1384,-2.1384,-2.1384,-2.1384,-2.1384,-2.1384,-2.1384,-2.1384,-2.1384,-2.1384,-2.1384,-2.1384,-2.1384,-2.1384,-2.1384,-2.1384,-2.1384,-2.1384,-2.1384,-2.1494,-2.1494,-2.1384,-2.3665,-2.5397,-2.6471,-2.8845,-3.1521,-3.3597,0.0,0.0,0.0,0.0,0.0,-3.5867,-3.5388,-3.4484,-3.4305,-3.3947,-3.3802,-3.4036,-3.408,-3.4183,-3.4519,-3.4373,-3.4329,-3.4666,-3.471,-3.471,-3.471,-3.471,-3.471,-3.471,-3.471,-3.471,-3.471,-3.471,-3.471,-3.471,-3.471,-3.471,-3.471,-3.471,-3.471,-3.471,-3.471,-3.4856,-3.5163,-3.5397,-3.5734,-3.6129,-3.6363,-3.6524,-3.6597,-3.6597,-3.6597,-3.6597,-3.6597,-3.6597,-3.6597,-3.6597,-3.6597,-3.6528,-3.6263,-3.5905,-3.5543,-3.539,-3.5148,-3.4803,-3.5004,-3.5124,-3.5191,-3.5191,-3.5191,-3.5191,-3.5191,-3.5191,-3.5191,-3.5191,-3.5191,-3.5191,-3.5191,-3.3896,-3.2066,-2.9704,-2.7865,-2.6471,-2.593,-2.3874,-2.2371,-2.2371,-2.1823,-2.1384,-2.1384,-2.1384,-2.1384,-2.1384,-2.1384,-2.1384,-2.1384,-2.1384,-2.1384,-2.1384,-2.1384,-2.1384,-2.1384,-2.1384,-2.1384,-2.1384,-2.1384,-2.1384,-2.1384,-2.3018,-2.3018,-2.1384,-2.3665,-2.4092,-2.29,-2.6894,-3.0335,-3.3934,-3.4105,-3.4668,-3.589,0.0,0.0,-3.6651,-3.6168,-3.545,-3.4638,-3.4271,-3.4197,-3.4388,-3.4417,-3.4475,-3.4666,-3.4549,-3.449,-3.468,-3.471,-3.471,-3.471,-3.471,-3.471,-3.471,-3.471,-3.471,-3.471,-3.471,-3.471,-3.471,-3.471,-3.471,-3.471,-3.471,-3.471,-3.471,-3.4827,-3.5046,-3.5368,-3.569,-3.6012,-3.6334,-3.6524,-3.6597,-3.6597,-3.6597,-3.6597,-3.6597,-3.6597,-3.6597,-3.6612,-3.6301,-3.6388,-3.6433,-3.5819,-3.5539,-3.5512,-3.5369,-3.5156,-3.4977,-3.5137,-3.5191,-3.5191,-3.5191,-3.5191,-3.5191,-3.5191,-3.5191,-3.5191,-3.5191,-3.5191,-3.5191,-3.5191,-3.3354,-3.1095,-2.8845,-2.6471,-2.4527,-2.3547,-2.2261,-2.1384,-2.1384,-2.1384,-2.1384,-2.1384,-2.1384,-2.1384,-2.1384,-2.1384,-2.1384,-2.1384,-2.1384,-2.1384,-2.1384,-2.1384,-2.1384,-2.1384,-2.1384,-2.1384,-2.1384,-2.1384,-2.1823,-2.2791,-2.3219,-2.3219,-2.2791,-2.4201,-2.4092,-2.29,-2.6579,-2.9692,-3.4271,-3.4785,-3.5529,-3.64,-3.7371,0.0,-3.7144,-3.7147,-3.6766,-3.5042,-3.4847,-3.4976,-3.4976,-3.4976,-3.4976,-3.4976,-3.4882,-3.4803,-3.471,-3.471,-3.471,-3.471,-3.471,-3.471,-3.471,-3.471,-3.471,-3.471,-3.471,-3.471,-3.471,-3.471,-3.471,-3.471,-3.471,-3.471,-3.471,-3.5002,-3.5419,-3.5742,-3.5968,-3.629,-3.6597,-3.6597,-3.6597,-3.6597,-3.6597,-3.6597,-3.6597,-3.6498,-3.6498,-3.6513,-3.6047,-3.6034,-3.6091,-3.5267,-3.513,-3.5491,-3.5116,-3.5082,-3.5191,-3.5191,-3.5191,-3.5191,-3.5191,-3.5191,-3.5191,-3.5191,-3.5191,-3.5191,-3.5191,-3.498,-3.4768,-3.4768,-3.2823,-3.0346,-2.8296,-2.6038,-2.3774,-2.1823,-2.1384,-2.1384,-2.1384,-2.1384,-2.1384,-2.1384,-2.1384,-2.1384,-2.1384,-2.1384,-2.1384,-2.1384,-2.1384,-2.1384,-2.1384,-2.1384,-2.1384,-2.1384,-2.1384,-2.1384,-2.1384,-2.1384,-2.2354,-2.4418,-2.2463,-2.269,-2.518,-2.4636,-2.4636,-2.518,-2.7012,-2.9156,-3.4607,-3.5293,-3.619,-3.6826,-3.7743,0.0,-3.8902,-3.8585,-3.8203,-3.7841,-3.7385,-3.7069,-3.7069,-3.7069,-3.7069,-3.7069,-3.6436,-3.5615,-3.4803,-3.471,-3.471,-3.471,-3.471,-3.471,-3.471,-3.471,-3.471,-3.471,-3.471,-3.471,-3.471,-3.471,-3.471,-3.471,-3.471,-3.471,-3.471,-3.5002,-3.5419,-3.5742,-3.5968,-3.629,-3.6597,-3.6597,-3.6597,-3.6597,-3.6597,-3.6597,-3.6597,-3.6103,-3.6004,-3.5933,-3.6192,-3.602,-3.5731,-3.593,-3.5782,-3.5519,-3.5659,-3.5572,-3.5191,-3.5191,-3.5191,-3.5191,-3.5191,-3.5191,-3.5191,-3.5191,-3.5191,-3.5191,-3.5191,-3.379,-3.2385,-3.2385,-2.9156,-2.6038,-2.5614,-2.3665,-2.1932,-2.1494,-2.1384,-2.1384,-2.1384,-2.1384,-2.1384,-2.1384,-2.1384,-2.1384,-2.1384,-2.1384,-2.1384,-2.1384,-2.1384,-2.1384,-2.1384,-2.1384,-2.1384,-2.1384,-2.1384,-2.1384,-2.1384,-2.1384,-2.1595,-2.2025,-2.1595,-2.3429,-2.766,-2.3874,-2.3983,-2.7542,-2.6146,-2.6688,-3.535,-3.6173,-3.713,-3.789,-3.8844,0.0,0.0,-3.9074,-3.8754,-3.8191,-3.7863,-3.7623,-3.7623,-3.7623,-3.7623,-3.7623,-3.6807,-3.5987,-3.5536,-3.4976,-3.471,-3.471,-3.471,-3.471,-3.471,-3.471,-3.471,-3.471,-3.471,-3.471,-3.471,-3.471,-3.471,-3.471,-3.471,-3.4783,-3.4929,-3.5236,-3.5558,-3.588,-3.6202,-3.6451,-3.6597,-3.6597,-3.6597,-3.6597,-3.6597,-3.64,-3.6216,-3.6077,-3.5749,-3.5277,-3.5431,-3.5466,-3.5465,-3.5562,-3.5469,-3.5409,-3.5558,-3.5401,-3.5191,-3.5191,-3.5191,-3.5191,-3.5191,-3.5191,-3.5191,-3.5191,-3.5191,-3.5191,-3.5191,-3.3472,-3.1735,-3.1735,-2.8188,-2.4745,-2.4745,-2.3018,-2.1384,-2.1384,-2.1384,-2.1384,-2.1384,-2.1384,-2.1384,-2.1384,-2.1384,-2.1384,-2.1384,-2.1384,-2.1384,-2.1384,-2.1384,-2.1384,-2.1384,-2.1384,-2.1932,-2.3018,-2.2025,-2.1932,-2.3018,-2.2025,-2.1932,-2.3018,-2.4201,-2.5387,-2.6579,-2.4201,-2.431,-2.6579,-2.5397,-2.5397,-3.6173,-3.7177,-3.8083,-3.8926,-3.9856,-4.0402,0.0,0.0,0.0,-3.8359,-3.8175,-3.8175,-3.8175,-3.8175,-3.8175,-3.8175,-3.7362,-3.673,-3.673,-3.5894,-3.5163,-3.471,-3.471,-3.471,-3.471,-3.471,-3.471,-3.471,-3.471,-3.471,-3.471,-3.471,-3.471,-3.471,-3.4768,-3.4914,-3.5149,-3.5544,-3.5866,-3.6114,-3.6451,-3.6597,-3.6597,-3.6597,-3.6597,-3.6597,-3.6597,-3.6301,-3.5834,-3.6049,-3.5616,-3.4788,-3.4843,-3.5055,-3.5283,-3.4921,-3.499,-3.5191,-3.5191,-3.5191,-3.5191,-3.5191,-3.5191,-3.5191,-3.5191,-3.5191,-3.5191,-3.5191,-3.5191,-3.5085,-3.465,-3.2823,-3.0881,-3.0453,-2.7218,-2.4201,-2.4201,-2.2699,-2.1384,-2.1384,-2.1384,-2.1384,-2.1384,-2.1384,-2.1384,-2.1384,-2.1384,-2.1384,-2.1384,-2.1384,-2.1384,-2.1384,-2.1823,-2.1932,-2.1384,-2.1823,-2.269,-2.4101,-2.2463,-2.2253,-2.4092,-2.2791,-2.311,-2.5397,-2.6904,-2.6904,-2.5506,-2.4527,-2.4418,-2.4745,-2.431,-2.4418,-3.7162,-3.8191,-3.8942,-3.9034,-3.9856,-4.0583,-4.0493,0.0,-4.0402,-4.0311,0.0,-4.0311,-4.0311,0.0,0.0,-4.0311,-3.9383,-3.8759,-3.8759,-3.7899,-3.6622,-3.4882,-3.471,-3.471,-3.471,-3.471,-3.471,-3.471,-3.471,-3.471,-3.471,-3.471,-3.471,-3.471,-3.4958,-3.5119,-3.5163,-3.5763,-3.6085,-3.6114,-3.6451,-3.6597,-3.6597,-3.6597,-3.6597,-3.6597,-3.6597,-3.6301,-3.5834,-3.5648,-3.5337,-3.5116,-3.5273,-3.5216,-3.4894,-3.5057,-3.5164,-3.5191,-3.5191,-3.5191,-3.5191,-3.5191,-3.5191,-3.5191,-3.5191,-3.5191,-3.5191,-3.5191,-3.5191,-3.4768,-3.2598,-3.0453,-2.8199,-2.6038,-2.3665,-2.1823,-2.1823,-2.1612,-2.1384,-2.1384,-2.1384,-2.1384,-2.1384,-2.1384,-2.1384,-2.1384,-2.1384,-2.1384,-2.1384,-2.1384,-2.1384,-2.1384,-2.3228,-2.3547,-2.1612,-2.3228,-2.3665,-2.1932,-2.1502,-2.1502,-2.1823,-2.3438,-2.5496,-2.7876,-2.6146,-2.6038,-2.7876,-2.3765,-2.2791,-2.4745,-2.2673,-2.29,-3.8099,-3.8375,-3.8559,-3.9657,-3.9856,-3.9856,-4.0493,-4.0583,-4.0583,-4.0583,0.0,0.0,0.0,0.0,0.0,0.0,-3.9765,-3.9125,-3.9125,-3.8267,-3.7254,-3.6436,-3.5894,-3.535,-3.4803,-3.471,-3.471,-3.471,-3.471,-3.471,-3.471,-3.471,-3.471,-3.471,-3.5002,-3.5251,-3.5537,-3.5895,-3.6217,-3.6407,-3.6539,-3.6597,-3.6597,-3.6597,-3.6597,-3.6612,-3.6301,-3.5906,-3.5606,-3.5323,-3.513,-3.4914,-3.521,-3.5227,-3.503,-3.5151,-3.5191,-3.5191,-3.5191,-3.5191,-3.5191,-3.5191,-3.5191,-3.5191,-3.5191,-3.5191,-3.5191,-3.5191,-3.5191,-3.465,-3.2279,-3.0025,-2.7768,-2.5397,-2.3018,-2.1384,-2.1384,-2.1384,-2.1384,-2.1384,-2.1384,-2.1384,-2.1384,-2.1384,-2.1384,-2.1384,-2.1384,-2.1384,-2.1384,-2.1384,-2.1384,-2.1384,-2.3455,-2.3874,-2.1587,-2.3547,-2.4418,-2.3455,-2.4627,-2.5387,-2.5387,-2.5071,-2.593,-2.8296,-2.6038,-2.5288,-2.6255,-2.431,-2.3219,-2.2791,-2.1823,-2.1932,-3.8283,-3.8175,-3.7991,-3.9748,-3.9673,-3.9399,-4.0402,-4.0583,-4.0583,-4.0583,-4.0583,0.0,0.0,0.0,-4.0583,-4.0583,0.0,-3.9491,-3.9491,-3.8926,-3.8267,-3.7715,-3.6807,-3.5894,-3.5163,-3.4882,-3.471,-3.471,-3.471,-3.471,-3.471,-3.471,-3.4739,-3.4827,-3.5134,-3.5441,-3.5778,-3.6085,-3.6363,-3.6597,-3.6597,-3.6597,-3.6597,-3.6597,-3.6498,-3.6414,-3.6104,-3.5677,-3.5313,-3.5205,-3.508,-3.479,-3.5084,-3.5191,-3.5191,-3.5191,-3.5191,-3.5191,-3.5191,-3.5191,-3.5191,-3.5191,-3.5191,-3.5191,-3.5191,-3.5191,-3.5191,-3.5191,-3.4768,-3.3684,-3.1415,-2.9048,-2.6796,-2.4418,-2.2581,-2.1384,-2.1384,-2.1384,-2.1384,-2.1384,-2.1384,-2.1384,-2.1384,-2.1384,-2.1384,-2.1384,-2.1384,-2.1384,-2.1384,-2.1384,-2.1595,-2.2261,-2.3828,-2.4174,-2.2531,-2.4548,-2.5998,-2.6008,-2.6918,-2.7755,-2.8393,-2.6068,-2.593,-2.8296,-2.6038,-2.4745,-2.4745,-2.4201,-2.3018,-2.1384,-2.1384,-2.1384,-3.7346,-3.7623,-3.7807,-3.8926,-3.9125,-3.9399,-4.0402,-4.0583,-4.0583,-4.0583,-4.0583,-4.0583,-4.0583,-4.0583,-4.0583,-4.0583,-4.0583,0.0,0.0,-4.0493,-3.9748,-3.7807,-3.6807,-3.6173,-3.6173,-3.5256,-3.471,-3.471,-3.471,-3.471,-3.471,-3.471,-3.4841,-3.5134,-3.5552,-3.5778,-3.61,-3.6422,-3.6597,-3.6597,-3.6597,-3.6597,-3.6597,-3.6597,-3.6301,-3.582,-3.6135,-3.5674,-3.4747,-3.5335,-3.527,-3.479,-3.5084,-3.5191,-3.5191,-3.5191,-3.5191,-3.5191,-3.5191,-3.5191,-3.5191,-3.5191,-3.5191,-3.5191,-3.5191,-3.5191,-3.5191,-3.5191,-3.3578,-3.1308,-2.9048,-2.6688,-2.431,-2.2025,-2.1494,-2.1384,-2.1384,-2.1384,-2.1384,-2.1384,-2.1384,-2.1384,-2.1384,-2.1384,-2.1384,-2.1384,-2.1384,-2.1384,-2.1384,-2.1384,-2.2261,-2.4418,-2.4914,-2.5046,-2.5037,-2.7416,-2.8875,-2.9106,-2.6794,-2.6345,-2.864,-2.6147,-2.593,-2.8296,-2.6038,-2.4745,-2.4745,-2.2581,-2.1494,-2.1384,-2.1384,-2.1384,-3.7346,-3.7162,-3.69,-3.7899,-3.8083,-3.8375,-3.9383,-4.0129,-4.0583,-4.0583,-4.0583,-4.0583,-4.0583,-4.0583,-4.0583,-4.0583,-4.0583,-4.0583,0.0,-4.0583,-4.0311,-3.9657,-3.8083,-3.69,-3.6266,-3.5256,-3.471,-3.471,-3.471,-3.471,-3.471,-3.49,-3.5046,-3.5149,-3.5675,-3.6012,-3.6114,-3.6436,-3.6597,-3.6597,-3.6597,-3.6597,-3.6597,-3.6202,-3.6004,-3.582,-3.5347,-3.5106,-3.4918,-3.5017,-3.5079,-3.5057,-3.5151,-3.5191,-3.5191,-3.5191,-3.5191,-3.5191,-3.5191,-3.5191,-3.5191,-3.5191,-3.5191,-3.5191,-3.5191,-3.4121,-3.2929,-3.2929,-3.1201,-2.8941,-2.6579,-2.5397,-2.4201,-2.1932,-2.1384,-2.1384,-2.1384,-2.1384,-2.1384,-2.1384,-2.1384,-2.1384,-2.1384,-2.149,-2.153,-2.1408,-2.1384,-2.1425,-2.1555,-2.299,-2.4339,-2.514,-2.6734,-2.7005,-2.5475,-2.6179,-2.7347,-2.8985,-2.827,-2.8008,-2.8778,-2.7789,-2.7663,-2.8522,-2.6107,-2.4745,-2.4745,-2.2472,-2.1384,-2.1384,-2.1384,-2.1384,-3.6436,-3.6173,-3.5894,-3.69,-3.7069,-3.7346,-3.8375,-3.9109,-3.9565,-3.9565,-3.9565,-3.9565,-3.9565,-3.9839,-4.0038,-4.0038,-4.0402,-4.0583,0.0,-4.0583,-4.0583,-4.0583,-3.8818,-3.7346,-3.6807,-3.5536,-3.471,-3.471,-3.471,-3.4753,-3.4856,-3.5046,-3.5266,-3.55,-3.5895,-3.6173,-3.629,-3.6495,-3.6597,-3.6597,-3.6597,-3.6498,-3.6301,-3.6004,-3.5678,-3.5407,-3.5023,-3.4918,-3.5012,-3.4998,-3.503,-3.5191,-3.5191,-3.5191,-3.5191,-3.5191,-3.5191,-3.5191,-3.5191,-3.5191,-3.5191,-3.5191,-3.5191,-3.5072,-3.4241,-3.2922,-3.1544,-3.0762,-2.8908,-2.6704,-2.531,-2.4273,-2.3228,-2.1705,-2.1384,-2.1384,-2.1384,-2.1384,-2.1384,-2.1384,-2.1384,-2.1408,-2.1465,-2.1579,-2.162,-2.149,-2.153,-2.1944,-2.2941,-2.3625,-2.4772,-2.6541,-2.664,-2.6719,-2.7012,-2.7012,-2.8007,-3.0365,-2.9622,-2.8681,-2.7803,-2.7567,-2.7124,-2.6263,-2.4522,-2.3663,-2.3663,-2.2185,-2.1384,-2.1384,-2.1384,-2.1384]}]]